[[{"header":{"parameterUnit":"m.s-1","parameterCategory":1,"la1":31.0,"la2":29.5877,"lo1":-88.7671,"lo2":-86.6584,"dy":0.0162,"dx":0.0185,"nx":115,"ny":88,"refTime":"2023-09-05T12:00:00:Z","depth":0,"parameterNumber":2,"parameterNumberName":"U-component_of_WINDS"},"data":[0.0,0.0,0.0,0.0,0.0,0.0,0.0,0.0,0.0,0.0,0.0,0.0,0.0,0.0,0.0,0.0,0.0,0.0,0.0,0.0,0.0,0.0,0.0,0.0,0.0,0.0,0.0,0.0,0.0,0.0,0.0,0.0,0.0,0.0,0.0,0.0,0.0,0.0,0.0,0.0,0.0,0.0,0.0,0.0,0.0,0.0,0.0,0.0,0.0,0.0,0.0,0.0,0.0,0.0,0.0,0.0,0.0,0.0,0.0,0.0,0.0,0.0,0.0,0.0,0.0,0.0,0.0,0.0,0.0,0.0,0.0,0.0,0.0,0.0,0.0,0.0,0.0,0.0,0.0,0.0,0.0,0.0,0.0,0.0,0.0,0.0,0.0,0.0,0.0,0.0,0.0,0.0,0.0,0.0,0.0,0.0,0.0,0.0,0.0,0.0,0.0,0.0,0.0,0.0,0.0,0.0,0.0,0.0,0.0,0.0,0.0,0.0,0.0,0.0,0.0,0.0,0.0,0.0,0.0,0.0,0.0,0.0,0.0,0.0,0.0,0.0,0.0,0.0,0.0,0.0,0.0,0.0,0.0,0.0,0.0,0.0,0.0,0.0,0.0,0.0,0.0,0.0,0.0,0.0,0.0,0.0,0.0,0.0,0.0,0.0,0.0,0.0,0.0,0.0,0.0,0.0,0.0,0.0,0.0,0.0,0.0,0.0,0.0,0.0,0.0,0.0,0.0,0.0,0.0,0.0,0.0,0.0,0.0,0.0,0.0,0.0,0.0,0.0,0.0,0.0,0.0,0.0,0.0,0.0,0.0,0.0,0.0,0.0,0.0,0.0,0.0,0.0,0.0,0.0,0.0,0.0,0.0,0.0,0.0,0.0,0.0,0.0,0.0,0.0,0.0,0.0,0.0,0.0,0.0,0.0,0.0,0.0,0.0,0.0,0.0,0.0,0.0,0.0,0.0,0.0,0.0,0.0,0.0,0.0,0.0,0.0,0.0,0.0,0.0,0.0,0.0,0.0,0.0,0.0,0.0,0.0,0.0,0.0,0.0,0.0,0.0,0.0,0.0,0.0,0.0,0.0,0.0,0.0,0.0,0.0,0.0,0.0,0.0,0.0,0.0,0.0,0.0,0.0,0.0,0.0,0.0,0.0,0.0,0.0,0.0,0.0,0.0,0.0,0.0,0.0,0.0,0.0,0.0,0.0,0.0,0.0,0.0,0.0,0.0,0.0,0.0,0.0,0.0,0.0,0.0,0.0,0.0,0.0,0.0,0.0,0.0,0.0,0.0,0.0,0.0,0.0,0.0,0.0,0.0,0.0,0.0,0.0,0.0,0.0,0.0,0.0,0.0,0.0,0.0,0.0,0.0,0.0,0.0,0.0,0.0,0.0,0.0,0.0,0.0,0.0,0.0,0.0,0.0,0.0,0.0,0.0,0.0,0.0,0.0,0.0,0.0,0.0,0.0,0.0,0.0,0.0,0.0,0.0,0.0,0.0,0.0,0.0,0.0,0.0,0.0,0.0,0.0,0.0,0.0,0.0,0.0,0.0,0.0,0.0,0.0,0.0,0.0,0.0,0.0,0.0,0.0,0.0,0.0,0.0,0.0,0.0,0.0,0.0,0.0,0.0,0.0,0.0,0.0,0.0,0.0,0.0,0.0,0.0,0.0,0.0,0.0,0.0,0.0,0.0,0.0,0.0,0.0,0.0,0.0,0.0,0.0,0.0,0.0,0.0,0.0,0.0,0.0,0.0,0.0,0.0,0.0,0.0,0.0,0.0,0.0,0.0,0.0,0.0,0.0,0.0,0.0,0.0,0.0,0.0,0.0,0.0,0.0,0.0,0.0,0.0,0.0,0.0,0.0,0.0,0.0,0.0,0.0,0.0,0.0,0.0,0.0,0.0,0.0,0.0,0.0,0.0,0.0,0.0,0.0,0.0,0.0,0.0,0.0,0.0,0.0,0.0,0.0,0.0,0.0,0.0,0.0,0.0,0.0,0.0,0.0,0.0,0.0,0.0,0.0,0.0,0.0,0.0,0.0,0.0,0.0,0.0,0.0,0.0,0.0,0.0,0.0,0.0,0.0,0.0,0.0,0.0,0.0,0.0,0.0,0.0,0.0,0.0,0.0,0.0,0.0,0.0,0.0,0.0,0.0,0.0,0.0,0.0,0.0,0.0,0.0,0.0,0.0,0.0,0.0,0.0,0.0,0.0,0.0,0.0,0.0,0.0,0.0,0.0,0.0,0.0,0.0,0.0,0.0,0.0,0.0,0.0,0.0,0.0,0.0,0.0,0.0,0.0,0.0,0.0,0.0,0.0,0.0,0.0,0.0,0.0,0.0,0.0,0.0,0.0,0.0,0.0,0.0,0.0,0.0,0.0,0.0,0.0,0.0,0.0,0.0,0.0,0.0,0.0,0.0,0.0,0.0,0.0,0.0,0.0,0.0,0.0,0.0,0.0,0.0,0.0,0.0,0.0,0.0,0.0,0.0,0.0,0.0,0.0,0.0,0.0,0.0,0.0,0.0,0.0,0.0,0.0,0.0,0.0,0.0,0.0,0.0,0.0,0.0,0.0,0.0,0.0,0.0,0.0,0.0,0.0,0.0,0.0,0.0,0.0,0.0,0.0,0.0,0.0,0.0,0.0,0.0,0.0,0.0,0.0,0.0,0.0,0.0,0.0,0.0,0.0,0.0,0.0,0.0,0.0,0.0,0.0,0.0,0.0,0.0,0.0,0.0,0.0,0.0,0.0,0.0,0.0,0.0,0.0,0.0,0.0,0.0,0.0,0.0,0.0,0.0,0.0,0.0,0.0,0.0,0.0,0.0,0.0,0.0,0.0,0.0,0.0,0.0,0.0,0.0,0.0,0.0,0.0,0.0,0.0,0.0,0.0,0.0,0.0,0.0,0.0,0.0,0.0,0.0,0.0,0.0,0.0,0.0,0.0,0.0,0.0,0.0,0.0,0.0,0.0,0.0,0.0,0.0,0.0,0.0,0.0,0.0,0.0,0.0,0.0,0.0,0.0,0.0,0.0,0.0,0.0,0.0,0.0,0.0,0.0,0.0,0.0,0.0,0.0,0.0,0.0,0.0,0.0,0.0,0.0,0.0,0.0,0.0,0.0,0.0,0.0,0.0,0.0,0.0,0.0,0.0,0.0,0.0,0.0,0.0,0.0,0.0,0.0,0.0,0.0,0.0,0.0,0.0,0.0,0.0,0.0,0.0,0.0,0.0,0.0,0.0,0.0,0.0,0.0,0.0,0.0,0.0,0.0,0.0,0.0,0.0,0.0,0.0,0.0,0.0,0.0,0.0,0.0,0.0,0.0,0.0,0.0,0.0,0.0,0.0,0.0,0.0,0.0,0.0,0.0,0.0,0.0,0.0,0.0,0.0,0.0,0.0,0.0,0.0,0.0,0.0,0.0,0.0,0.0,0.0,0.0,0.0,0.0,0.0,0.0,0.0,0.0,0.0,0.0,0.0,0.0,0.0,0.0,0.0,0.0,0.0,0.0,0.0,0.0,0.0,0.0,0.0,0.0,0.0,0.0,0.0,0.0,0.0,0.0,0.0,0.0,0.0,0.0,0.0,0.0,0.0,0.0,0.0,0.0,0.0,0.0,0.0,0.0,0.0,0.0,0.0,0.0,0.0,0.0,0.0,0.0,0.0,0.0,0.0,0.0,0.0,0.0,0.0,0.0,0.0,0.0,0.0,0.0,0.0,0.0,0.0,0.0,0.0,0.0,0.0,0.0,0.0,0.0,0.0,0.0,0.0,0.0,0.0,0.0,0.0,0.0,0.0,0.0,0.0,0.0,0.0,0.0,0.0,0.0,0.0,0.0,0.0,0.0,0.0,0.0,0.0,0.0,0.0,0.0,0.0,0.0,0.0,0.0,0.0,0.0,0.0,0.0,0.0,0.0,0.0,0.0,0.0,0.0,0.0,0.0,0.0,0.0,0.0,0.0,0.0,0.0,0.0,0.0,0.0,0.0,0.0,0.0,0.0,0.0,0.0,0.0,0.0,0.0,0.0,0.0,0.0,0.0,0.0,0.0,0.0,0.0,0.0,0.0,0.0,0.0,0.0,0.0,0.0,0.0,0.0,0.0,0.0,0.0,0.0,0.0,0.0,0.0,0.0,0.0,0.0,0.0,0.0,0.0,0.0,0.0,0.0,0.0,0.0,0.0,0.0,0.0,0.0,0.0,0.0,0.0,0.0,0.0,0.0,0.0,0.0,0.0,0.0,0.0,0.0,0.0,0.0,0.0,1.7498,0.0,0.0,0.0,0.0,0.0,0.0,0.0,0.0,0.0,0.0,0.0,0.0,0.0,0.0,0.0,0.0,0.0,0.0,0.0,0.0,0.0,0.0,0.0,0.0,0.0,0.0,0.0,0.0,0.0,0.0,0.0,0.0,0.0,0.0,0.0,0.0,0.0,0.0,0.0,0.0,0.0,0.0,0.0,0.0,0.0,0.0,0.0,0.0,0.0,0.0,0.0,0.0,0.0,0.0,0.0,0.0,0.0,0.0,0.0,0.0,0.0,0.0,0.0,0.0,0.0,0.0,0.0,0.0,0.0,0.0,0.0,0.0,0.0,0.0,0.0,0.0,0.0,0.0,0.0,0.0,0.0,0.0,0.0,0.0,0.0,0.0,0.0,0.0,0.0,0.0,0.0,0.0,0.0,0.0,0.0,0.0,0.0,0.0,0.0,0.0,0.0,0.0,0.0,0.0,0.0,0.0,0.0,0.0,0.0,0.0,1.7498,1.7498,1.7498,1.7498,1.7474,0.0,0.0,0.0,0.0,0.0,0.0,0.0,0.0,0.0,0.0,0.0,0.0,0.0,0.0,0.0,0.0,0.0,0.0,0.0,0.0,0.0,0.0,0.0,0.0,0.0,0.0,0.0,0.0,0.0,0.0,0.0,0.0,0.0,0.0,0.0,0.0,0.0,0.0,0.0,0.0,0.0,0.0,0.0,0.0,0.0,0.0,0.0,0.0,0.0,0.0,0.0,0.0,0.0,0.0,0.0,0.0,0.0,0.0,0.0,0.0,0.0,0.0,0.0,0.0,0.0,0.0,0.0,0.0,0.0,0.0,0.0,0.0,0.0,0.0,0.0,0.0,0.0,0.0,0.0,0.0,0.0,0.0,0.0,0.0,0.0,0.0,0.0,0.0,0.0,0.0,0.0,0.0,0.0,0.0,0.0,0.0,0.0,0.0,0.0,0.0,0.0,0.0,0.0,0.0,0.0,0.0,0.0,0.0,0.0,0.0,0.0,0.0,1.7723,1.7723,1.7723,0.0,0.0,0.0,0.0,0.0,0.0,0.0,0.0,0.0,0.0,0.0,0.0,0.0,0.0,0.0,0.0,0.0,0.0,0.0,0.0,0.0,0.0,0.0,0.0,0.0,0.0,0.0,0.0,0.0,0.0,0.0,0.0,0.0,0.0,0.0,0.0,0.0,0.0,0.0,0.0,0.0,0.0,0.0,0.0,0.0,0.0,0.0,0.0,0.0,0.0,0.0,0.0,0.0,0.0,0.0,0.0,0.0,0.0,0.0,0.0,0.0,0.0,0.0,0.0,0.0,0.0,0.0,0.0,0.0,0.0,0.0,0.0,0.0,0.0,0.0,0.0,0.0,0.0,0.0,0.0,0.0,0.0,0.0,0.0,0.0,0.0,0.0,0.0,0.0,0.0,0.0,0.0,0.0,0.0,0.0,0.0,0.0,0.0,0.0,0.0,0.0,0.0,0.0,0.0,0.0,0.0,0.0,0.0,0.0,0.0,1.7789,1.8377,1.8393,0.0,1.836,0.0,0.0,0.0,0.0,0.0,0.0,0.0,0.0,0.0,0.0,0.0,0.0,0.0,0.0,0.0,0.0,0.0,0.0,0.0,0.0,0.0,0.0,0.0,0.0,0.0,0.0,0.0,0.0,0.0,0.0,0.0,0.0,0.0,0.0,0.0,0.0,0.0,0.0,0.0,0.0,0.0,0.0,0.0,0.0,0.0,0.0,0.0,0.0,0.0,0.0,0.0,0.0,0.0,0.0,0.0,0.0,0.0,0.0,0.0,0.0,0.0,0.0,0.0,0.0,0.0,0.0,0.0,0.0,0.0,0.0,0.0,0.0,0.0,0.0,0.0,0.0,0.0,0.0,0.0,0.0,0.0,0.0,0.0,0.0,0.0,0.0,0.0,0.0,0.0,0.0,0.0,0.0,0.0,0.0,0.0,0.0,0.0,0.0,0.0,0.0,0.0,0.0,0.0,0.0,0.0,0.0,0.0,0.0,0.0,0.0,1.7822,1.8476,1.8451,1.8244,0.0,0.0,0.0,0.0,0.0,0.0,0.0,0.0,0.0,0.0,0.0,0.0,0.0,0.0,0.0,0.0,0.0,0.0,0.0,0.0,0.0,0.0,0.0,0.0,0.0,0.0,0.0,0.0,0.0,0.0,0.0,0.0,0.0,0.0,0.0,0.0,0.0,0.0,0.0,0.0,0.0,0.0,0.0,0.0,0.0,0.0,0.0,0.0,0.0,0.0,0.0,0.0,0.0,0.0,0.0,0.0,0.0,0.0,0.0,0.0,0.0,0.0,0.0,0.0,0.0,0.0,0.0,0.0,0.0,0.0,0.0,0.0,0.0,0.0,0.0,0.0,0.0,0.0,0.0,0.0,0.0,0.0,0.0,0.0,0.0,0.0,0.0,0.0,0.0,0.0,0.0,0.0,0.0,0.0,0.0,0.0,0.0,0.0,0.0,0.0,0.0,0.0,0.0,0.0,0.0,0.0,0.0,0.0,0.0,0.0,1.7574,1.7822,1.8426,1.8244,1.7963,1.756,0.0,0.0,0.0,0.0,0.0,0.0,0.0,0.0,0.0,0.0,0.0,0.0,0.0,0.0,0.0,0.0,0.0,0.0,0.0,0.0,0.0,0.0,0.0,0.0,0.0,0.0,0.0,0.0,0.0,0.0,0.0,0.0,0.0,0.0,0.0,0.0,0.0,0.0,0.0,0.0,0.0,0.0,0.0,0.0,0.0,0.0,0.0,0.0,0.0,0.0,0.0,0.0,0.0,0.0,0.0,0.0,0.0,0.0,0.0,0.0,0.0,0.0,0.0,0.0,0.0,0.0,0.0,0.0,0.0,0.0,0.0,0.0,0.0,0.0,0.0,0.0,0.0,0.0,0.0,0.0,0.0,0.0,0.0,0.0,0.0,0.0,0.0,0.0,0.0,0.0,0.0,0.0,0.0,0.0,0.0,0.0,0.0,0.0,0.0,0.0,0.0,0.0,0.0,0.0,0.0,0.0,0.0,0.0,1.8377,1.7839,1.7781,1.8376,1.7774,1.7691,0.0,0.0,0.0,0.0,0.0,0.0,0.0,0.0,0.0,0.0,0.0,0.0,0.0,0.0,0.0,0.0,0.0,0.0,0.0,0.0,0.0,0.0,0.0,0.0,0.0,0.0,0.0,0.0,0.0,0.0,0.0,0.0,0.0,0.0,0.0,0.0,0.0,0.0,0.0,0.0,0.0,0.0,0.0,0.0,0.0,0.0,0.0,0.0,0.0,0.0,0.0,0.0,0.0,0.0,0.0,0.0,0.0,0.0,0.0,0.0,0.0,0.0,0.0,0.0,0.0,0.0,0.0,0.0,0.0,0.0,0.0,0.0,0.0,0.0,0.0,0.0,0.0,0.0,0.0,0.0,0.0,0.0,0.0,0.0,0.0,0.0,0.0,0.0,0.0,0.0,0.0,0.0,0.0,0.0,0.0,0.0,0.0,0.0,0.0,0.0,0.0,0.0,0.0,0.0,0.0,0.0,0.0,0.0,0.0,1.7839,1.8038,1.7988,1.7724,1.7863,1.7829,0.0,0.0,0.0,0.0,0.0,0.0,0.0,0.0,0.0,0.0,0.0,0.0,0.0,0.0,0.0,0.0,0.0,0.0,0.0,0.0,0.0,0.0,0.0,0.0,0.0,0.0,0.0,0.0,0.0,0.0,0.0,0.0,0.0,0.0,0.0,0.0,0.0,0.0,0.0,0.0,0.0,0.0,0.0,0.0,0.0,0.0,0.0,0.0,0.0,0.0,0.0,0.0,0.0,0.0,0.0,0.0,0.0,0.0,0.0,0.0,0.0,0.0,0.0,0.0,0.0,0.0,0.0,0.0,0.0,0.0,0.0,0.0,0.0,0.0,0.0,0.0,0.0,0.0,0.0,0.0,0.0,0.0,0.0,0.0,0.0,0.0,0.0,0.0,0.0,0.0,0.0,0.0,0.0,0.0,0.0,0.0,0.0,0.0,0.0,0.0,0.0,0.0,0.0,0.0,0.0,0.0,0.0,0.0,0.0,1.7232,0.0,1.7673,1.709,1.7648,1.7655,0.0,0.0,0.0,0.0,0.0,0.0,0.0,0.0,0.0,0.0,0.0,0.0,0.0,0.0,0.0,0.0,0.0,0.0,0.0,0.0,0.0,0.0,0.0,0.0,0.0,0.0,0.0,0.0,0.0,0.0,0.0,0.0,0.0,0.0,0.0,0.0,0.0,0.0,0.0,0.0,0.0,0.0,0.0,0.0,0.0,0.0,0.0,0.0,0.0,0.0,0.0,0.0,0.0,0.0,0.0,0.0,0.0,0.0,0.0,0.0,0.0,0.0,0.0,0.0,0.0,0.0,0.0,0.0,0.0,0.0,0.0,0.0,0.0,0.0,0.0,0.0,0.0,0.0,0.0,0.0,0.0,0.0,0.0,0.0,0.0,0.0,0.0,0.0,0.0,0.0,0.0,0.0,0.0,0.0,0.0,0.0,0.0,0.0,0.0,0.0,0.0,0.0,0.0,0.0,0.0,0.0,0.0,0.0,1.6866,1.6633,1.6815,1.6795,1.6452,1.6998,1.7083,0.0,0.0,0.0,0.0,0.0,0.0,0.0,0.0,0.0,0.0,0.0,0.0,0.0,0.0,0.0,0.0,0.0,0.0,0.0,0.0,0.0,0.0,0.0,0.0,0.0,0.0,0.0,0.0,0.0,0.0,0.0,0.0,0.0,0.0,0.0,0.0,0.0,0.0,0.0,0.0,0.0,0.0,0.0,0.0,0.0,0.0,0.0,0.0,0.0,0.0,0.0,0.0,0.0,0.0,0.0,0.0,0.0,0.0,0.0,0.0,0.0,0.0,0.0,0.0,0.0,0.0,0.0,0.0,0.0,0.0,0.0,0.0,0.0,0.0,0.0,0.0,0.0,0.0,0.0,0.0,0.0,0.0,0.0,0.0,0.0,0.0,0.0,0.0,0.0,0.0,0.0,0.0,0.0,0.0,0.0,0.0,0.0,0.0,0.0,0.0,0.0,0.0,0.0,0.0,0.0,0.0,0.0,0.0,0.0,1.6866,1.6654,1.6812,1.7314,1.6876,1.6817,0.0,0.0,0.0,0.0,0.0,0.0,0.0,0.0,0.0,0.0,0.0,0.0,0.0,0.0,0.0,0.0,0.0,0.0,0.0,0.0,0.0,0.0,0.0,0.0,0.0,0.0,0.0,0.0,0.0,0.0,0.0,0.0,0.0,0.0,0.0,0.0,0.0,0.0,0.0,0.0,0.0,0.0,0.0,0.0,0.0,0.0,0.0,0.0,0.0,0.0,0.0,0.0,0.0,0.0,0.0,0.0,0.0,0.0,0.0,0.0,0.0,0.0,0.0,0.0,0.0,0.0,0.0,0.0,0.0,0.0,0.0,0.0,0.0,0.0,0.0,0.0,0.0,0.0,0.0,0.0,0.0,0.0,0.0,0.0,0.0,0.0,0.0,0.0,0.0,0.0,0.0,0.0,0.0,0.0,0.0,0.0,0.0,0.0,0.0,0.0,0.0,0.0,0.0,0.0,0.0,0.0,0.0,0.0,0.0,1.7282,1.7086,1.7159,1.7605,1.7392,1.7139,1.6905,0.0,0.0,0.0,0.0,0.0,0.0,0.0,0.0,0.0,0.0,0.0,0.0,0.0,0.0,0.0,0.0,0.0,0.0,0.0,0.0,0.0,0.0,0.0,0.0,0.0,0.0,0.0,0.0,0.0,0.0,0.0,0.0,0.0,0.0,0.0,0.0,0.0,0.0,0.0,0.0,0.0,0.0,0.0,0.0,0.0,0.0,0.0,0.0,0.0,0.0,0.0,0.0,0.0,0.0,0.0,0.0,0.0,0.0,0.0,0.0,0.0,0.0,0.0,0.0,0.0,0.0,0.0,0.0,0.0,0.0,0.0,0.0,0.0,0.0,0.0,0.0,0.0,0.0,0.0,0.0,0.0,0.0,0.0,0.0,0.0,0.0,0.0,0.0,0.0,0.0,0.0,0.0,0.0,0.0,0.0,0.0,0.0,0.0,0.0,0.0,0.0,0.0,0.0,0.0,0.0,0.0,0.0,0.0,1.7966,1.8027,1.7909,1.7543,1.8346,1.7874,0.0,0.0,0.0,0.0,0.0,0.0,0.0,0.0,0.0,0.0,0.0,0.0,0.0,0.0,0.0,0.0,0.0,0.0,0.0,0.0,0.0,0.0,0.0,0.0,0.0,0.0,0.0,0.0,0.0,0.0,0.0,0.0,0.0,0.0,0.0,0.0,0.0,0.0,0.0,0.0,0.0,0.0,0.0,0.0,0.0,0.0,0.0,0.0,0.0,0.0,0.0,0.0,0.0,0.0,0.0,0.0,0.0,0.0,0.0,0.0,0.0,0.0,0.0,0.0,0.0,0.0,0.0,0.0,0.0,0.0,0.0,0.0,0.0,0.0,0.0,0.0,0.0,0.0,0.0,0.0,0.0,0.0,0.0,0.0,0.0,0.0,0.0,0.0,0.0,0.0,0.0,0.0,0.0,0.0,0.0,0.0,0.0,0.0,0.0,0.0,0.0,0.0,0.0,0.0,0.0,0.0,0.0,0.0,0.0,1.8832,1.9826,2.0152,1.9738,1.8376,1.7792,0.0,0.0,0.0,0.0,0.0,0.0,0.0,0.0,0.0,0.0,0.0,0.0,0.0,0.0,0.0,0.0,0.0,0.0,0.0,0.0,0.0,0.0,0.0,0.0,0.0,0.0,0.0,0.0,0.0,0.0,0.0,0.0,0.0,0.0,0.0,0.0,0.0,0.0,0.0,0.0,0.0,0.0,0.0,0.0,0.0,0.0,0.0,0.0,0.0,0.0,0.0,0.0,0.0,0.0,0.0,0.0,0.0,0.0,0.0,0.0,0.0,0.0,0.0,0.0,0.0,0.0,0.0,0.0,0.0,0.0,0.0,0.0,0.0,0.0,0.0,0.0,0.0,0.0,0.0,0.0,0.0,0.0,0.0,0.0,0.0,0.0,0.0,0.0,0.0,0.0,0.0,0.0,0.0,0.0,0.0,0.0,0.0,0.0,0.0,0.0,0.0,0.0,0.0,0.0,0.0,0.0,0.0,0.0,1.8596,1.9265,2.1064,2.1894,2.1636,1.9996,1.8847,0.0,0.0,0.0,0.0,0.0,0.0,0.0,0.0,0.0,0.0,0.0,0.0,0.0,0.0,0.0,0.0,0.0,0.0,0.0,0.0,0.0,0.0,0.0,0.0,0.0,0.0,0.0,0.0,0.0,0.0,0.0,0.0,0.0,0.0,0.0,0.0,0.0,0.0,0.0,0.0,0.0,0.0,0.0,0.0,0.0,0.0,0.0,0.0,0.0,0.0,0.0,0.0,0.0,0.0,0.0,0.0,0.0,0.0,0.0,0.0,0.0,0.0,0.0,0.0,0.0,0.0,0.0,0.0,0.0,0.0,0.0,0.0,0.0,0.0,0.0,0.0,0.0,0.0,0.0,0.0,0.0,0.0,0.0,0.0,0.0,0.0,0.0,0.0,0.0,0.0,0.0,0.0,0.0,0.0,0.0,0.0,0.0,0.0,0.0,0.0,0.0,0.0,0.0,0.0,0.0,0.0,0.0,0.0,1.9413,1.9382,2.1825,2.3127,2.3053,2.2099,2.0378,0.0,0.0,0.0,0.0,0.0,0.0,0.0,0.0,0.0,0.0,0.0,0.0,0.0,0.0,0.0,0.0,0.0,0.0,0.0,0.0,0.0,0.0,0.0,0.0,0.0,0.0,0.0,0.0,0.0,0.0,0.0,0.0,0.0,0.0,0.0,0.0,0.0,0.0,0.0,0.0,0.0,0.0,0.0,0.0,0.0,0.0,0.0,0.0,0.0,0.0,0.0,0.0,0.0,0.0,0.0,0.0,0.0,0.0,0.0,0.0,0.0,0.0,0.0,0.0,0.0,0.0,0.0,0.0,0.0,0.0,0.0,0.0,0.0,0.0,0.0,0.0,0.0,0.0,0.0,0.0,0.0,0.0,0.0,0.0,0.0,0.0,0.0,0.0,0.0,0.0,0.0,0.0,0.0,0.0,0.0,0.0,0.0,0.0,0.0,0.0,0.0,0.0,0.0,0.0,0.0,0.0,0.0,0.0,1.9295,1.9738,2.203,2.3201,2.3127,2.1386,2.0038,0.0,0.0,0.0,0.0,0.0,0.0,0.0,0.0,0.0,0.0,0.0,0.0,0.0,0.0,0.0,0.0,0.0,0.0,0.0,0.0,0.0,0.0,0.0,0.0,0.0,0.0,0.0,0.0,0.0,0.0,0.0,0.0,0.0,0.0,0.0,0.0,0.0,0.0,0.0,0.0,0.0,0.0,0.0,0.0,0.0,0.0,0.0,0.0,1.6936,0.0,0.0,0.0,0.0,0.0,0.0,0.0,0.0,0.0,0.0,0.0,0.0,0.0,0.0,0.0,0.0,0.0,0.0,0.0,0.0,0.0,0.0,0.0,0.0,0.0,0.0,0.0,0.0,0.0,0.0,0.0,0.0,0.0,0.0,0.0,0.0,0.0,0.0,0.0,0.0,0.0,0.0,0.0,0.0,0.0,0.0,0.0,0.0,0.0,0.0,0.0,0.0,0.0,0.0,0.0,0.0,0.0,0.0,0.0,1.946,2.0535,2.2149,2.3098,2.3246,2.1532,2.0308,0.0,0.0,0.0,0.0,0.0,0.0,0.0,0.0,0.0,0.0,0.0,0.0,0.0,0.0,0.0,0.0,0.0,0.0,0.0,0.0,0.0,0.0,0.0,0.0,0.0,0.0,0.0,0.0,0.0,0.0,0.0,0.0,0.0,0.0,0.0,0.0,0.0,0.0,0.0,0.0,0.0,0.0,0.0,0.0,0.0,0.0,0.0,0.0,0.0,0.0,0.0,0.0,0.0,0.0,0.0,0.0,0.0,0.0,0.0,0.0,0.0,0.0,0.0,0.0,0.0,0.0,0.0,0.0,0.0,0.0,0.0,0.0,0.0,0.0,0.0,0.0,0.0,0.0,0.0,0.0,0.0,0.0,0.0,0.0,0.0,0.0,0.0,0.0,0.0,0.0,0.0,0.0,0.0,0.0,0.0,0.0,0.0,0.0,0.0,0.0,0.0,0.0,0.0,0.0,0.0,0.0,0.0,1.8223,1.9487,2.1015,2.2149,2.2904,2.329,2.1924,2.0686,1.9589,0.0,0.0,0.0,0.0,0.0,0.0,0.0,0.0,0.0,0.0,0.0,0.0,0.0,0.0,0.0,0.0,0.0,0.0,0.0,0.0,0.0,0.0,0.0,0.0,0.0,0.0,0.0,0.0,0.0,0.0,0.0,0.0,0.0,0.0,0.0,0.0,0.0,0.0,1.5356,1.5748,0.0,0.0,0.0,0.0,0.0,0.0,0.0,0.0,1.6848,0.0,0.0,0.0,0.0,0.0,0.0,0.0,0.0,0.0,0.0,0.0,0.0,0.0,0.0,0.0,0.0,0.0,0.0,0.0,0.0,0.0,0.0,0.0,0.0,0.0,0.0,0.0,0.0,0.0,0.0,0.0,0.0,0.0,0.0,0.0,0.0,0.0,0.0,0.0,0.0,0.0,0.0,0.0,0.0,0.0,0.0,0.0,0.0,0.0,0.0,0.0,0.0,0.0,0.0,0.0,0.0,1.6409,1.7716,1.8768,1.968,2.1541,2.2512,2.2469,2.1656,2.0567,1.922,0.0,0.0,0.0,0.0,0.0,0.0,0.0,0.0,0.0,0.0,0.0,0.0,0.0,0.0,0.0,0.0,0.0,0.0,0.0,0.0,0.0,0.0,0.0,0.0,0.0,0.0,0.0,0.0,0.0,0.0,0.0,0.0,0.0,0.0,0.0,0.0,0.0,0.0,0.0,1.6568,1.7169,0.0,0.0,0.0,0.0,0.0,0.0,0.0,0.0,1.6781,0.0,0.0,0.0,0.0,0.0,0.0,0.0,0.0,0.0,0.0,0.0,0.0,0.0,0.0,0.0,0.0,0.0,0.0,0.0,0.0,0.0,0.0,0.0,0.0,0.0,0.0,0.0,0.0,0.0,0.0,0.0,0.0,0.0,0.0,0.0,0.0,0.0,0.0,0.0,0.0,0.0,0.0,0.0,0.0,0.0,0.0,0.0,0.0,0.0,0.0,0.0,0.0,0.0,0.0,0.0,1.7497,1.8109,1.9121,2.0547,2.1415,2.1894,2.1979,2.0755,1.9646,0.0,0.0,0.0,0.0,0.0,0.0,0.0,0.0,0.0,0.0,0.0,0.0,0.0,0.0,0.0,0.0,0.0,0.0,0.0,0.0,0.0,0.0,0.0,0.0,0.0,0.0,0.0,0.0,0.0,0.0,0.0,0.0,0.0,0.0,0.0,0.0,0.0,0.0,0.0,0.0,1.7248,1.7763,1.8792,0.0,0.0,0.0,0.0,0.0,0.0,1.7479,1.7323,0.0,0.0,0.0,0.0,0.0,0.0,0.0,0.0,0.0,0.0,0.0,0.0,0.0,0.0,0.0,0.0,0.0,0.0,0.0,0.0,0.0,0.0,0.0,0.0,0.0,0.0,0.0,0.0,0.0,0.0,0.0,0.0,0.0,0.0,0.0,0.0,0.0,0.0,0.0,0.0,0.0,0.0,0.0,0.0,0.0,0.0,0.0,0.0,0.0,0.0,0.0,0.0,0.0,0.0,0.0,1.8313,1.8467,1.9387,2.1233,2.1232,2.1205,2.1315,1.9674,1.867,0.0,0.0,0.0,0.0,0.0,0.0,0.0,0.0,0.0,0.0,0.0,0.0,0.0,0.0,0.0,0.0,0.0,0.0,0.0,0.0,0.0,0.0,0.0,0.0,0.0,0.0,0.0,0.0,0.0,0.0,0.0,0.0,0.0,0.0,0.0,0.0,0.0,0.0,0.0,0.0,0.0,1.8324,1.9037,1.9022,0.0,0.0,0.0,0.0,1.7756,1.8028,0.0,0.0,0.0,0.0,0.0,0.0,0.0,0.0,0.0,0.0,0.0,0.0,0.0,0.0,0.0,0.0,0.0,0.0,0.0,0.0,0.0,0.0,0.0,0.0,0.0,0.0,0.0,0.0,0.0,0.0,0.0,0.0,0.0,0.0,0.0,0.0,0.0,0.0,0.0,0.0,0.0,0.0,0.0,0.0,0.0,0.0,0.0,0.0,0.0,0.0,0.0,0.0,0.0,0.0,0.0,0.0,1.6925,1.7906,1.8803,1.9668,2.0545,2.074,2.022,1.8872,1.7993,0.0,0.0,0.0,0.0,0.0,0.0,0.0,0.0,0.0,0.0,0.0,0.0,0.0,0.0,0.0,0.0,0.0,0.0,0.0,0.0,0.0,0.0,0.0,0.0,0.0,0.0,0.0,0.0,0.0,0.0,0.0,0.0,0.0,0.0,0.0,0.0,0.0,0.0,0.0,0.0,0.0,1.86,1.9788,1.9478,1.9064,0.0,0.0,1.903,1.9336,1.9069,0.0,0.0,0.0,0.0,0.0,0.0,0.0,0.0,0.0,0.0,0.0,0.0,0.0,0.0,0.0,0.0,0.0,0.0,0.0,0.0,0.0,0.0,0.0,0.0,0.0,0.0,0.0,0.0,0.0,0.0,0.0,0.0,0.0,0.0,0.0,0.0,0.0,0.0,0.0,0.0,0.0,0.0,0.0,0.0,0.0,0.0,0.0,0.0,0.0,0.0,0.0,0.0,0.0,0.0,0.0,1.5706,1.7117,1.7844,1.8541,1.9277,1.9814,1.972,1.896,1.7518,1.6718,0.0,0.0,0.0,0.0,0.0,0.0,0.0,0.0,0.0,0.0,0.0,0.0,0.0,0.0,0.0,0.0,0.0,0.0,0.0,0.0,0.0,0.0,0.0,0.0,0.0,0.0,0.0,0.0,0.0,0.0,0.0,0.0,0.0,0.0,0.0,0.0,0.0,0.0,0.0,0.0,0.0,0.0,1.9454,1.961,0.0,0.0,0.0,2.0049,1.8673,0.0,0.0,0.0,0.0,0.0,0.0,0.0,0.0,0.0,0.0,0.0,0.0,0.0,0.0,0.0,0.0,0.0,0.0,0.0,0.0,0.0,0.0,0.0,0.0,0.0,0.0,0.0,0.0,0.0,0.0,0.0,0.0,0.0,0.0,0.0,0.0,0.0,0.0,0.0,0.0,0.0,0.0,0.0,0.0,0.0,0.0,0.0,0.0,0.0,0.0,0.0,0.0,0.0,0.0,0.0,0.0,0.0,1.7214,1.7804,1.8445,1.9133,1.9366,1.8974,1.8037,1.6697,0.0,0.0,0.0,0.0,0.0,0.0,0.0,0.0,0.0,0.0,0.0,0.0,0.0,0.0,0.0,0.0,0.0,0.0,0.0,0.0,0.0,0.0,0.0,0.0,0.0,0.0,0.0,1.5417,0.0,0.0,0.0,0.0,0.0,0.0,0.0,0.0,0.0,0.0,0.0,0.0,0.0,0.0,1.9308,1.9238,1.9637,1.9864,0.0,0.0,2.0365,1.8484,2.0315,2.1213,0.0,0.0,0.0,0.0,0.0,0.0,0.0,0.0,0.0,0.0,0.0,0.0,0.0,0.0,0.0,0.0,0.0,0.0,0.0,0.0,0.0,0.0,0.0,0.0,0.0,0.0,0.0,0.0,0.0,0.0,0.0,0.0,0.0,0.0,0.0,0.0,0.0,0.0,0.0,0.0,0.0,0.0,0.0,0.0,0.0,0.0,0.0,0.0,0.0,0.0,0.0,0.0,0.0,0.0,1.5524,1.6637,1.7809,1.856,1.9024,1.9396,1.8948,1.7605,1.6948,1.634,0.0,0.0,0.0,0.0,0.0,0.0,0.0,0.0,0.0,0.0,0.0,0.0,0.0,0.0,0.0,0.0,0.0,0.0,0.0,0.0,0.0,0.0,0.0,0.0,0.0,0.0,0.0,0.0,0.0,0.0,0.0,0.0,0.0,0.0,0.0,0.0,0.0,0.0,0.0,0.0,0.0,1.9844,1.9595,1.9489,1.9674,0.0,1.9469,1.9081,1.996,2.0347,2.04,2.0023,0.0,0.0,0.0,0.0,0.0,0.0,0.0,0.0,0.0,0.0,0.0,0.0,0.0,0.0,0.0,0.0,0.0,0.0,0.0,0.0,0.0,0.0,0.0,0.0,0.0,0.0,0.0,0.0,0.0,0.0,0.0,0.0,0.0,0.0,0.0,0.0,0.0,0.0,0.0,0.0,0.0,0.0,0.0,0.0,0.0,0.0,0.0,0.0,0.0,0.0,0.0,0.0,0.0,1.5389,1.6491,1.741,1.8085,1.8482,1.8519,1.7971,1.6753,1.5992,1.521,0.0,0.0,0.0,0.0,0.0,0.0,0.0,0.0,0.0,0.0,0.0,0.0,0.0,0.0,0.0,0.0,0.0,0.0,0.0,0.0,0.0,0.0,0.0,0.0,0.0,0.0,0.0,0.0,1.6481,1.6532,1.6318,0.0,0.0,0.0,0.0,0.0,0.0,0.0,0.0,0.0,0.0,1.939,1.9948,2.0053,0.0,0.0,2.0136,1.9869,1.9033,1.9973,2.0307,1.879,1.8889,0.0,0.0,0.0,0.0,0.0,0.0,0.0,0.0,0.0,0.0,0.0,0.0,0.0,0.0,0.0,0.0,0.0,0.0,0.0,0.0,0.0,0.0,0.0,0.0,0.0,0.0,0.0,0.0,0.0,0.0,0.0,0.0,0.0,0.0,0.0,0.0,0.0,0.0,0.0,0.0,0.0,0.0,0.0,0.0,0.0,0.0,0.0,0.0,0.0,0.0,0.0,0.0,1.5476,1.6377,1.7105,1.7583,1.7798,1.7779,1.7213,1.6084,1.5473,1.4812,0.0,0.0,0.0,0.0,0.0,0.0,0.0,0.0,0.0,0.0,0.0,0.0,0.0,0.0,0.0,0.0,0.0,0.0,0.0,0.0,0.0,0.0,0.0,0.0,0.0,0.0,0.0,0.0,1.669,1.6641,1.6497,0.0,0.0,0.0,0.0,0.0,0.0,0.0,0.0,0.0,0.0,1.8846,1.9383,1.9472,1.9409,1.9158,1.9677,1.9595,1.8279,1.941,1.9917,1.8235,0.0,0.0,0.0,0.0,0.0,0.0,0.0,0.0,0.0,0.0,0.0,0.0,0.0,0.0,0.0,0.0,0.0,0.0,0.0,0.0,0.0,0.0,0.0,0.0,0.0,0.0,0.0,1.8305,0.0,0.0,1.85,0.0,0.0,0.0,0.0,0.0,0.0,0.0,0.0,0.0,0.0,0.0,0.0,0.0,0.0,0.0,0.0,0.0,0.0,0.0,0.0,0.0,0.0,1.5837,1.6396,1.6869,1.7055,1.6866,1.7269,1.6951,1.5793,1.5744,1.5579,1.5039,0.0,0.0,0.0,0.0,0.0,0.0,0.0,0.0,0.0,0.0,0.0,0.0,0.0,0.0,0.0,0.0,0.0,0.0,0.0,0.0,0.0,0.0,0.0,0.0,0.0,0.0,1.5923,1.5772,1.5944,0.0,0.0,0.0,0.0,0.0,0.0,0.0,0.0,0.0,1.7435,1.8086,1.8339,1.769,1.7362,1.7385,1.7569,1.7607,1.7697,1.8094,1.8668,1.8978,0.0,0.0,0.0,0.0,0.0,0.0,0.0,0.0,0.0,0.0,0.0,0.0,0.0,0.0,0.0,0.0,0.0,0.0,0.0,0.0,0.0,0.0,0.0,0.0,0.0,0.0,0.0,1.8313,1.8163,0.0,0.0,0.0,0.0,0.0,0.0,0.0,0.0,0.0,0.0,0.0,1.6764,1.6376,0.0,0.0,0.0,0.0,0.0,0.0,0.0,0.0,0.0,0.0,0.0,0.0,1.6149,1.6385,1.7277,1.7739,1.7634,1.7477,1.7057,1.6317,1.5922,1.5499,1.5045,0.0,0.0,0.0,0.0,0.0,0.0,0.0,0.0,0.0,0.0,0.0,0.0,0.0,0.0,0.0,0.0,0.0,0.0,0.0,0.0,0.0,0.0,0.0,0.0,0.0,1.7237,0.0,0.0,0.0,0.0,0.0,0.0,0.0,0.0,0.0,0.0,0.0,1.6932,1.6714,1.7352,1.7796,1.7839,1.7851,1.7967,0.0,0.0,0.0,0.0,0.0,0.0,0.0,0.0,0.0,0.0,0.0,0.0,0.0,0.0,1.6965,1.6715,1.6815,1.6753,1.6253,0.0,0.0,0.0,0.0,0.0,0.0,0.0,0.0,0.0,0.0,0.0,0.0,0.0,0.0,1.7588,0.0,1.718,0.0,0.0,0.0,0.0,0.0,0.0,0.0,0.0,1.6373,1.6232,1.6184,1.6245,1.5999,0.0,1.6236,1.6443,0.0,0.0,0.0,0.0,0.0,0.0,0.0,0.0,1.6469,1.6417,1.7274,1.7722,1.7722,1.7253,1.6772,1.6299,1.5909,1.5478,1.5006,1.5376,1.5691,0.0,0.0,0.0,0.0,0.0,0.0,0.0,0.0,0.0,0.0,0.0,0.0,0.0,0.0,0.0,0.0,0.0,0.0,0.0,0.0,0.0,0.0,0.0,1.6817,0.0,0.0,0.0,0.0,0.0,0.0,0.0,0.0,0.0,1.6162,1.6305,1.6345,1.6445,1.683,1.7198,1.7418,0.0,0.0,0.0,0.0,0.0,0.0,0.0,1.686,1.6249,1.6758,1.7197,1.7059,1.7048,1.7088,1.7137,0.0,0.0,1.6689,1.6695,1.6696,1.6168,1.6009,1.617,1.6796,1.6624,1.658,0.0,0.0,0.0,0.0,0.0,0.0,0.0,0.0,1.6999,1.704,0.0,1.6729,0.0,0.0,0.0,0.0,1.6839,1.6736,0.0,0.0,1.6726,1.6323,1.5272,1.6433,1.6829,1.6483,1.6303,1.6106,1.5994,1.6519,0.0,0.0,0.0,0.0,0.0,0.0,1.678,1.6675,1.6916,1.7036,1.7015,1.6659,1.6223,1.5797,1.5722,1.5515,1.5143,1.5935,1.6169,1.5734,1.5762,0.0,0.0,0.0,0.0,0.0,0.0,0.0,0.0,0.0,0.0,0.0,0.0,0.0,0.0,0.0,0.0,0.0,0.0,0.0,0.0,1.5795,0.0,0.0,0.0,0.0,0.0,0.0,0.0,0.0,0.0,1.5127,1.5813,1.6238,1.6531,1.6459,0.0,0.0,0.0,0.0,1.6245,1.5886,1.6154,1.6457,1.6407,1.724,1.7863,1.76,0.0,0.0,1.8017,1.7399,1.7141,1.7642,1.8098,1.8077,1.7145,1.6963,1.6952,1.6853,1.6828,1.7166,1.7745,1.7364,1.7173,1.9959,0.0,0.0,0.0,0.0,1.7989,1.8351,1.8512,1.7809,1.7554,1.7632,1.7434,0.0,0.0,0.0,0.0,0.0,0.0,1.7486,1.7322,1.747,1.7326,1.6941,1.7318,1.7809,1.8287,1.7596,1.6997,1.6665,1.6763,1.6655,1.615,0.0,0.0,0.0,0.0,1.6524,1.7462,1.7222,1.7252,1.7627,1.6995,1.6528,1.6177,1.6177,1.6115,1.5991,1.6273,1.6392,1.6328,1.5976,0.0,0.0,0.0,0.0,0.0,0.0,0.0,0.0,0.0,0.0,0.0,0.0,0.0,0.0,0.0,0.0,0.0,0.0,0.0,1.5913,1.5675,1.5455,0.0,0.0,0.0,0.0,0.0,0.0,0.0,0.0,0.0,1.66,1.6138,1.5774,0.0,0.0,1.5953,1.5899,1.6192,1.6465,1.6597,1.6722,0.0,1.6587,1.6864,1.6995,1.6629,1.7277,1.7863,1.7926,1.8031,1.8135,1.8322,1.8462,1.8362,1.783,1.782,1.7626,1.7001,1.7019,1.7292,1.751,1.7597,1.7782,2.0913,1.8813,1.8944,1.9003,1.9059,1.9415,1.9673,1.9811,1.9152,1.8859,1.8839,1.8445,1.8159,1.8025,1.8157,0.0,0.0,0.0,1.8386,1.8369,1.8509,1.8491,1.8271,1.8627,1.8736,1.8657,1.8255,1.7554,1.6573,1.6514,1.6305,1.5903,0.0,0.0,1.5699,1.5889,1.6364,1.7143,1.7022,1.7093,1.7224,1.644,1.5941,1.5836,1.5788,1.5788,1.5788,1.5788,1.582,1.5908,1.5598,1.5465,0.0,0.0,0.0,0.0,0.0,0.0,0.0,0.0,0.0,0.0,0.0,1.5196,1.4929,0.0,0.0,0.0,1.5619,1.5592,1.5427,1.5153,0.0,0.0,0.0,0.0,0.0,0.0,0.0,1.554,1.5631,1.5982,1.6874,1.642,1.6167,1.6477,1.6343,1.6291,1.6477,0.0,1.6956,1.7153,1.7194,1.7124,1.688,1.7246,1.7564,1.7646,1.7898,1.8193,1.8467,1.873,1.8945,1.9072,1.9014,1.8818,1.8555,1.8428,1.8201,1.7399,1.7451,1.7684,1.7949,1.8024,1.8123,2.2252,2.1406,2.104,2.0773,2.0625,2.1107,2.129,2.1228,2.0803,2.0565,2.042,1.9671,1.928,1.9147,1.9254,0.0,1.8534,1.8996,1.9145,1.9132,1.9545,1.9561,1.9212,1.99,1.9525,1.8056,1.8492,1.7797,1.6196,1.597,1.5794,1.5766,1.5766,1.5565,1.53,1.598,1.6284,1.6224,1.6609,1.6543,1.6135,1.5336,1.4921,1.4893,1.4893,1.4893,1.4893,1.4893,1.4893,1.4874,1.4935,1.4992,1.4952,0.0,0.0,0.0,0.0,0.0,0.0,0.0,0.0,0.0,0.0,0.0,0.0,0.0,0.0,1.5058,1.5309,0.0,1.4826,1.4398,0.0,0.0,0.0,1.381,1.4138,1.4182,1.4497,1.5293,0.0,0.0,1.6718,1.697,1.7144,1.7584,1.7297,1.7193,1.7616,1.7678,1.7657,1.7584,1.7604,1.7571,1.7423,1.8051,1.8876,1.9444,1.9515,1.9238,1.9287,1.9316,1.9502,1.9785,1.9561,1.9238,1.9238,1.8789,1.8457,1.8037,1.7978,1.8192,1.8623,1.8385,1.8134,2.4757,2.4229,2.4148,2.306,2.1586,2.1959,2.234,2.2735,2.2766,2.2134,2.0938,2.1114,2.0628,1.964,1.9939,1.9855,1.9484,1.9944,1.9846,1.9454,1.9493,1.9725,2.0081,1.9399,1.8909,1.8613,1.8296,1.7571,1.6538,1.6437,1.6026,1.534,1.5331,1.574,1.6481,1.5845,1.6186,1.7533,1.6609,1.5992,1.5675,1.5458,1.5204,1.4902,1.4893,1.4893,1.4893,1.4893,1.4893,1.4893,1.4915,1.4783,1.4477,1.4493,0.0,0.0,0.0,0.0,0.0,0.0,0.0,0.0,0.0,1.3909,1.3834,0.0,1.4264,0.0,1.4433,1.469,1.4783,1.4716,0.0,0.0,1.4475,1.4445,1.4548,1.4861,1.5294,1.5898,1.5946,1.6311,1.7302,1.7051,1.6871,1.7054,1.7278,1.7421,1.7533,1.783,1.7971,1.8032,1.8532,1.8812,1.8338,1.8408,1.8823,1.9344,1.937,1.9394,1.9707,1.9756,1.9805,1.9873,1.957,1.9199,1.8867,1.8447,1.8164,1.8027,1.8008,1.8076,1.8202,1.8134,1.8086,2.574,2.5502,2.4941,2.4039,2.29,2.3217,2.3557,2.3774,2.3974,2.3377,2.2335,2.2355,2.1676,2.0358,2.0893,2.0571,1.964,2.0143,2.0259,1.9955,1.9761,1.9944,2.0438,1.9554,1.8976,1.8637,1.8341,1.767,1.6802,1.6703,1.6462,1.5977,1.5968,1.6403,1.716,1.5872,1.5828,1.7131,1.6127,1.5624,1.562,1.516,1.4707,1.4359,1.4187,1.4005,1.3898,1.3823,1.3766,1.3766,1.3995,1.3997,1.3784,1.3978,1.399,0.0,0.0,0.0,0.0,0.0,0.0,0.0,0.0,0.0,0.0,0.0,1.3628,1.3864,1.4325,1.4628,1.4737,1.4569,1.4455,1.4405,1.4268,1.4256,1.4429,1.4655,1.5077,1.5667,1.58,1.6084,1.6766,1.6677,1.6624,1.6835,1.6882,1.706,1.7481,1.7961,1.8233,1.8339,1.8897,1.9364,1.9223,1.9187,1.9355,1.9915,1.9938,1.9941,2.0156,2.0205,2.0146,1.9941,1.958,1.916,1.865,1.8301,1.8018,1.8008,1.8008,1.8008,1.8008,1.8008,1.8008,2.5838,2.5553,2.4616,2.4137,2.4088,2.4257,2.4247,2.4251,2.4219,2.4012,2.3576,2.3135,2.217,2.1006,2.1676,2.107,1.9542,2.0231,2.0542,2.0442,2.0076,1.9996,2.0186,1.9832,1.9275,1.8407,1.8312,1.7808,1.6927,1.6918,1.6901,1.685,1.6841,1.7013,1.7329,1.6011,1.5609,1.6201,1.5687,1.548,1.5781,1.4724,1.395,1.3631,1.315,1.2806,1.2572,1.2444,1.2389,1.2389,1.2822,1.3059,1.3113,1.3495,1.3569,0.0,1.3214,0.0,0.0,0.0,0.0,0.0,0.0,0.0,0.0,1.2941,1.3123,1.4079,1.4499,1.4699,1.4759,1.4439,1.4276,1.4302,1.3983,1.3898,1.4295,1.4308,1.4633,1.5267,1.5401,1.5604,1.6,1.6088,1.6228,1.6367,1.6053,1.6148,1.712,1.7599,1.7959,1.8193,1.8656,1.8922,1.9461,1.9533,1.9602,2.0217,2.0082,2.0236,2.0188,2.0227,2.0168,1.9873,1.9463,1.9062,1.8701,1.8301,1.8018,1.8008,1.8008,1.8008,1.8008,1.8008,1.8008,2.5435,2.4525,2.425,2.383,2.3229,2.3233,2.3082,2.2833,2.2775,2.2544,2.2092,2.1697,2.1355,2.1056,2.1208,2.1068,2.0768,2.0919,2.0652,2.0141,2.0069,1.952,1.8494,1.8715,1.8547,1.8108,1.7804,1.7432,1.6918,1.6918,1.6756,1.6465,1.653,1.6564,1.6772,0.0,0.0,0.0,1.6473,1.6086,1.5549,1.4733,1.4031,1.3334,1.2819,0.0,1.2453,1.2444,1.2389,1.2389,1.25,0.0,0.0,0.0,0.0,0.0,0.0,0.0,0.0,0.0,0.0,0.0,1.3957,1.3952,1.4341,1.4051,1.3999,1.4513,1.4374,1.4484,1.5028,1.5022,1.5111,1.542,1.5392,1.5399,1.5475,1.5471,1.5718,1.6254,1.5692,1.5409,1.5824,1.5409,1.484,1.476,1.476,1.4982,1.5392,1.6088,1.6544,1.6857,1.7279,1.7569,1.7973,1.7958,1.8044,1.8082,1.8082,1.8324,1.8865,1.8844,1.8873,1.9174,1.9053,1.8689,1.8562,1.8301,1.794,1.8008,1.8008,1.8008,1.8008,1.8008,1.8008,2.516,2.4466,2.397,2.3352,0.0,2.2226,2.1726,2.1436,2.2129,2.2271,2.2072,2.1873,2.1427,2.1004,2.1198,2.0802,2.0201,2.0305,2.0223,1.9869,1.9771,1.9305,1.876,1.887,1.8576,1.7977,1.8035,1.7834,1.7492,1.7466,1.7372,1.7184,1.7184,1.7261,1.7261,1.7175,1.7175,1.7192,1.671,1.6404,1.618,1.51,1.4308,1.3718,1.3087,0.0,0.0,0.0,0.0,0.0,0.0,0.0,0.0,1.302,0.0,1.376,1.3797,1.4007,1.4391,1.4586,1.4771,1.4939,1.4735,1.4577,1.4399,1.4409,1.4556,1.4867,1.478,1.4814,1.5144,1.5002,1.4944,1.4974,1.4784,1.4649,1.4649,1.4649,1.4784,1.4982,1.4633,1.4489,1.4697,1.4418,1.4137,1.4057,1.4065,1.4209,1.4482,1.5251,1.5945,1.6523,1.6586,1.6862,1.714,1.7235,1.7235,1.7226,1.7226,1.7379,1.7769,1.7694,1.773,1.7908,1.7975,1.8019,1.7773,1.7565,1.7579,1.7862,1.7725,1.7657,1.7872,1.8008,1.8008,2.4599,2.4375,2.3465,2.2822,2.2447,2.1483,2.0857,2.0572,0.0,0.0,0.0,2.2041,2.1557,2.0837,2.1069,2.0598,1.9504,1.9727,1.9847,1.9829,1.9521,1.9445,1.96,1.9445,1.8948,1.8275,1.8519,1.8468,1.8049,1.8031,1.8031,1.8031,1.8031,1.8031,1.7959,1.787,1.7637,1.7308,1.6824,1.6641,1.6773,1.548,1.456,1.4299,1.3494,1.2978,1.2772,1.2642,1.2586,1.2586,1.2595,1.2766,1.3143,1.3177,1.3365,1.3776,1.381,1.4055,1.4754,1.4814,1.5146,1.5762,1.5564,1.5099,1.447,1.4618,1.4925,1.53,1.5317,1.5307,1.5321,1.4999,1.4713,1.4418,1.4065,1.3928,1.3928,1.3928,1.4072,1.3935,1.3928,1.3783,1.392,1.371,1.3637,1.3985,1.3848,1.371,1.4065,1.4689,1.533,1.5878,1.598,1.6105,1.6396,1.6489,1.6531,1.6338,1.6397,1.6547,1.6614,1.663,1.6468,1.6404,1.6803,1.6946,1.6806,1.6664,1.6862,1.7442,1.7157,1.6862,1.7432,1.7725,1.7794,2.3529,2.2929,2.2785,2.2451,2.2106,2.1867,2.1619,2.1208,2.075,2.0555,2.0555,2.0555,2.0711,2.0879,2.0603,2.0511,2.0617,2.0343,2.0215,2.0215,2.0163,2.0188,2.0149,2.0205,1.9773,1.9099,1.9108,1.8725,1.81,1.804,1.8031,1.8031,1.8031,1.804,1.7951,1.7286,1.6838,1.6774,1.7038,1.6919,1.6642,1.547,1.4663,1.429,1.3735,1.3417,1.3357,1.3357,1.3348,1.3357,1.3348,1.3528,1.3913,1.3939,1.4247,1.4906,1.4975,1.5027,1.5155,1.5494,1.5694,1.5805,1.6007,1.5973,1.5617,1.5312,1.5292,1.5649,1.5703,1.5737,1.5726,1.5655,1.5513,1.5513,1.5513,1.5443,1.5371,1.5371,1.53,1.53,1.4856,1.4569,1.4633,1.4065,1.3637,1.3992,1.3912,1.3985,1.4023,1.4169,1.4268,1.4374,1.4599,1.4652,1.4645,1.4667,1.4812,1.4456,1.4562,1.478,1.5279,1.5227,1.5186,1.5635,1.5865,1.5964,1.5877,1.5877,1.5956,1.6167,1.6018,1.5956,1.6167,1.6664,1.7217,2.2946,2.2653,2.2653,2.2329,2.1987,2.1773,2.1585,2.1388,2.1045,2.09,2.09,2.0772,2.0772,2.0883,2.0891,2.0763,2.0557,2.0591,2.0497,2.03,2.0292,2.043,2.0648,2.0654,2.0447,2.0202,1.9903,1.9393,1.8691,1.8442,1.8228,1.8049,1.8031,1.7809,1.7499,1.7084,1.6744,1.6468,1.5959,1.5578,1.5411,1.4403,1.3715,1.3557,1.3079,1.2891,1.2827,1.2827,1.2827,1.2827,1.3284,1.3704,1.4082,1.4503,1.474,1.4751,1.5018,1.4952,1.4386,1.525,1.5973,1.6388,1.6319,1.6345,1.6422,1.6063,1.5944,1.6007,1.5925,1.5726,1.5505,1.5497,1.5434,1.515,1.515,1.515,1.515,1.5141,1.515,1.5141,1.4864,1.4633,1.4625,1.4137,1.3775,1.3775,1.3775,1.3783,1.3783,1.3756,1.3726,1.3726,1.3843,1.3865,1.3755,1.3828,1.3857,1.3733,1.3718,1.3852,1.4213,1.4053,1.4217,1.4482,1.4824,1.51,1.51,1.51,1.5242,1.5596,1.5313,1.5242,1.5604,1.6026,1.6664,2.2653,2.2653,2.2653,2.2381,2.209,2.1799,2.1662,2.1662,2.167,2.167,2.1645,2.1482,2.1293,2.1165,2.1336,2.1139,2.0746,2.0814,2.0711,2.0446,2.0335,2.0559,2.1016,2.1043,2.1017,2.0933,2.0715,2.0121,1.935,1.899,1.8489,1.7986,1.7705,1.7338,1.6916,1.6667,1.6357,1.581,1.4634,1.4237,1.4525,1.363,1.3135,1.3113,1.2752,1.2579,1.2571,1.2571,1.2571,1.2579,1.3119,1.366,1.3987,1.4498,1.462,1.4212,1.4545,1.4505,1.3784,1.4615,1.545,1.6109,1.6049,1.6057,1.6345,1.6345,1.6314,1.634,1.6233,1.5893,1.5585,1.5416,1.516,1.48,1.4633,1.4641,1.4569,1.4569,1.4569,1.4569,1.4497,1.4425,1.4201,1.4057,1.3848,1.3702,1.3564,1.3492,1.3564,1.3564,1.3492,1.3492,1.3492,1.3521,1.3492,1.3506,1.3521,1.3492,1.3499,1.3521,1.3587,1.3499,1.3492,1.3637,1.3985,1.433,1.433,1.433,1.4545,1.4895,1.4689,1.4617,1.5242,1.5384,1.5877,2.2653,2.2653,2.2653,2.2526,2.2576,2.2441,2.2407,2.2415,2.2441,2.2441,2.2347,2.2443,2.2197,2.193,2.1567,2.155,2.1704,2.1174,2.0874,2.0788,2.0454,2.0589,2.0976,2.1199,2.1182,2.1045,2.1156,2.0746,1.9707,1.9457,1.8896,1.7786,1.6862,1.6338,1.6213,1.5492,1.4972,1.4903,1.3608,1.3626,1.4972,1.4263,1.385,1.3843,1.3536,1.3375,1.3259,1.3367,1.336,1.3375,1.3425,1.3519,1.3556,1.3628,1.365,1.3535,1.3615,1.3572,1.3543,1.3443,1.3627,1.3903,1.4606,1.4932,1.4995,1.5538,1.6137,1.6539,1.6766,1.6567,1.6272,1.5894,1.5518,1.5166,1.4856,1.4569,1.4657,1.4569,1.4569,1.4569,1.4457,1.4281,1.4385,1.4008,1.371,1.392,1.3637,1.3564,1.3848,1.371,1.3492,1.3492,1.3492,1.3492,1.3492,1.3492,1.3492,1.3492,1.3492,1.3492,1.3492,1.3492,1.3492,1.3492,1.3564,1.3702,1.3702,1.363,1.3702,1.3912,1.3912,1.3848,1.4466,1.4673,1.51,2.2653,2.2653,2.2653,2.2653,2.2653,2.2653,2.2232,2.1709,2.2342,2.181,2.0641,2.062,2.1081,2.2004,2.2047,2.1936,2.1653,2.1576,2.1021,2.0309,2.0526,2.0669,2.0613,2.1142,2.1542,2.193,2.1807,2.1109,1.978,1.8498,1.7673,1.7206,1.6367,1.5896,1.5824,1.5174,1.4721,1.4496,1.378,1.3764,1.4229,1.3131,1.251,1.2477,1.2221,1.2063,1.2063,1.2063,1.2063,1.2144,1.2512,1.2739,1.2659,1.3025,1.3029,1.2525,1.2337,1.27,1.3529,1.3471,1.368,1.4232,1.4497,1.4741,1.4741,1.51,1.5499,1.5754,1.601,1.611,1.5766,1.5508,1.5441,1.5459,1.5213,1.5152,1.5591,1.5265,1.5057,1.5446,1.4895,1.4439,1.4417,1.3968,1.3579,1.371,1.3572,1.3564,1.3702,1.3564,1.3492,1.3492,1.3492,1.3492,1.3492,1.3492,1.3492,1.3492,1.3492,1.3492,1.3492,1.3492,1.3492,1.3492,1.3492,1.3492,1.3564,1.3492,1.3492,1.3492,1.3492,1.3637,1.3905,1.3912,1.4122,2.2653,2.2653,2.2653,2.2434,2.2131,2.2131,2.1505,2.057,2.1302,2.0672,1.9206,1.8604,1.9423,2.107,2.15,2.1303,2.0884,2.1007,2.0539,1.9571,1.9926,1.999,1.9898,2.041,2.0999,2.1484,2.1344,2.0587,1.9326,1.7508,1.6598,1.6563,1.5882,1.5399,1.5123,1.4838,1.4501,1.4224,1.399,1.3876,1.3634,1.2524,1.1817,1.1721,1.1329,1.1148,1.1226,1.1151,1.1187,1.1258,1.1714,1.1935,1.1784,1.23,1.2348,1.1769,1.1508,1.1887,1.2972,1.2991,1.315,1.3749,1.3884,1.3908,1.3985,1.4248,1.4378,1.4288,1.4805,1.5129,1.5487,1.5267,1.5422,1.5805,1.5584,1.5585,1.5839,1.5502,1.5434,1.5766,1.5031,1.4479,1.4222,1.377,1.3492,1.3492,1.3492,1.3492,1.3492,1.3492,1.3492,1.3492,1.3492,1.3492,1.3492,1.3492,1.3492,1.3492,1.3492,1.3492,1.3492,1.3492,1.3492,1.3492,1.3492,1.3492,1.3492,1.3492,1.3492,1.3492,1.3492,1.3492,1.3557,1.3492,1.3492,2.2653,2.2552,2.2544,2.1912,2.0987,2.0987,2.0364,1.9339,1.9435,1.9332,1.8769,1.7081,1.7301,1.928,1.931,1.931,1.9339,1.9189,1.8962,1.8694,1.85,1.8423,1.8723,1.8831,1.9095,1.962,1.9605,1.9189,1.8328,1.7117,1.6339,1.5852,1.5101,1.4545,1.4169,1.4319,1.423,1.396,1.3918,1.3791,1.3507,1.2946,1.2487,1.2216,1.1534,1.1268,1.1396,1.1283,1.1312,1.1552,1.1369,1.1295,1.1227,1.1312,1.1427,1.1575,1.1466,1.1416,1.1718,1.1671,1.1596,1.1574,1.2006,1.2094,1.2296,1.2776,1.2985,1.2628,1.3319,1.4252,1.5504,1.5215,1.5332,1.5835,1.5809,1.5436,1.5093,1.5295,1.5348,1.516,1.485,1.4421,1.3756,1.3514,1.3528,1.3506,1.3492,1.3492,1.3492,1.3492,1.3492,1.3492,1.3492,1.3492,1.3492,1.3492,1.3492,1.3492,1.3492,1.3492,1.3492,1.3492,1.3492,1.3492,1.3492,1.3492,1.3492,1.3492,1.3492,1.3492,1.3492,1.3492,1.3492,1.3492,1.3492,2.2341,2.1404,2.068,2.0158,1.9849,1.9842,1.9228,1.8297,1.8923,1.8394,1.7114,1.6231,1.6361,1.7035,1.7147,1.7871,1.9117,1.9103,1.8647,1.8102,1.8318,1.8346,1.7991,1.844,1.8913,1.9191,1.9228,1.8712,1.775,1.6387,1.5601,1.5445,1.4649,1.4238,1.4346,1.4165,1.399,1.3912,1.39,1.3779,1.3501,1.2982,1.2656,1.2548,1.1956,1.1679,1.1775,1.1544,1.1511,1.1599,1.1358,1.1111,1.1064,1.1172,1.1368,1.1684,1.1756,1.1816,1.1668,1.1575,1.151,1.1359,1.1445,1.1549,1.1629,1.1893,1.2087,1.2087,1.2171,1.2977,1.3966,1.4124,1.4163,1.4567,1.4579,1.4667,1.4713,1.4601,1.4615,1.534,1.5401,1.5072,1.4256,1.4114,1.3953,1.3579,1.3492,1.3492,1.3492,1.3492,1.3514,1.3492,1.3492,1.3492,1.3492,1.3492,1.3492,1.3492,1.3492,1.3492,1.3492,1.3492,1.3492,1.3492,1.3492,1.3492,1.3492,1.3492,1.3492,1.3492,1.3492,1.3492,1.3492,1.3492,1.3492,2.1306,2.0277,1.9539,1.9027,1.8715,1.8715,1.8087,1.7153,1.7772,1.7246,1.6086,1.5907,1.5925,1.5879,1.5885,1.6624,1.7982,1.808,1.7772,1.714,1.7563,1.7576,1.72,1.7563,1.7881,1.806,1.8185,1.7691,1.6788,1.5865,1.533,1.5173,1.4466,1.4226,1.4395,1.3969,1.372,1.3749,1.3802,1.3596,1.3247,1.2892,1.2614,1.2431,1.2117,1.1974,1.1897,1.1642,1.1531,1.16,1.1432,1.1344,1.1286,1.1484,1.1682,1.1908,1.1995,1.1984,1.1828,1.1741,1.1596,1.1294,1.1267,1.1267,1.1348,1.144,1.1527,1.1624,1.1701,1.2065,1.2665,1.2991,1.337,1.4068,1.4195,1.4342,1.4696,1.4401,1.4616,1.5028,1.5053,1.4733,1.4167,1.4073,1.3817,1.3407,1.3418,1.3492,1.3492,1.3601,1.3653,1.3653,1.3675,1.3755,1.3755,1.3718,1.3543,1.3499,1.3492,1.3492,1.3492,1.3492,1.3492,1.3492,1.3492,1.3492,1.3492,1.3492,1.3492,1.3492,1.3492,1.3492,1.3492,1.3492,1.3492,1.925,1.9146,1.9124,1.8401,1.7681,1.7582,1.6948,1.6099,1.6099,1.6099,1.5885,1.5879,1.5879,1.5885,1.5885,1.5897,1.5903,1.6099,1.6099,1.5992,1.6074,1.6074,1.5986,1.618,1.6162,1.6205,1.5992,1.5743,1.5282,1.5572,1.5451,1.4813,1.4637,1.4311,1.386,1.3695,1.3486,1.3526,1.3547,1.3242,1.2843,1.2796,1.2555,1.2095,1.1997,1.1962,1.1993,1.1566,1.15,1.1649,1.1696,1.1785,1.2015,1.2011,1.2145,1.228,1.2183,1.2064,1.1995,1.1811,1.1596,1.131,1.1267,1.1267,1.1267,1.1348,1.1348,1.1375,1.1515,1.1744,1.1904,1.2182,1.2986,1.452,1.4698,1.4753,1.4603,1.4877,1.4878,1.4391,1.4174,1.3528,1.3118,1.3303,1.3439,1.316,1.3201,1.3336,1.3321,1.35,1.3802,1.3831,1.3755,1.3737,1.3874,1.3967,1.3637,1.3441,1.3499,1.3492,1.3492,1.3492,1.3492,1.3492,1.3492,1.3492,1.3492,1.3492,1.3492,1.3492,1.3492,1.3492,1.3492,1.3492,1.3492,1.8404,1.827,1.7331,1.673,1.6418,1.6418,1.6211,1.5891,1.5885,1.5885,1.5885,1.5885,1.5885,1.5885,1.5885,1.5791,1.5482,1.5583,1.547,1.5357,1.5678,1.5785,1.5684,1.5785,1.5791,1.5684,1.5785,1.5606,1.5135,1.5206,1.5068,1.454,1.4283,1.4022,1.364,1.3494,1.3408,1.3279,1.3225,1.3025,1.2574,1.2534,1.2369,1.1997,1.1871,1.1826,1.1759,1.1662,1.1616,1.1705,1.1663,1.1876,1.221,1.2301,1.2339,1.2393,1.2355,1.2129,1.1844,1.1741,1.1591,1.1408,1.1267,1.1267,1.1267,1.1267,1.1267,1.1267,1.1424,1.151,1.1715,1.1968,1.2542,1.3113,1.3456,1.3649,1.3541,1.3933,1.4123,1.4057,1.4334,1.4324,1.3875,1.3758,1.3458,1.2769,1.2877,1.2975,1.2676,1.2852,1.2876,1.289,1.3138,1.3549,1.3434,1.3388,1.3265,1.3184,1.3241,1.3426,1.3492,1.3492,1.3492,1.3492,1.3492,1.3419,1.3419,1.3419,1.3339,1.3419,1.3419,1.3419,1.3492,1.3492,1.3492,1.7405,1.7105,1.6384,1.5976,1.5891,1.5885,1.5885,1.5891,1.591,1.5903,1.5897,1.5903,1.5797,1.5797,1.5797,1.547,1.5261,1.5261,1.5047,1.4826,1.525,1.547,1.5369,1.5583,1.5512,1.5264,1.5535,1.5417,1.4898,1.4936,1.4879,1.443,1.4168,1.3919,1.3618,1.347,1.3255,1.3132,1.3009,1.2819,1.2484,1.2327,1.2165,1.186,1.1662,1.1532,1.1527,1.1527,1.1527,1.1581,1.1733,1.2054,1.2479,1.2544,1.2549,1.2517,1.2361,1.2134,1.1855,1.1671,1.1515,1.1294,1.1267,1.1267,1.1267,1.1267,1.1267,1.1267,1.1445,1.1537,1.1698,1.1914,1.2113,1.2258,1.265,1.2737,1.284,1.307,1.3205,1.3371,1.3632,1.3734,1.3507,1.3549,1.3377,1.2704,1.2649,1.2738,1.2454,1.2409,1.2399,1.251,1.2803,1.2968,1.2894,1.2868,1.2797,1.2891,1.2927,1.3226,1.3419,1.3492,1.3492,1.3492,1.3492,1.3193,1.3193,1.3119,1.3046,1.3119,1.32,1.3273,1.3273,1.3492,1.3492,1.6398,1.5982,1.6163,1.6091,1.5897,1.5885,1.5885,1.5897,1.5928,1.5815,1.5797,1.5702,1.5714,1.5487,1.5482,1.5148,1.4713,1.4928,1.4719,1.4509,1.4719,1.4934,1.5148,1.5369,1.5163,1.4818,1.5169,1.5146,1.4584,1.4809,1.4803,1.4444,1.4277,1.4104,1.3807,1.3314,1.3078,1.3094,1.2948,1.2704,1.2371,1.2276,1.2026,1.1693,1.1499,1.1381,1.1354,1.1386,1.1402,1.1451,1.1849,1.2274,1.2657,1.2759,1.2737,1.2673,1.239,1.2183,1.1935,1.1612,1.1289,1.1273,1.1267,1.1267,1.1267,1.1267,1.1267,1.1278,1.1542,1.1682,1.1736,1.1908,1.2043,1.2194,1.2503,1.263,1.2689,1.2444,1.2445,1.2449,1.2319,1.2183,1.2422,1.2791,1.2785,1.261,1.2565,1.251,1.23,1.2097,1.2444,1.2432,1.232,1.2375,1.227,1.2431,1.2387,1.2317,1.2407,1.2635,1.2921,1.3046,1.3046,1.3119,1.3273,1.3046,1.2746,1.2592,1.2519,1.2526,1.2673,1.29,1.2973,1.2973,1.3193,1.6616,1.6459,1.6133,1.5952,1.5891,1.5885,1.5785,1.5696,1.5833,1.5601,1.5369,1.5256,1.516,1.5148,1.5148,1.4928,1.4713,1.4606,1.4504,1.4304,1.4299,1.4617,1.4934,1.5041,1.49,1.4731,1.4888,1.4798,1.4319,1.4578,1.4484,1.4041,1.4052,1.3899,1.3609,1.3306,1.3082,1.3095,1.2932,1.2657,1.2452,1.2355,1.2108,1.1731,1.1645,1.1521,1.131,1.1521,1.1698,1.1871,1.2151,1.2441,1.2727,1.2759,1.2694,1.2501,1.2237,1.2053,1.1779,1.1521,1.1278,1.1267,1.1267,1.1267,1.1267,1.1267,1.1267,1.1305,1.1558,1.1698,1.1736,1.1892,1.2011,1.2151,1.2167,1.2307,1.2414,1.2258,1.2145,1.235,1.2318,1.2334,1.2509,1.2641,1.2565,1.2198,1.197,1.1895,1.1721,1.1335,1.1445,1.1462,1.1496,1.1646,1.1815,1.1934,1.1956,1.1724,1.1708,1.1721,1.1951,1.215,1.215,1.2157,1.2539,1.2472,1.207,1.1755,1.1842,1.1929,1.2003,1.2077,1.2077,1.2077,1.2452,1.6624,1.6396,1.597,1.5779,1.5577,1.5571,1.547,1.5374,1.5392,1.5386,1.5035,1.4702,1.4708,1.4821,1.4815,1.4719,1.4504,1.4396,1.4293,1.4191,1.4191,1.4407,1.4617,1.4713,1.4713,1.4504,1.4713,1.4611,1.4293,1.4401,1.4207,1.4013,1.3981,1.3852,1.362,1.3389,1.3206,1.3087,1.2883,1.2689,1.2571,1.2457,1.2296,1.2011,1.1908,1.1736,1.1558,1.1634,1.1806,1.2038,1.228,1.2522,1.2732,1.2759,1.2657,1.2425,1.2183,1.1941,1.1715,1.1483,1.1278,1.1267,1.1267,1.1267,1.1267,1.1267,1.1283,1.1515,1.1628,1.1682,1.1698,1.1747,1.1801,1.186,1.1817,1.1903,1.2215,1.2043,1.1984,1.207,1.2124,1.2151,1.2323,1.2404,1.2258,1.2021,1.1722,1.144,1.1136,1.0751,1.053,1.0761,1.0897,1.1055,1.131,1.1498,1.1461,1.1261,1.1025,1.1006,1.1301,1.1484,1.1632,1.1713,1.188,1.188,1.1409,1.1168,1.1174,1.126,1.1335,1.1409,1.1477,1.1409,1.1781,1.6547,1.5893,1.5846,1.547,1.5053,1.5035,1.5041,1.4934,1.5058,1.4951,1.4826,1.4374,1.4379,1.4498,1.4606,1.4396,1.4196,1.4191,1.4191,1.4196,1.4196,1.4191,1.4299,1.4509,1.4396,1.4293,1.4504,1.4401,1.4299,1.4191,1.4191,1.4159,1.4169,1.4078,1.3857,1.3636,1.3405,1.3222,1.2974,1.284,1.2759,1.2608,1.2436,1.2318,1.2032,1.1892,1.1758,1.1736,1.1811,1.2038,1.228,1.2522,1.2716,1.2754,1.2624,1.2398,1.2145,1.1887,1.1709,1.1488,1.1267,1.1267,1.1267,1.1289,1.1316,1.1435,1.151,1.172,1.1736,1.1747,1.1682,1.1537,1.1564,1.1682,1.1542,1.1634,1.1844,1.1806,1.1666,1.1698,1.1715,1.1704,1.1785,1.1892,1.2124,1.186,1.1575,1.1219,1.0891,1.0546,1.0406,1.0423,1.046,1.0482,1.0768,1.0968,1.0909,1.0729,1.044,1.0355,1.0877,1.1111,1.1335,1.1416,1.1204,1.1055,1.0818,1.0663,1.0663,1.0663,1.0738,1.0962,1.118,1.1037,1.1186,1.6026,1.5781,1.5396,1.5093,1.5041,1.5041,1.4826,1.4719,1.4843,1.4736,1.4407,1.4186,1.4186,1.4293,1.4293,1.4299,1.4196,1.4196,1.4196,1.4196,1.4196,1.4196,1.4196,1.4299,1.4299,1.4191,1.4191,1.4299,1.4191,1.4196,1.4196,1.4196,1.4191,1.4164,1.4078,1.3841,1.3728,1.3593,1.3249,1.3044,1.299,1.2807,1.2608,1.2431,1.2043,1.1892,1.1919,1.1795,1.1822,1.2043,1.2269,1.249,1.2657,1.2592,1.2474,1.2328,1.2011,1.1758,1.1671,1.1483,1.1267,1.1267,1.1294,1.1429,1.1612,1.1618,1.1731,1.1914,1.2059,1.1881,1.1747,1.1666,1.1666,1.1693,1.1661,1.1645,1.1715,1.1575,1.1526,1.1634,1.1688,1.1763,1.1919,1.1919,1.1914,1.1752,1.1429,1.1042,1.0708,1.0379,1.0277,1.0261,1.0272,1.0309,1.0476,1.0654,1.0606,1.0391,1.0076,0.9776,1.0293,1.0438,1.0513,1.0438,1.0223,1.0148,1.0293,1.0143,1.0143,1.0143,1.0148,1.0368,1.0513,1.0443,1.0594,1.5847,1.5688,1.5327,1.4993,1.4789,1.4783,1.4608,1.4526,1.4515,1.4412,1.4191,1.4196,1.4196,1.4196,1.4196,1.4196,1.4196,1.4196,1.4196,1.4196,1.4196,1.4196,1.4196,1.4196,1.4196,1.4196,1.4196,1.4196,1.4196,1.4196,1.4196,1.4196,1.4196,1.4191,1.4159,1.3949,1.382,1.3744,1.3475,1.3281,1.3249,1.305,1.2813,1.2576,1.2237,1.2108,1.2188,1.1876,1.186,1.2016,1.2178,1.2355,1.2538,1.2484,1.2377,1.2194,1.1925,1.1645,1.1532,1.1435,1.1267,1.1273,1.144,1.1494,1.1618,1.1709,1.1903,1.2011,1.2124,1.2075,1.1881,1.1865,1.1865,1.1838,1.1758,1.1704,1.1666,1.1494,1.13,1.151,1.1526,1.158,1.1677,1.179,1.1715,1.1428,1.13,1.0934,1.0719,1.0406,1.0153,1.0094,1.0094,1.0153,1.0288,1.0396,1.0433,1.0231,0.989,0.9666,0.9695,0.9614,0.9539,0.9614,0.9765,0.9922,0.9997,0.9846,0.9695,0.9846,0.9922,0.9846,0.9846,1.0143,1.0218,1.582,1.5566,1.5324,1.4975,1.4552,1.4525,1.4396,1.4213,1.4196,1.4196,1.4196,1.4196,1.4196,1.4196,1.4196,1.4196,1.4196,1.4196,1.4196,1.4196,1.4196,1.4196,1.4196,1.4196,1.4196,1.4196,1.4196,1.4196,1.4196,1.4196,1.4196,1.4196,1.4196,1.4196,1.4137,1.4008,1.3906,1.3879,1.3669,1.3523,1.3464,1.3243,1.2964,1.2727,1.249,1.2393,1.2328,1.2027,1.1806,1.2021,1.2016,1.2113,1.2248,1.2339,1.2253,1.2097,1.1752,1.1564,1.1342,1.1278,1.1267,1.1278,1.151,1.1596,1.1596,1.1637,1.1676,1.1863,1.1796,1.1702,1.1828,1.207,1.2064,1.2016,1.1855,1.1758,1.1666,1.1494,1.13,1.1289,1.1478,1.1569,1.1505,1.1521,1.1321,1.1198,1.099,1.0776,1.0557,1.0243,0.99,0.9606,0.954,0.9545,0.9663,0.971,0.9818,0.9787,0.9494,0.9377,0.9165,0.916,0.916,0.9382,0.9539,0.9614,0.9544,0.9392,0.9392,0.962,0.9695,0.9549,0.9695,0.9846,0.9841,1.5368,1.523,1.5102,1.4751,1.4552,1.4536,1.4417,1.4218,1.4196,1.4196,1.4196,1.4196,1.4196,1.4196,1.4196,1.4196,1.4196,1.4196,1.4196,1.4196,1.4196,1.4196,1.4196,1.4196,1.4196,1.4196,1.4196,1.4196,1.4196,1.4196,1.4196,1.4196,1.4196,1.4196,1.4186,1.4143,1.4094,1.4056,1.3879,1.3771,1.368,1.3362,1.3028,1.2802,1.2581,1.2544,1.2517,1.2091,1.1806,1.2,1.186,1.1811,1.1871,1.2016,1.1984,1.1801,1.1575,1.1332,1.1278,1.1267,1.1267,1.1273,1.1424,1.1551,1.1632,1.1263,1.116,1.1153,1.1128,1.0885,1.0619,1.1441,1.2112,1.2113,1.1796,1.1695,1.1515,1.1242,1.1008,1.0916,1.1205,1.1486,1.1247,1.1086,1.0932,1.0807,1.059,1.0197,0.9807,0.9582,0.9346,0.9113,0.8865,0.887,0.8899,0.899,0.9009,0.911,0.8971,0.8894,0.878,0.878,0.8856,0.8851,0.9003,0.9008,0.8932,0.8937,0.8932,0.9084,0.9241,0.9322,0.9392,0.9468,0.9539,1.5429,1.5418,1.5305,1.5042,1.4751,1.4713,1.4514,1.4218,1.4196,1.4196,1.4196,1.4196,1.4196,1.4196,1.4196,1.4196,1.4196,1.4196,1.4196,1.4196,1.4196,1.4196,1.4196,1.4196,1.4196,1.4196,1.4196,1.4196,1.4196,1.4196,1.4196,1.4196,1.4196,1.4196,1.4191,1.4186,1.4196,1.4153,1.4073,1.4008,1.3965,1.3534,1.3195,1.2942,1.2727,1.2673,1.2635,1.2371,1.2059,1.2124,1.1946,1.1758,1.1666,1.1704,1.1817,1.1677,1.1483,1.1267,1.1267,1.1267,1.1267,1.1283,1.1358,1.1248,1.1126,1.0755,1.0386,1.0165,1.0272,1.0001,0.9745,1.0416,1.0688,1.0707,1.0537,1.0267,1.014,1.0055,1.0076,1.0217,1.0517,1.069,1.0701,1.0617,1.0517,1.0424,1.0203,0.9741,0.9204,0.9109,0.901,0.8751,0.8574,0.8546,0.8551,0.8475,0.8475,0.8551,0.8475,0.8399,0.8322,0.8322,0.8169,0.8089,0.8169,0.8551,0.8632,0.8632,0.8627,0.8551,0.8632,0.8789,0.8937,0.9089,0.9165,1.5601,1.5596,1.5548,1.5278,1.4912,1.4826,1.4573,1.4245,1.4196,1.4196,1.4196,1.4196,1.4196,1.4196,1.4196,1.4196,1.4196,1.4196,1.4196,1.4196,1.4196,1.4196,1.4196,1.4196,1.4196,1.4196,1.4196,1.4196,1.4196,1.4196,1.4196,1.4196,1.4196,1.4196,1.4196,1.4196,1.4196,1.4196,1.4191,1.4186,1.4024,1.3706,1.3357,1.3109,1.2888,1.2754,1.2732,1.242,1.2194,1.2054,1.1908,1.1725,1.1456,1.1526,1.1623,1.1602,1.1451,1.1289,1.1267,1.1267,1.1294,1.1462,1.1326,1.09,1.0471,1.0144,0.9602,0.8812,0.8936,0.8979,0.8687,0.8977,0.9218,0.9149,0.8854,0.8493,0.8613,0.8709,0.8773,0.9099,0.9598,0.9897,1.0078,1.0327,1.0323,0.9914,0.9784,0.9498,0.8973,0.8972,0.8797,0.8544,0.8376,0.8331,0.8246,0.8246,0.8169,0.8169,0.8093,0.8016,0.7863,0.7787,0.771,0.771,0.7863,0.8169,0.825,0.8327,0.8169,0.8093,0.8102,0.8255,0.8484,0.8708,0.878,1.5601,1.558,1.5375,1.5133,1.4869,1.467,1.4444,1.4213,1.4196,1.4196,1.4196,1.4196,1.4196,1.4196,1.4196,1.4196,1.4196,1.4196,1.4196,1.4196,1.4196,1.4196,1.4196,1.4196,1.4196,1.4196,1.4196,1.4196,1.4196,1.4196,1.4196,1.4196,1.4196,1.4196,1.4196,1.4196,1.4196,1.4196,1.4196,1.4099,1.3895,1.3642,1.3383,1.3141,1.2926,1.2775,1.2721,1.2425,1.2167,1.2059,1.1677,1.1451,1.1273,1.137,1.1392,1.1392,1.1278,1.1267,1.1273,1.13,1.1462,1.1404,1.0969,1.0625,1.0023,0.8979,0.7858,0.6289,0.7075,0.7528,0.7436,0.7987,0.8344,0.8199,0.792,0.7789,0.7805,0.745,0.7521,0.762,0.804,0.8899,0.9459,0.9804,1.0018,0.9684,0.9235,0.9039,0.8791,0.8695,0.8567,0.8321,0.8074,0.8013,0.8012,0.794,0.7996,0.7902,0.7795,0.765,0.7683,0.7687,0.7557,0.7633,0.7787,0.7787,0.7863,0.7787,0.771,0.7714,0.7872,0.7949,0.8102,0.8327,0.8399,1.5402,1.5392,1.5295,1.5031,1.4697,1.4573,1.4406,1.4223,1.4196,1.4196,1.4196,1.4196,1.4196,1.4196,1.4196,1.4196,1.4196,1.4196,1.4196,1.4196,1.4196,1.4191,1.4196,1.4196,1.4196,1.4083,1.4196,1.4196,1.4191,1.4191,1.4196,1.4196,1.4196,1.4196,1.4196,1.4196,1.4196,1.4196,1.4186,1.4137,1.3997,1.3793,1.355,1.3313,1.3077,1.2904,1.2727,1.2608,1.2377,1.2248,1.1908,1.1682,1.1591,1.1558,1.1558,1.1553,1.1558,1.1494,1.1392,1.139,1.1503,1.1526,1.1,1.0468,0.9307,0.7717,0.647,0.5726,0.6034,0.6162,0.6021,0.6351,0.6495,0.6539,0.6647,0.6415,0.6355,0.6441,0.6352,0.637,0.6646,0.7595,0.8452,0.8756,0.9076,0.9152,0.8905,0.8679,0.8497,0.8346,0.8246,0.8085,0.7919,0.7778,0.7687,0.7638,0.7848,0.7766,0.7671,0.7618,0.7684,0.768,0.7525,0.748,0.7633,0.7557,0.748,0.7557,0.7557,0.7638,0.7638,0.7714,0.7868,0.7791,0.7863,1.5128,1.5074,1.5068,1.4859,1.4536,1.4476,1.4358,1.4207,1.4196,1.4196,1.4196,1.4196,1.4196,1.4196,1.4196,1.4196,1.4196,1.4196,1.4196,1.4196,1.3975,1.3862,1.397,1.3975,1.364,1.3753,1.4083,1.397,1.3753,1.3975,1.4196,1.4196,1.4196,1.4196,1.4196,1.4196,1.4196,1.4196,1.4196,1.4186,1.4126,1.3933,1.3701,1.3464,1.3233,1.2996,1.2797,1.2662,1.2533,1.2393,1.2059,1.1817,1.1785,1.1531,1.1457,1.1389,1.1425,1.1005,1.0919,1.1023,1.1363,1.1121,1.038,0.9092,0.7647,0.6189,0.5494,0.5384,0.5482,0.5417,0.5122,0.5115,0.516,0.5113,0.497,0.4766,0.4661,0.5112,0.5463,0.5463,0.5824,0.6441,0.7132,0.7485,0.7937,0.8468,0.8491,0.8414,0.8341,0.8247,0.8215,0.8178,0.802,0.7902,0.7878,0.7793,0.7821,0.7707,0.7618,0.759,0.758,0.7606,0.75,0.748,0.748,0.748,0.748,0.748,0.748,0.7561,0.7561,0.7561,0.7557,0.748,0.748,1.4783,1.4584,1.4595,1.4568,1.4503,1.4304,1.4213,1.4196,1.4196,1.4196,1.4196,1.4083,1.4083,1.4083,1.3975,1.3862,1.4078,1.4191,1.3862,1.3527,1.3192,1.3197,1.3305,1.3083,1.2639,1.2861,1.3197,1.3088,1.297,1.331,1.3753,1.4196,1.4083,1.4083,1.4196,1.4196,1.4083,1.4083,1.4083,1.4196,1.4024,1.3965,1.3733,1.3486,1.3238,1.2996,1.2775,1.2614,1.2517,1.2447,1.201,1.1855,1.1801,1.1343,1.1172,1.1161,1.1007,1.0513,1.0205,1.04,1.0567,0.9837,0.8821,0.754,0.6388,0.5914,0.5485,0.5216,0.511,0.4925,0.4718,0.4528,0.4612,0.4589,0.4567,0.4542,0.4435,0.4506,0.4678,0.4572,0.501,0.5719,0.6254,0.6694,0.7669,0.8292,0.8613,0.8548,0.8621,0.8568,0.8536,0.8475,0.8316,0.8264,0.8357,0.8247,0.7857,0.7652,0.7505,0.7478,0.749,0.7469,0.733,0.7249,0.7169,0.7326,0.748,0.748,0.748,0.748,0.748,0.748,0.748,0.748,0.748,1.4622,1.4519,1.4385,1.4326,1.432,1.4234,1.4196,1.4196,1.4196,1.4196,1.4191,1.3521,1.3527,1.3645,1.254,1.2427,1.2861,1.2318,1.2209,1.1987,1.1655,1.2096,1.2313,1.22,1.1651,1.2091,1.2318,1.1991,1.1546,1.1987,1.1991,1.2318,1.331,1.4083,1.4196,1.3975,1.3753,1.3423,1.3753,1.4088,1.3738,1.3997,1.3868,1.3491,1.3012,1.292,1.2726,1.2399,1.2448,1.2347,1.1906,1.1667,1.1573,1.1023,1.0856,1.0839,1.057,1.0,0.942,0.9648,0.969,0.8783,0.7658,0.6631,0.5739,0.5436,0.5122,0.4978,0.4931,0.4756,0.463,0.4557,0.4512,0.4479,0.4451,0.4422,0.4398,0.4379,0.4346,0.4424,0.4582,0.5013,0.5458,0.5991,0.7143,0.8212,0.8456,0.8698,0.8571,0.8681,0.8609,0.846,0.8222,0.8096,0.8163,0.7958,0.7796,0.7597,0.7315,0.7148,0.7009,0.6973,0.6868,0.6865,0.6861,0.7015,0.7173,0.7326,0.7407,0.7326,0.7403,0.748,0.748,0.748,0.748,1.4433,1.4412,1.4261,1.4196,1.4196,1.4196,1.4196,1.4196,1.4196,1.4196,1.4083,1.297,1.2856,1.2975,1.1769,1.1109,1.1655,1.1219,1.0891,1.0672,1.0562,1.1,1.1105,1.0996,1.0449,1.1105,1.1109,1.0672,1.0006,1.0339,1.0668,1.1105,1.1987,1.2644,1.331,1.3532,1.3212,1.2881,1.3098,1.3537,1.3098,1.3403,1.3479,1.2997,1.2575,1.2359,1.2167,1.1717,1.1463,1.1492,1.1279,1.0924,1.0733,1.045,1.0154,0.9983,0.9715,0.9421,0.8832,0.8505,0.8258,0.747,0.6611,0.6037,0.5639,0.5135,0.4926,0.4826,0.4775,0.4736,0.472,0.4643,0.4583,0.4547,0.4532,0.4506,0.4471,0.4444,0.4402,0.4367,0.4608,0.5015,0.528,0.5819,0.6474,0.7535,0.7893,0.7968,0.7873,0.8053,0.8364,0.8131,0.7974,0.7869,0.7775,0.7381,0.7108,0.7045,0.6802,0.6421,0.6327,0.6308,0.6251,0.6167,0.6318,0.6553,0.663,0.6553,0.6865,0.7176,0.7096,0.6861,0.7403,0.7326,0.733,1.4213,1.4202,1.4196,1.4196,1.4196,1.4196,1.4196,1.4196,1.4196,1.4088,1.3862,1.2861,1.2309,1.2091,1.0887,1.0453,1.0562,1.0453,1.0233,1.0014,0.9247,0.9684,0.9904,0.9688,0.9027,0.9247,0.9464,0.9244,0.8579,0.924,0.9567,0.9563,1.0002,1.066,1.1546,1.2214,1.2332,1.2332,1.2332,1.2441,1.2441,1.255,1.2617,1.2308,1.1831,1.1541,1.1377,1.0514,1.025,1.0266,0.9955,0.9546,0.9233,0.9042,0.8766,0.8371,0.7799,0.7117,0.6323,0.6508,0.6435,0.6218,0.5634,0.5133,0.4935,0.4832,0.4832,0.4832,0.4816,0.4781,0.4745,0.4704,0.4661,0.4638,0.4626,0.46,0.4567,0.4534,0.4498,0.4414,0.4887,0.5374,0.5549,0.5827,0.6146,0.6687,0.7187,0.7317,0.7218,0.7392,0.7696,0.7674,0.7364,0.7361,0.7176,0.6717,0.6481,0.642,0.622,0.5816,0.5595,0.5602,0.5565,0.5473,0.5777,0.6012,0.5857,0.5625,0.6012,0.6402,0.6089,0.6086,0.6707,0.7073,0.6889,1.4196,1.4196,1.4196,1.4196,1.4196,1.4196,1.4196,1.4196,1.4191,1.3748,1.298,1.2223,1.1673,1.0895,0.946,0.8916,0.9357,0.8585,0.8364,0.8367,0.7817,0.8364,0.8585,0.8146,0.7709,0.8036,0.8254,0.7814,0.7043,0.7703,0.7595,0.7482,0.814,0.8689,0.9677,1.0339,1.0558,1.0566,1.1004,1.1664,1.1891,1.21,1.2121,1.1917,1.0979,1.0581,1.0526,0.9392,0.8899,0.9019,0.8721,0.8357,0.811,0.794,0.7674,0.7428,0.7138,0.6839,0.6037,0.5795,0.5397,0.5127,0.5035,0.4832,0.4832,0.4832,0.4832,0.4832,0.4832,0.481,0.4798,0.4792,0.4767,0.4769,0.4755,0.4716,0.4681,0.4653,0.4606,0.4481,0.4665,0.4797,0.4956,0.5109,0.5494,0.5684,0.6186,0.6532,0.6499,0.6671,0.6815,0.6818,0.6723,0.6675,0.6557,0.6066,0.5695,0.5579,0.5374,0.4942,0.4854,0.4896,0.4789,0.4696,0.5082,0.5467,0.5237,0.5082,0.5392,0.5547,0.5312,0.5452,0.6053,0.6228,0.6006,1.4196,1.4196,1.4196,1.397,1.364,1.3975,1.4196,1.4083,1.3655,1.2989,1.2318,1.1468,1.07,0.9581,0.8257,0.7485,0.826,0.7595,0.7265,0.7154,0.6826,0.7376,0.7374,0.6935,0.6937,0.7043,0.6824,0.6272,0.6267,0.6158,0.6158,0.627,0.6379,0.6927,0.7808,0.8468,0.913,0.9244,0.968,1.0014,1.0237,1.0441,1.0619,1.0278,0.9724,0.9144,0.8966,0.8326,0.7525,0.765,0.7524,0.7226,0.693,0.6833,0.6637,0.6537,0.6337,0.6037,0.5536,0.5233,0.4926,0.4832,0.4832,0.4832,0.4832,0.4832,0.4832,0.4832,0.4832,0.4832,0.4832,0.4832,0.4832,0.483,0.4824,0.4785,0.4771,0.4738,0.4716,0.4585,0.4477,0.4424,0.4355,0.441,0.4576,0.4839,0.5099,0.5453,0.5897,0.6074,0.6074,0.5899,0.5905,0.593,0.5722,0.5365,0.5013,0.4852,0.4573,0.4378,0.4234,0.4365,0.4101,0.3921,0.4384,0.4693,0.454,0.4462,0.4696,0.4771,0.4771,0.4982,0.5413,0.5348,0.5202,1.4083,1.4186,1.4078,1.3305,1.2639,1.331,1.3753,1.3867,1.2578,1.2133,1.2091,1.0135,0.9258,0.8699,0.7709,0.7268,0.7376,0.7154,0.7157,0.7046,0.6712,0.6821,0.6601,0.6383,0.6272,0.6274,0.6163,0.5938,0.5822,0.5824,0.5714,0.5493,0.5717,0.5935,0.6376,0.7038,0.7811,0.8033,0.814,0.8472,0.8803,0.8575,0.8783,0.8593,0.8142,0.7905,0.7449,0.6813,0.63,0.6145,0.6039,0.5536,0.5436,0.5639,0.5336,0.5135,0.5033,0.4935,0.4935,0.4834,0.4834,0.4832,0.4832,0.4832,0.4832,0.4832,0.4832,0.4832,0.4832,0.4832,0.4832,0.4832,0.4832,0.4841,0.4851,0.4839,0.4834,0.482,0.481,0.4726,0.4612,0.4526,0.442,0.4365,0.4297,0.4387,0.4654,0.4654,0.5097,0.5542,0.5453,0.4921,0.4924,0.5015,0.4889,0.4759,0.4622,0.4563,0.43,0.4121,0.3976,0.3909,0.3882,0.3862,0.3847,0.3919,0.4075,0.3997,0.3919,0.3995,0.4073,0.4365,0.4801,0.473,0.459,1.2881,1.2656,1.2041,1.1546,1.1109,1.0672,1.0899,1.1673,1.274,1.2407,0.9794,0.8455,0.7916,0.7595,0.7376,0.7265,0.7043,0.7046,0.6826,0.6715,0.6379,0.6156,0.5933,0.5826,0.5714,0.5717,0.5717,0.5714,0.5603,0.5491,0.5491,0.5382,0.5382,0.5382,0.5603,0.5933,0.6487,0.693,0.7041,0.7371,0.7697,0.7808,0.7808,0.7642,0.7105,0.6885,0.6553,0.5817,0.5417,0.5247,0.5138,0.4935,0.4935,0.5035,0.4935,0.4834,0.4832,0.4834,0.4832,0.4832,0.4832,0.4832,0.4832,0.4832,0.4832,0.4832,0.4832,0.4832,0.4849,0.4859,0.4867,0.4869,0.4875,0.4888,0.4908,0.4926,0.4928,0.4945,0.4926,0.4824,0.4714,0.4569,0.4467,0.4357,0.4297,0.4297,0.4297,0.4297,0.4387,0.4919,0.5008,0.4476,0.4389,0.4656,0.4567,0.4448,0.4314,0.4262,0.4097,0.4014,0.3932,0.3871,0.3828,0.3874,0.3849,0.3841,0.3841,0.3763,0.3606,0.3374,0.345,0.3746,0.4031,0.3973,0.3991,1.1536,1.1283,1.0736,1.0246,0.9719,0.8593,0.859,0.9428,1.0777,1.0284,0.892,0.7799,0.7138,0.7043,0.7046,0.6937,0.6826,0.6604,0.6606,0.6383,0.6047,0.5933,0.571,0.5489,0.5493,0.5382,0.5382,0.5493,0.5382,0.5382,0.5382,0.5382,0.5382,0.5382,0.5493,0.5605,0.5714,0.6047,0.6267,0.6487,0.6818,0.7038,0.693,0.6906,0.6381,0.606,0.5847,0.5226,0.5031,0.4851,0.4834,0.4832,0.4832,0.4834,0.4834,0.4832,0.4832,0.4832,0.4832,0.4832,0.4832,0.4836,0.4841,0.4832,0.4832,0.4832,0.4832,0.4836,0.4869,0.4896,0.4906,0.4918,0.4934,0.4949,0.4986,0.5022,0.5047,0.5073,0.5004,0.4904,0.4769,0.4616,0.4487,0.4373,0.4297,0.4297,0.4297,0.4297,0.4297,0.4476,0.4654,0.4387,0.4297,0.4389,0.4297,0.4297,0.4267,0.4224,0.4171,0.4085,0.3985,0.3903,0.385,0.3805,0.3845,0.3684,0.353,0.353,0.3374,0.3139,0.2904,0.3209,0.3416,0.3448,0.3475,1.0327,1.018,1.006,0.9365,0.8404,0.7481,0.7042,0.6847,0.7489,0.7799,0.8235,0.7575,0.6914,0.671,0.6715,0.6604,0.6492,0.6272,0.627,0.6272,0.5938,0.5712,0.5601,0.5489,0.5382,0.5382,0.5382,0.5382,0.5382,0.5382,0.5382,0.5382,0.5382,0.5382,0.5382,0.5382,0.5493,0.5605,0.5605,0.5714,0.5605,0.5493,0.538,0.5475,0.5402,0.5202,0.5216,0.502,0.4928,0.4867,0.4832,0.4832,0.4832,0.4832,0.4832,0.4832,0.4832,0.4853,0.4861,0.4869,0.4877,0.4873,0.4859,0.4871,0.4883,0.4845,0.4834,0.4877,0.4914,0.4957,0.4977,0.5006,0.5026,0.5047,0.5077,0.5106,0.513,0.5145,0.5114,0.5,0.4847,0.4689,0.4512,0.4398,0.43,0.4297,0.4297,0.4297,0.4297,0.4297,0.4297,0.4297,0.4297,0.4297,0.4297,0.4297,0.4297,0.4265,0.4222,0.4163,0.4069,0.3971,0.379,0.3671,0.3478,0.3301,0.3139,0.3139,0.2982,0.2666,0.2588,0.2668,0.2801,0.3001,0.329,0.9208,0.8962,0.8113,0.7582,0.7367,0.7078,0.697,0.6945,0.6885,0.7021,0.7018,0.6697,0.6528,0.6379,0.6383,0.6272,0.6274,0.6049,0.5933,0.5824,0.5603,0.5603,0.5491,0.5493,0.5382,0.5382,0.5382,0.5382,0.5382,0.5382,0.5382,0.5382,0.5382,0.5382,0.5382,0.5382,0.5382,0.5382,0.5382,0.5382,0.5382,0.5382,0.538,0.5355,0.5294,0.5206,0.5116,0.5024,0.493,0.4853,0.4839,0.4832,0.4832,0.4832,0.4832,0.4834,0.4841,0.4877,0.4914,0.4934,0.4955,0.5004,0.5012,0.4986,0.4949,0.4875,0.4863,0.4916,0.4963,0.5008,0.5051,0.5084,0.5116,0.5141,0.5165,0.5186,0.5206,0.5206,0.5206,0.5067,0.4916,0.4738,0.4553,0.4426,0.4334,0.4297,0.4297,0.4297,0.4297,0.4297,0.4297,0.4297,0.4297,0.4297,0.4297,0.421,0.4121,0.421,0.4178,0.4122,0.4058,0.3775,0.3422,0.3301,0.311,0.2943,0.2771,0.2672,0.2514,0.2276,0.2196,0.2354,0.251,0.2644,0.3107,0.7926,0.7758,0.7175,0.6953,0.6921,0.6961,0.6956,0.6805,0.68,0.6475,0.6053,0.5983,0.5948,0.6038,0.6047,0.6049,0.594,0.5714,0.5603,0.5603,0.5491,0.5493,0.5382,0.5382,0.5382,0.5382,0.5382,0.5382,0.5382,0.5382,0.5382,0.5382,0.5382,0.5382,0.5382,0.5382,0.5382,0.5382,0.5382,0.5382,0.5382,0.5382,0.5382,0.5357,0.532,0.523,0.5135,0.5045,0.4961,0.4875,0.4834,0.4832,0.4832,0.4832,0.4832,0.4849,0.4873,0.4918,0.4965,0.5012,0.5037,0.5069,0.5057,0.4986,0.4906,0.4843,0.4877,0.4928,0.4957,0.5,0.5063,0.5104,0.5149,0.5181,0.521,0.5237,0.5253,0.5263,0.5179,0.5026,0.4865,0.4687,0.4518,0.4387,0.4312,0.4297,0.4297,0.4297,0.4297,0.4297,0.4297,0.4208,0.4208,0.4032,0.3942,0.3855,0.3855,0.3944,0.3942,0.3712,0.3474,0.3207,0.2964,0.2871,0.2773,0.2591,0.2416,0.2309,0.2206,0.2043,0.1963,0.2041,0.2196,0.2353,0.2659,0.6817,0.6842,0.6942,0.6926,0.685,0.6937,0.6824,0.6531,0.6627,0.631,0.5572,0.5411,0.5492,0.5665,0.571,0.5601,0.5493,0.5493,0.5493,0.5493,0.5382,0.5382,0.5382,0.5382,0.5382,0.5382,0.5382,0.5382,0.5382,0.5382,0.5382,0.5382,0.5382,0.5382,0.5382,0.5382,0.5382,0.5382,0.5382,0.5382,0.5382,0.5382,0.5382,0.5382,0.5355,0.5273,0.5161,0.5065,0.4986,0.491,0.4832,0.4832,0.4832,0.4832,0.4832,0.4849,0.4912,0.4959,0.5012,0.5084,0.5071,0.5051,0.501,0.4961,0.4892,0.4873,0.4908,0.4928,0.4957,0.5,0.5065,0.5108,0.5155,0.519,0.522,0.5245,0.5259,0.5267,0.5135,0.4983,0.4822,0.4647,0.452,0.4387,0.432,0.4306,0.43,0.4297,0.4297,0.4297,0.4297,0.4121,0.4032,0.3853,0.3676,0.3585,0.3585,0.3496,0.3489,0.3189,0.2887,0.2741,0.262,0.2529,0.243,0.2147,0.2041,0.1938,0.1838,0.189,0.1885,0.1961,0.204,0.2195,0.2195,0.6861,0.6953,0.6978,0.697,0.6956,0.6978,0.6861,0.6516,0.6406,0.6084,0.5616,0.5147,0.5076,0.5383,0.5464,0.5367,0.5337,0.5351,0.5373,0.5382,0.5347,0.5363,0.538,0.5373,0.5382,0.5382,0.5382,0.5382,0.5382,0.5382,0.5382,0.5382,0.5382,0.5382,0.5382,0.5382,0.5382,0.5382,0.5382,0.5382,0.5382,0.5382,0.5382,0.5357,0.5306,0.5216,0.512,0.5037,0.4943,0.4871,0.4832,0.4832,0.4832,0.4832,0.4832,0.4863,0.4928,0.4996,0.5055,0.5141,0.5141,0.512,0.509,0.4944,0.4876,0.471,0.4732,0.4732,0.4862,0.5004,0.5053,0.5067,0.5104,0.512,0.5145,0.5153,0.5163,0.5147,0.5079,0.4951,0.482,0.4685,0.4579,0.4449,0.4326,0.4314,0.4304,0.4302,0.4297,0.4297,0.4297,0.4121,0.3853,0.3764,0.3587,0.3226,0.3136,0.3045,0.2955,0.2761,0.2564,0.2363,0.2254,0.2333,0.204,0.1753,0.1653,0.1796,0.1764,0.1817,0.1886,0.1959,0.1959,0.196,0.1883]},{"header":{"parameterUnit":"m.s-1","parameterCategory":1,"la1":31.0,"la2":29.5877,"lo1":-88.7671,"lo2":-86.6584,"dy":0.0162,"dx":0.0185,"nx":115,"ny":88,"refTime":"2023-09-05T12:00:00:Z","depth":0,"parameterNumber":3,"parameterNumberName":"V-component_of_WINDS"},"data":[0.0,0.0,0.0,0.0,0.0,0.0,0.0,0.0,0.0,0.0,0.0,0.0,0.0,0.0,0.0,0.0,0.0,0.0,0.0,0.0,0.0,0.0,0.0,0.0,0.0,0.0,0.0,0.0,0.0,0.0,0.0,0.0,0.0,0.0,0.0,0.0,0.0,0.0,0.0,0.0,0.0,0.0,0.0,0.0,0.0,0.0,0.0,0.0,0.0,0.0,0.0,0.0,0.0,0.0,0.0,0.0,0.0,0.0,0.0,0.0,0.0,0.0,0.0,0.0,0.0,0.0,0.0,0.0,0.0,0.0,0.0,0.0,0.0,0.0,0.0,0.0,0.0,0.0,0.0,0.0,0.0,0.0,0.0,0.0,0.0,0.0,0.0,0.0,0.0,0.0,0.0,0.0,0.0,0.0,0.0,0.0,0.0,0.0,0.0,0.0,0.0,0.0,0.0,0.0,0.0,0.0,0.0,0.0,0.0,0.0,0.0,0.0,0.0,0.0,0.0,0.0,0.0,0.0,0.0,0.0,0.0,0.0,0.0,0.0,0.0,0.0,0.0,0.0,0.0,0.0,0.0,0.0,0.0,0.0,0.0,0.0,0.0,0.0,0.0,0.0,0.0,0.0,0.0,0.0,0.0,0.0,0.0,0.0,0.0,0.0,0.0,0.0,0.0,0.0,0.0,0.0,0.0,0.0,0.0,0.0,0.0,0.0,0.0,0.0,0.0,0.0,0.0,0.0,0.0,0.0,0.0,0.0,0.0,0.0,0.0,0.0,0.0,0.0,0.0,0.0,0.0,0.0,0.0,0.0,0.0,0.0,0.0,0.0,0.0,0.0,0.0,0.0,0.0,0.0,0.0,0.0,0.0,0.0,0.0,0.0,0.0,0.0,0.0,0.0,0.0,0.0,0.0,0.0,0.0,0.0,0.0,0.0,0.0,0.0,0.0,0.0,0.0,0.0,0.0,0.0,0.0,0.0,0.0,0.0,0.0,0.0,0.0,0.0,0.0,0.0,0.0,0.0,0.0,0.0,0.0,0.0,0.0,0.0,0.0,0.0,0.0,0.0,0.0,0.0,0.0,0.0,0.0,0.0,0.0,0.0,0.0,0.0,0.0,0.0,0.0,0.0,0.0,0.0,0.0,0.0,0.0,0.0,0.0,0.0,0.0,0.0,0.0,0.0,0.0,0.0,0.0,0.0,0.0,0.0,0.0,0.0,0.0,0.0,0.0,0.0,0.0,0.0,0.0,0.0,0.0,0.0,0.0,0.0,0.0,0.0,0.0,0.0,0.0,0.0,0.0,0.0,0.0,0.0,0.0,0.0,0.0,0.0,0.0,0.0,0.0,0.0,0.0,0.0,0.0,0.0,0.0,0.0,0.0,0.0,0.0,0.0,0.0,0.0,0.0,0.0,0.0,0.0,0.0,0.0,0.0,0.0,0.0,0.0,0.0,0.0,0.0,0.0,0.0,0.0,0.0,0.0,0.0,0.0,0.0,0.0,0.0,0.0,0.0,0.0,0.0,0.0,0.0,0.0,0.0,0.0,0.0,0.0,0.0,0.0,0.0,0.0,0.0,0.0,0.0,0.0,0.0,0.0,0.0,0.0,0.0,0.0,0.0,0.0,0.0,0.0,0.0,0.0,0.0,0.0,0.0,0.0,0.0,0.0,0.0,0.0,0.0,0.0,0.0,0.0,0.0,0.0,0.0,0.0,0.0,0.0,0.0,0.0,0.0,0.0,0.0,0.0,0.0,0.0,0.0,0.0,0.0,0.0,0.0,0.0,0.0,0.0,0.0,0.0,0.0,0.0,0.0,0.0,0.0,0.0,0.0,0.0,0.0,0.0,0.0,0.0,0.0,0.0,0.0,0.0,0.0,0.0,0.0,0.0,0.0,0.0,0.0,0.0,0.0,0.0,0.0,0.0,0.0,0.0,0.0,0.0,0.0,0.0,0.0,0.0,0.0,0.0,0.0,0.0,0.0,0.0,0.0,0.0,0.0,0.0,0.0,0.0,0.0,0.0,0.0,0.0,0.0,0.0,0.0,0.0,0.0,0.0,0.0,0.0,0.0,0.0,0.0,0.0,0.0,0.0,0.0,0.0,0.0,0.0,0.0,0.0,0.0,0.0,0.0,0.0,0.0,0.0,0.0,0.0,0.0,0.0,0.0,0.0,0.0,0.0,0.0,0.0,0.0,0.0,0.0,0.0,0.0,0.0,0.0,0.0,0.0,0.0,0.0,0.0,0.0,0.0,0.0,0.0,0.0,0.0,0.0,0.0,0.0,0.0,0.0,0.0,0.0,0.0,0.0,0.0,0.0,0.0,0.0,0.0,0.0,0.0,0.0,0.0,0.0,0.0,0.0,0.0,0.0,0.0,0.0,0.0,0.0,0.0,0.0,0.0,0.0,0.0,0.0,0.0,0.0,0.0,0.0,0.0,0.0,0.0,0.0,0.0,0.0,0.0,0.0,0.0,0.0,0.0,0.0,0.0,0.0,0.0,0.0,0.0,0.0,0.0,0.0,0.0,0.0,0.0,0.0,0.0,0.0,0.0,0.0,0.0,0.0,0.0,0.0,0.0,0.0,0.0,0.0,0.0,0.0,0.0,0.0,0.0,0.0,0.0,0.0,0.0,0.0,0.0,0.0,0.0,0.0,0.0,0.0,0.0,0.0,0.0,0.0,0.0,0.0,0.0,0.0,0.0,0.0,0.0,0.0,0.0,0.0,0.0,0.0,0.0,0.0,0.0,0.0,0.0,0.0,0.0,0.0,0.0,0.0,0.0,0.0,0.0,0.0,0.0,0.0,0.0,0.0,0.0,0.0,0.0,0.0,0.0,0.0,0.0,0.0,0.0,0.0,0.0,0.0,0.0,0.0,0.0,0.0,0.0,0.0,0.0,0.0,0.0,0.0,0.0,0.0,0.0,0.0,0.0,0.0,0.0,0.0,0.0,0.0,0.0,0.0,0.0,0.0,0.0,0.0,0.0,0.0,0.0,0.0,0.0,0.0,0.0,0.0,0.0,0.0,0.0,0.0,0.0,0.0,0.0,0.0,0.0,0.0,0.0,0.0,0.0,0.0,0.0,0.0,0.0,0.0,0.0,0.0,0.0,0.0,0.0,0.0,0.0,0.0,0.0,0.0,0.0,0.0,0.0,0.0,0.0,0.0,0.0,0.0,0.0,0.0,0.0,0.0,0.0,0.0,0.0,0.0,0.0,0.0,0.0,0.0,0.0,0.0,0.0,0.0,0.0,0.0,0.0,0.0,0.0,0.0,0.0,0.0,0.0,0.0,0.0,0.0,0.0,0.0,0.0,0.0,0.0,0.0,0.0,0.0,0.0,0.0,0.0,0.0,0.0,0.0,0.0,0.0,0.0,0.0,0.0,0.0,0.0,0.0,0.0,0.0,0.0,0.0,0.0,0.0,0.0,0.0,0.0,0.0,0.0,0.0,0.0,0.0,0.0,0.0,0.0,0.0,0.0,0.0,0.0,0.0,0.0,0.0,0.0,0.0,0.0,0.0,0.0,0.0,0.0,0.0,0.0,0.0,0.0,0.0,0.0,0.0,0.0,0.0,0.0,0.0,0.0,0.0,0.0,0.0,0.0,0.0,0.0,0.0,0.0,0.0,0.0,0.0,0.0,0.0,0.0,0.0,0.0,0.0,0.0,0.0,0.0,0.0,0.0,0.0,0.0,0.0,0.0,0.0,0.0,0.0,0.0,0.0,0.0,0.0,0.0,0.0,0.0,0.0,0.0,0.0,0.0,0.0,0.0,0.0,0.0,0.0,0.0,0.0,0.0,0.0,0.0,0.0,0.0,0.0,0.0,0.0,0.0,0.0,0.0,0.0,0.0,0.0,0.0,0.0,0.0,0.0,0.0,0.0,0.0,0.0,0.0,0.0,0.0,0.0,0.0,0.0,0.0,0.0,0.0,0.0,0.0,0.0,0.0,0.0,0.0,0.0,0.0,0.0,0.0,0.0,0.0,0.0,0.0,0.0,0.0,0.0,0.0,0.0,0.0,0.0,0.0,0.0,0.0,0.0,0.0,0.0,0.0,0.0,0.0,0.0,0.0,0.0,0.0,0.0,0.0,0.0,0.0,0.0,0.0,0.0,0.0,0.0,0.0,0.0,0.0,0.0,0.0,0.0,0.0,0.0,0.0,0.0,0.0,0.0,0.0,0.0,0.0,0.0,0.0,0.0,0.0,0.0,0.0,0.0,0.0,0.0,0.0,0.0,0.0,0.0,0.0,0.0,0.0,0.0,0.0,-1.0881,0.0,0.0,0.0,0.0,0.0,0.0,0.0,0.0,0.0,0.0,0.0,0.0,0.0,0.0,0.0,0.0,0.0,0.0,0.0,0.0,0.0,0.0,0.0,0.0,0.0,0.0,0.0,0.0,0.0,0.0,0.0,0.0,0.0,0.0,0.0,0.0,0.0,0.0,0.0,0.0,0.0,0.0,0.0,0.0,0.0,0.0,0.0,0.0,0.0,0.0,0.0,0.0,0.0,0.0,0.0,0.0,0.0,0.0,0.0,0.0,0.0,0.0,0.0,0.0,0.0,0.0,0.0,0.0,0.0,0.0,0.0,0.0,0.0,0.0,0.0,0.0,0.0,0.0,0.0,0.0,0.0,0.0,0.0,0.0,0.0,0.0,0.0,0.0,0.0,0.0,0.0,0.0,0.0,0.0,0.0,0.0,0.0,0.0,0.0,0.0,0.0,0.0,0.0,0.0,0.0,0.0,0.0,0.0,0.0,0.0,-1.0881,-1.0881,-1.0881,-1.0881,-1.0919,0.0,0.0,0.0,0.0,0.0,0.0,0.0,0.0,0.0,0.0,0.0,0.0,0.0,0.0,0.0,0.0,0.0,0.0,0.0,0.0,0.0,0.0,0.0,0.0,0.0,0.0,0.0,0.0,0.0,0.0,0.0,0.0,0.0,0.0,0.0,0.0,0.0,0.0,0.0,0.0,0.0,0.0,0.0,0.0,0.0,0.0,0.0,0.0,0.0,0.0,0.0,0.0,0.0,0.0,0.0,0.0,0.0,0.0,0.0,0.0,0.0,0.0,0.0,0.0,0.0,0.0,0.0,0.0,0.0,0.0,0.0,0.0,0.0,0.0,0.0,0.0,0.0,0.0,0.0,0.0,0.0,0.0,0.0,0.0,0.0,0.0,0.0,0.0,0.0,0.0,0.0,0.0,0.0,0.0,0.0,0.0,0.0,0.0,0.0,0.0,0.0,0.0,0.0,0.0,0.0,0.0,0.0,0.0,0.0,0.0,0.0,0.0,-1.1074,-1.1074,-1.1074,0.0,0.0,0.0,0.0,0.0,0.0,0.0,0.0,0.0,0.0,0.0,0.0,0.0,0.0,0.0,0.0,0.0,0.0,0.0,0.0,0.0,0.0,0.0,0.0,0.0,0.0,0.0,0.0,0.0,0.0,0.0,0.0,0.0,0.0,0.0,0.0,0.0,0.0,0.0,0.0,0.0,0.0,0.0,0.0,0.0,0.0,0.0,0.0,0.0,0.0,0.0,0.0,0.0,0.0,0.0,0.0,0.0,0.0,0.0,0.0,0.0,0.0,0.0,0.0,0.0,0.0,0.0,0.0,0.0,0.0,0.0,0.0,0.0,0.0,0.0,0.0,0.0,0.0,0.0,0.0,0.0,0.0,0.0,0.0,0.0,0.0,0.0,0.0,0.0,0.0,0.0,0.0,0.0,0.0,0.0,0.0,0.0,0.0,0.0,0.0,0.0,0.0,0.0,0.0,0.0,0.0,0.0,0.0,0.0,0.0,-1.1116,-1.1539,-1.1549,0.0,-1.1529,0.0,0.0,0.0,0.0,0.0,0.0,0.0,0.0,0.0,0.0,0.0,0.0,0.0,0.0,0.0,0.0,0.0,0.0,0.0,0.0,0.0,0.0,0.0,0.0,0.0,0.0,0.0,0.0,0.0,0.0,0.0,0.0,0.0,0.0,0.0,0.0,0.0,0.0,0.0,0.0,0.0,0.0,0.0,0.0,0.0,0.0,0.0,0.0,0.0,0.0,0.0,0.0,0.0,0.0,0.0,0.0,0.0,0.0,0.0,0.0,0.0,0.0,0.0,0.0,0.0,0.0,0.0,0.0,0.0,0.0,0.0,0.0,0.0,0.0,0.0,0.0,0.0,0.0,0.0,0.0,0.0,0.0,0.0,0.0,0.0,0.0,0.0,0.0,0.0,0.0,0.0,0.0,0.0,0.0,0.0,0.0,0.0,0.0,0.0,0.0,0.0,0.0,0.0,0.0,0.0,0.0,0.0,0.0,0.0,0.0,-1.1137,-1.1601,-1.1642,-1.1567,0.0,0.0,0.0,0.0,0.0,0.0,0.0,0.0,0.0,0.0,0.0,0.0,0.0,0.0,0.0,0.0,0.0,0.0,0.0,0.0,0.0,0.0,0.0,0.0,0.0,0.0,0.0,0.0,0.0,0.0,0.0,0.0,0.0,0.0,0.0,0.0,0.0,0.0,0.0,0.0,0.0,0.0,0.0,0.0,0.0,0.0,0.0,0.0,0.0,0.0,0.0,0.0,0.0,0.0,0.0,0.0,0.0,0.0,0.0,0.0,0.0,0.0,0.0,0.0,0.0,0.0,0.0,0.0,0.0,0.0,0.0,0.0,0.0,0.0,0.0,0.0,0.0,0.0,0.0,0.0,0.0,0.0,0.0,0.0,0.0,0.0,0.0,0.0,0.0,0.0,0.0,0.0,0.0,0.0,0.0,0.0,0.0,0.0,0.0,0.0,0.0,0.0,0.0,0.0,0.0,0.0,0.0,0.0,0.0,0.0,-1.0981,-1.1137,-1.157,-1.1567,-1.1499,-1.1403,0.0,0.0,0.0,0.0,0.0,0.0,0.0,0.0,0.0,0.0,0.0,0.0,0.0,0.0,0.0,0.0,0.0,0.0,0.0,0.0,0.0,0.0,0.0,0.0,0.0,0.0,0.0,0.0,0.0,0.0,0.0,0.0,0.0,0.0,0.0,0.0,0.0,0.0,0.0,0.0,0.0,0.0,0.0,0.0,0.0,0.0,0.0,0.0,0.0,0.0,0.0,0.0,0.0,0.0,0.0,0.0,0.0,0.0,0.0,0.0,0.0,0.0,0.0,0.0,0.0,0.0,0.0,0.0,0.0,0.0,0.0,0.0,0.0,0.0,0.0,0.0,0.0,0.0,0.0,0.0,0.0,0.0,0.0,0.0,0.0,0.0,0.0,0.0,0.0,0.0,0.0,0.0,0.0,0.0,0.0,0.0,0.0,0.0,0.0,0.0,0.0,0.0,0.0,0.0,0.0,0.0,0.0,0.0,-1.1539,-1.1147,-1.1165,-1.165,-1.1323,-1.1379,0.0,0.0,0.0,0.0,0.0,0.0,0.0,0.0,0.0,0.0,0.0,0.0,0.0,0.0,0.0,0.0,0.0,0.0,0.0,0.0,0.0,0.0,0.0,0.0,0.0,0.0,0.0,0.0,0.0,0.0,0.0,0.0,0.0,0.0,0.0,0.0,0.0,0.0,0.0,0.0,0.0,0.0,0.0,0.0,0.0,0.0,0.0,0.0,0.0,0.0,0.0,0.0,0.0,0.0,0.0,0.0,0.0,0.0,0.0,0.0,0.0,0.0,0.0,0.0,0.0,0.0,0.0,0.0,0.0,0.0,0.0,0.0,0.0,0.0,0.0,0.0,0.0,0.0,0.0,0.0,0.0,0.0,0.0,0.0,0.0,0.0,0.0,0.0,0.0,0.0,0.0,0.0,0.0,0.0,0.0,0.0,0.0,0.0,0.0,0.0,0.0,0.0,0.0,0.0,0.0,0.0,0.0,0.0,0.0,-1.1147,-1.1271,-1.135,-1.1401,-1.1545,-1.1634,0.0,0.0,0.0,0.0,0.0,0.0,0.0,0.0,0.0,0.0,0.0,0.0,0.0,0.0,0.0,0.0,0.0,0.0,0.0,0.0,0.0,0.0,0.0,0.0,0.0,0.0,0.0,0.0,0.0,0.0,0.0,0.0,0.0,0.0,0.0,0.0,0.0,0.0,0.0,0.0,0.0,0.0,0.0,0.0,0.0,0.0,0.0,0.0,0.0,0.0,0.0,0.0,0.0,0.0,0.0,0.0,0.0,0.0,0.0,0.0,0.0,0.0,0.0,0.0,0.0,0.0,0.0,0.0,0.0,0.0,0.0,0.0,0.0,0.0,0.0,0.0,0.0,0.0,0.0,0.0,0.0,0.0,0.0,0.0,0.0,0.0,0.0,0.0,0.0,0.0,0.0,0.0,0.0,0.0,0.0,0.0,0.0,0.0,0.0,0.0,0.0,0.0,0.0,0.0,0.0,0.0,0.0,0.0,0.0,-1.1298,0.0,-1.1587,-1.1582,-1.1625,-1.1686,0.0,0.0,0.0,0.0,0.0,0.0,0.0,0.0,0.0,0.0,0.0,0.0,0.0,0.0,0.0,0.0,0.0,0.0,0.0,0.0,0.0,0.0,0.0,0.0,0.0,0.0,0.0,0.0,0.0,0.0,0.0,0.0,0.0,0.0,0.0,0.0,0.0,0.0,0.0,0.0,0.0,0.0,0.0,0.0,0.0,0.0,0.0,0.0,0.0,0.0,0.0,0.0,0.0,0.0,0.0,0.0,0.0,0.0,0.0,0.0,0.0,0.0,0.0,0.0,0.0,0.0,0.0,0.0,0.0,0.0,0.0,0.0,0.0,0.0,0.0,0.0,0.0,0.0,0.0,0.0,0.0,0.0,0.0,0.0,0.0,0.0,0.0,0.0,0.0,0.0,0.0,0.0,0.0,0.0,0.0,0.0,0.0,0.0,0.0,0.0,0.0,0.0,0.0,0.0,0.0,0.0,0.0,0.0,-1.17,-1.2029,-1.1774,-1.187,-1.2341,-1.1682,-1.1522,0.0,0.0,0.0,0.0,0.0,0.0,0.0,0.0,0.0,0.0,0.0,0.0,0.0,0.0,0.0,0.0,0.0,0.0,0.0,0.0,0.0,0.0,0.0,0.0,0.0,0.0,0.0,0.0,0.0,0.0,0.0,0.0,0.0,0.0,0.0,0.0,0.0,0.0,0.0,0.0,0.0,0.0,0.0,0.0,0.0,0.0,0.0,0.0,0.0,0.0,0.0,0.0,0.0,0.0,0.0,0.0,0.0,0.0,0.0,0.0,0.0,0.0,0.0,0.0,0.0,0.0,0.0,0.0,0.0,0.0,0.0,0.0,0.0,0.0,0.0,0.0,0.0,0.0,0.0,0.0,0.0,0.0,0.0,0.0,0.0,0.0,0.0,0.0,0.0,0.0,0.0,0.0,0.0,0.0,0.0,0.0,0.0,0.0,0.0,0.0,0.0,0.0,0.0,0.0,0.0,0.0,0.0,0.0,0.0,-1.17,-1.1934,-1.2215,-1.2522,-1.2261,-1.2275,0.0,0.0,0.0,0.0,0.0,0.0,0.0,0.0,0.0,0.0,0.0,0.0,0.0,0.0,0.0,0.0,0.0,0.0,0.0,0.0,0.0,0.0,0.0,0.0,0.0,0.0,0.0,0.0,0.0,0.0,0.0,0.0,0.0,0.0,0.0,0.0,0.0,0.0,0.0,0.0,0.0,0.0,0.0,0.0,0.0,0.0,0.0,0.0,0.0,0.0,0.0,0.0,0.0,0.0,0.0,0.0,0.0,0.0,0.0,0.0,0.0,0.0,0.0,0.0,0.0,0.0,0.0,0.0,0.0,0.0,0.0,0.0,0.0,0.0,0.0,0.0,0.0,0.0,0.0,0.0,0.0,0.0,0.0,0.0,0.0,0.0,0.0,0.0,0.0,0.0,0.0,0.0,0.0,0.0,0.0,0.0,0.0,0.0,0.0,0.0,0.0,0.0,0.0,0.0,0.0,0.0,0.0,0.0,0.0,-1.273,-1.2993,-1.3346,-1.3631,-1.3106,-1.2857,-1.2972,0.0,0.0,0.0,0.0,0.0,0.0,0.0,0.0,0.0,0.0,0.0,0.0,0.0,0.0,0.0,0.0,0.0,0.0,0.0,0.0,0.0,0.0,0.0,0.0,0.0,0.0,0.0,0.0,0.0,0.0,0.0,0.0,0.0,0.0,0.0,0.0,0.0,0.0,0.0,0.0,0.0,0.0,0.0,0.0,0.0,0.0,0.0,0.0,0.0,0.0,0.0,0.0,0.0,0.0,0.0,0.0,0.0,0.0,0.0,0.0,0.0,0.0,0.0,0.0,0.0,0.0,0.0,0.0,0.0,0.0,0.0,0.0,0.0,0.0,0.0,0.0,0.0,0.0,0.0,0.0,0.0,0.0,0.0,0.0,0.0,0.0,0.0,0.0,0.0,0.0,0.0,0.0,0.0,0.0,0.0,0.0,0.0,0.0,0.0,0.0,0.0,0.0,0.0,0.0,0.0,0.0,0.0,0.0,-1.4745,-1.4794,-1.5028,-1.5453,-1.4141,-1.3408,0.0,0.0,0.0,0.0,0.0,0.0,0.0,0.0,0.0,0.0,0.0,0.0,0.0,0.0,0.0,0.0,0.0,0.0,0.0,0.0,0.0,0.0,0.0,0.0,0.0,0.0,0.0,0.0,0.0,0.0,0.0,0.0,0.0,0.0,0.0,0.0,0.0,0.0,0.0,0.0,0.0,0.0,0.0,0.0,0.0,0.0,0.0,0.0,0.0,0.0,0.0,0.0,0.0,0.0,0.0,0.0,0.0,0.0,0.0,0.0,0.0,0.0,0.0,0.0,0.0,0.0,0.0,0.0,0.0,0.0,0.0,0.0,0.0,0.0,0.0,0.0,0.0,0.0,0.0,0.0,0.0,0.0,0.0,0.0,0.0,0.0,0.0,0.0,0.0,0.0,0.0,0.0,0.0,0.0,0.0,0.0,0.0,0.0,0.0,0.0,0.0,0.0,0.0,0.0,0.0,0.0,0.0,0.0,0.0,-1.6443,-1.7234,-1.7364,-1.6858,-1.5625,-1.4863,0.0,0.0,0.0,0.0,0.0,0.0,0.0,0.0,0.0,0.0,0.0,0.0,0.0,0.0,0.0,0.0,0.0,0.0,0.0,0.0,0.0,0.0,0.0,0.0,0.0,0.0,0.0,0.0,0.0,0.0,0.0,0.0,0.0,0.0,0.0,0.0,0.0,0.0,0.0,0.0,0.0,0.0,0.0,0.0,0.0,0.0,0.0,0.0,0.0,0.0,0.0,0.0,0.0,0.0,0.0,0.0,0.0,0.0,0.0,0.0,0.0,0.0,0.0,0.0,0.0,0.0,0.0,0.0,0.0,0.0,0.0,0.0,0.0,0.0,0.0,0.0,0.0,0.0,0.0,0.0,0.0,0.0,0.0,0.0,0.0,0.0,0.0,0.0,0.0,0.0,0.0,0.0,0.0,0.0,0.0,0.0,0.0,0.0,0.0,0.0,0.0,0.0,0.0,0.0,0.0,0.0,0.0,0.0,-1.6237,-1.7044,-1.8636,-1.9201,-1.8725,-1.7306,-1.6097,0.0,0.0,0.0,0.0,0.0,0.0,0.0,0.0,0.0,0.0,0.0,0.0,0.0,0.0,0.0,0.0,0.0,0.0,0.0,0.0,0.0,0.0,0.0,0.0,0.0,0.0,0.0,0.0,0.0,0.0,0.0,0.0,0.0,0.0,0.0,0.0,0.0,0.0,0.0,0.0,0.0,0.0,0.0,0.0,0.0,0.0,0.0,0.0,0.0,0.0,0.0,0.0,0.0,0.0,0.0,0.0,0.0,0.0,0.0,0.0,0.0,0.0,0.0,0.0,0.0,0.0,0.0,0.0,0.0,0.0,0.0,0.0,0.0,0.0,0.0,0.0,0.0,0.0,0.0,0.0,0.0,0.0,0.0,0.0,0.0,0.0,0.0,0.0,0.0,0.0,0.0,0.0,0.0,0.0,0.0,0.0,0.0,0.0,0.0,0.0,0.0,0.0,0.0,0.0,0.0,0.0,0.0,0.0,-1.6876,-1.7148,-1.9309,-2.0461,-2.0485,-1.8875,-1.7099,0.0,0.0,0.0,0.0,0.0,0.0,0.0,0.0,0.0,0.0,0.0,0.0,0.0,0.0,0.0,0.0,0.0,0.0,0.0,0.0,0.0,0.0,0.0,0.0,0.0,0.0,0.0,0.0,0.0,0.0,0.0,0.0,0.0,0.0,0.0,0.0,0.0,0.0,0.0,0.0,0.0,0.0,0.0,0.0,0.0,0.0,0.0,0.0,0.0,0.0,0.0,0.0,0.0,0.0,0.0,0.0,0.0,0.0,0.0,0.0,0.0,0.0,0.0,0.0,0.0,0.0,0.0,0.0,0.0,0.0,0.0,0.0,0.0,0.0,0.0,0.0,0.0,0.0,0.0,0.0,0.0,0.0,0.0,0.0,0.0,0.0,0.0,0.0,0.0,0.0,0.0,0.0,0.0,0.0,0.0,0.0,0.0,0.0,0.0,0.0,0.0,0.0,0.0,0.0,0.0,0.0,0.0,0.0,-1.745,-1.8008,-1.949,-2.0347,-2.0461,-1.8921,-1.7496,0.0,0.0,0.0,0.0,0.0,0.0,0.0,0.0,0.0,0.0,0.0,0.0,0.0,0.0,0.0,0.0,0.0,0.0,0.0,0.0,0.0,0.0,0.0,0.0,0.0,0.0,0.0,0.0,0.0,0.0,0.0,0.0,0.0,0.0,0.0,0.0,0.0,0.0,0.0,0.0,0.0,0.0,0.0,0.0,0.0,0.0,0.0,0.0,-1.5049,0.0,0.0,0.0,0.0,0.0,0.0,0.0,0.0,0.0,0.0,0.0,0.0,0.0,0.0,0.0,0.0,0.0,0.0,0.0,0.0,0.0,0.0,0.0,0.0,0.0,0.0,0.0,0.0,0.0,0.0,0.0,0.0,0.0,0.0,0.0,0.0,0.0,0.0,0.0,0.0,0.0,0.0,0.0,0.0,0.0,0.0,0.0,0.0,0.0,0.0,0.0,0.0,0.0,0.0,0.0,0.0,0.0,0.0,0.0,-1.7676,-1.8409,-1.9768,-2.0435,-2.0207,-1.905,-1.781,0.0,0.0,0.0,0.0,0.0,0.0,0.0,0.0,0.0,0.0,0.0,0.0,0.0,0.0,0.0,0.0,0.0,0.0,0.0,0.0,0.0,0.0,0.0,0.0,0.0,0.0,0.0,0.0,0.0,0.0,0.0,0.0,0.0,0.0,0.0,0.0,0.0,0.0,0.0,0.0,0.0,0.0,0.0,0.0,0.0,0.0,0.0,0.0,0.0,0.0,0.0,0.0,0.0,0.0,0.0,0.0,0.0,0.0,0.0,0.0,0.0,0.0,0.0,0.0,0.0,0.0,0.0,0.0,0.0,0.0,0.0,0.0,0.0,0.0,0.0,0.0,0.0,0.0,0.0,0.0,0.0,0.0,0.0,0.0,0.0,0.0,0.0,0.0,0.0,0.0,0.0,0.0,0.0,0.0,0.0,0.0,0.0,0.0,0.0,0.0,0.0,0.0,0.0,0.0,0.0,0.0,0.0,-1.6771,-1.7935,-1.8839,-2.0118,-2.0623,-2.0156,-1.9227,-1.8061,-1.6731,0.0,0.0,0.0,0.0,0.0,0.0,0.0,0.0,0.0,0.0,0.0,0.0,0.0,0.0,0.0,0.0,0.0,0.0,0.0,0.0,0.0,0.0,0.0,0.0,0.0,0.0,0.0,0.0,0.0,0.0,0.0,0.0,0.0,0.0,0.0,0.0,0.0,0.0,-1.4319,-1.4557,0.0,0.0,0.0,0.0,0.0,0.0,0.0,0.0,-1.4972,0.0,0.0,0.0,0.0,0.0,0.0,0.0,0.0,0.0,0.0,0.0,0.0,0.0,0.0,0.0,0.0,0.0,0.0,0.0,0.0,0.0,0.0,0.0,0.0,0.0,0.0,0.0,0.0,0.0,0.0,0.0,0.0,0.0,0.0,0.0,0.0,0.0,0.0,0.0,0.0,0.0,0.0,0.0,0.0,0.0,0.0,0.0,0.0,0.0,0.0,0.0,0.0,0.0,0.0,0.0,0.0,-1.6267,-1.7333,-1.8686,-2.0202,-2.0711,-2.0993,-2.0953,-1.9499,-1.8196,-1.7154,0.0,0.0,0.0,0.0,0.0,0.0,0.0,0.0,0.0,0.0,0.0,0.0,0.0,0.0,0.0,0.0,0.0,0.0,0.0,0.0,0.0,0.0,0.0,0.0,0.0,0.0,0.0,0.0,0.0,0.0,0.0,0.0,0.0,0.0,0.0,0.0,0.0,0.0,0.0,-1.4787,-1.4991,0.0,0.0,0.0,0.0,0.0,0.0,0.0,0.0,-1.5309,0.0,0.0,0.0,0.0,0.0,0.0,0.0,0.0,0.0,0.0,0.0,0.0,0.0,0.0,0.0,0.0,0.0,0.0,0.0,0.0,0.0,0.0,0.0,0.0,0.0,0.0,0.0,0.0,0.0,0.0,0.0,0.0,0.0,0.0,0.0,0.0,0.0,0.0,0.0,0.0,0.0,0.0,0.0,0.0,0.0,0.0,0.0,0.0,0.0,0.0,0.0,0.0,0.0,0.0,0.0,-1.697,-1.8268,-1.9628,-2.1184,-2.1509,-2.1609,-2.1411,-1.9782,-1.8481,0.0,0.0,0.0,0.0,0.0,0.0,0.0,0.0,0.0,0.0,0.0,0.0,0.0,0.0,0.0,0.0,0.0,0.0,0.0,0.0,0.0,0.0,0.0,0.0,0.0,0.0,0.0,0.0,0.0,0.0,0.0,0.0,0.0,0.0,0.0,0.0,0.0,0.0,0.0,0.0,-1.5462,-1.5854,-1.722,0.0,0.0,0.0,0.0,0.0,0.0,-1.5877,-1.5874,0.0,0.0,0.0,0.0,0.0,0.0,0.0,0.0,0.0,0.0,0.0,0.0,0.0,0.0,0.0,0.0,0.0,0.0,0.0,0.0,0.0,0.0,0.0,0.0,0.0,0.0,0.0,0.0,0.0,0.0,0.0,0.0,0.0,0.0,0.0,0.0,0.0,0.0,0.0,0.0,0.0,0.0,0.0,0.0,0.0,0.0,0.0,0.0,0.0,0.0,0.0,0.0,0.0,0.0,0.0,-1.7531,-1.8957,-2.0429,-2.1797,-2.2179,-2.2151,-2.169,-1.9934,-1.8508,0.0,0.0,0.0,0.0,0.0,0.0,0.0,0.0,0.0,0.0,0.0,0.0,0.0,0.0,0.0,0.0,0.0,0.0,0.0,0.0,0.0,0.0,0.0,0.0,0.0,0.0,0.0,0.0,0.0,0.0,0.0,0.0,0.0,0.0,0.0,0.0,0.0,0.0,0.0,0.0,0.0,-1.6718,-1.7444,-1.7431,0.0,0.0,0.0,0.0,-1.6413,-1.6665,0.0,0.0,0.0,0.0,0.0,0.0,0.0,0.0,0.0,0.0,0.0,0.0,0.0,0.0,0.0,0.0,0.0,0.0,0.0,0.0,0.0,0.0,0.0,0.0,0.0,0.0,0.0,0.0,0.0,0.0,0.0,0.0,0.0,0.0,0.0,0.0,0.0,0.0,0.0,0.0,0.0,0.0,0.0,0.0,0.0,0.0,0.0,0.0,0.0,0.0,0.0,0.0,0.0,0.0,0.0,0.0,-1.7757,-1.9034,-2.052,-2.2133,-2.2421,-2.2241,-2.1683,-1.9543,-1.7915,0.0,0.0,0.0,0.0,0.0,0.0,0.0,0.0,0.0,0.0,0.0,0.0,0.0,0.0,0.0,0.0,0.0,0.0,0.0,0.0,0.0,0.0,0.0,0.0,0.0,0.0,0.0,0.0,0.0,0.0,0.0,0.0,0.0,0.0,0.0,0.0,0.0,0.0,0.0,0.0,0.0,-1.6821,-1.7895,-1.7539,-1.724,0.0,0.0,-1.8783,-1.8269,-1.8576,0.0,0.0,0.0,0.0,0.0,0.0,0.0,0.0,0.0,0.0,0.0,0.0,0.0,0.0,0.0,0.0,0.0,0.0,0.0,0.0,0.0,0.0,0.0,0.0,0.0,0.0,0.0,0.0,0.0,0.0,0.0,0.0,0.0,0.0,0.0,0.0,0.0,0.0,0.0,0.0,0.0,0.0,0.0,0.0,0.0,0.0,0.0,0.0,0.0,0.0,0.0,0.0,0.0,0.0,0.0,-1.7291,-1.8355,-1.9992,-2.1329,-2.2372,-2.2395,-2.2192,-2.1715,-1.9628,-1.8245,0.0,0.0,0.0,0.0,0.0,0.0,0.0,0.0,0.0,0.0,0.0,0.0,0.0,0.0,0.0,0.0,0.0,0.0,0.0,0.0,0.0,0.0,0.0,0.0,0.0,0.0,0.0,0.0,0.0,0.0,0.0,0.0,0.0,0.0,0.0,0.0,0.0,0.0,0.0,0.0,0.0,0.0,-1.8542,-1.869,0.0,0.0,0.0,-1.9445,-1.8754,0.0,0.0,0.0,0.0,0.0,0.0,0.0,0.0,0.0,0.0,0.0,0.0,0.0,0.0,0.0,0.0,0.0,0.0,0.0,0.0,0.0,0.0,0.0,0.0,0.0,0.0,0.0,0.0,0.0,0.0,0.0,0.0,0.0,0.0,0.0,0.0,0.0,0.0,0.0,0.0,0.0,0.0,0.0,0.0,0.0,0.0,0.0,0.0,0.0,0.0,0.0,0.0,0.0,0.0,0.0,0.0,0.0,-1.9035,-2.0754,-2.2079,-2.2903,-2.2475,-2.2117,-2.1783,-1.9899,0.0,0.0,0.0,0.0,0.0,0.0,0.0,0.0,0.0,0.0,0.0,0.0,0.0,0.0,0.0,0.0,0.0,0.0,0.0,0.0,0.0,0.0,0.0,0.0,0.0,0.0,0.0,-1.4823,0.0,0.0,0.0,0.0,0.0,0.0,0.0,0.0,0.0,0.0,0.0,0.0,0.0,0.0,-1.9224,-1.9322,-1.9723,-2.0213,0.0,0.0,-2.01,-1.9563,-2.0673,-2.0937,0.0,0.0,0.0,0.0,0.0,0.0,0.0,0.0,0.0,0.0,0.0,0.0,0.0,0.0,0.0,0.0,0.0,0.0,0.0,0.0,0.0,0.0,0.0,0.0,0.0,0.0,0.0,0.0,0.0,0.0,0.0,0.0,0.0,0.0,0.0,0.0,0.0,0.0,0.0,0.0,0.0,0.0,0.0,0.0,0.0,0.0,0.0,0.0,0.0,0.0,0.0,0.0,0.0,0.0,-1.8257,-1.9566,-2.0852,-2.2415,-2.4024,-2.281,-2.2088,-2.2034,-2.0377,-1.8714,0.0,0.0,0.0,0.0,0.0,0.0,0.0,0.0,0.0,0.0,0.0,0.0,0.0,0.0,0.0,0.0,0.0,0.0,0.0,0.0,0.0,0.0,0.0,0.0,0.0,0.0,0.0,0.0,0.0,0.0,0.0,0.0,0.0,0.0,0.0,0.0,0.0,0.0,0.0,0.0,0.0,-1.9931,-2.0203,-2.0359,-2.0642,0.0,-2.1154,-2.1191,-2.1311,-2.2205,-2.2262,-2.0111,0.0,0.0,0.0,0.0,0.0,0.0,0.0,0.0,0.0,0.0,0.0,0.0,0.0,0.0,0.0,0.0,0.0,0.0,0.0,0.0,0.0,0.0,0.0,0.0,0.0,0.0,0.0,0.0,0.0,0.0,0.0,0.0,0.0,0.0,0.0,0.0,0.0,0.0,0.0,0.0,0.0,0.0,0.0,0.0,0.0,0.0,0.0,0.0,0.0,0.0,0.0,0.0,0.0,-1.9004,-1.9741,-2.1789,-2.3148,-2.3656,-2.3178,-2.2491,-2.1734,-2.0841,-1.9644,0.0,0.0,0.0,0.0,0.0,0.0,0.0,0.0,0.0,0.0,0.0,0.0,0.0,0.0,0.0,0.0,0.0,0.0,0.0,0.0,0.0,0.0,0.0,0.0,0.0,0.0,0.0,0.0,-1.8144,-1.8361,-1.8525,0.0,0.0,0.0,0.0,0.0,0.0,0.0,0.0,0.0,0.0,-2.1068,-2.1961,-2.2076,0.0,0.0,-2.2265,-2.1874,-2.1703,-2.228,-2.2161,-2.0505,-1.9905,0.0,0.0,0.0,0.0,0.0,0.0,0.0,0.0,0.0,0.0,0.0,0.0,0.0,0.0,0.0,0.0,0.0,0.0,0.0,0.0,0.0,0.0,0.0,0.0,0.0,0.0,0.0,0.0,0.0,0.0,0.0,0.0,0.0,0.0,0.0,0.0,0.0,0.0,0.0,0.0,0.0,0.0,0.0,0.0,0.0,0.0,0.0,0.0,0.0,0.0,0.0,0.0,-1.9808,-2.0314,-2.2596,-2.3871,-2.4053,-2.3701,-2.3052,-2.2137,-2.1494,-2.0575,0.0,0.0,0.0,0.0,0.0,0.0,0.0,0.0,0.0,0.0,0.0,0.0,0.0,0.0,0.0,0.0,0.0,0.0,0.0,0.0,0.0,0.0,0.0,0.0,0.0,0.0,0.0,0.0,-1.9031,-1.9228,-1.966,0.0,0.0,0.0,0.0,0.0,0.0,0.0,0.0,0.0,0.0,-2.1969,-2.2795,-2.2899,-2.2927,-2.3137,-2.2438,-2.1858,-2.1784,-2.223,-2.212,-2.0793,0.0,0.0,0.0,0.0,0.0,0.0,0.0,0.0,0.0,0.0,0.0,0.0,0.0,0.0,0.0,0.0,0.0,0.0,0.0,0.0,0.0,0.0,0.0,0.0,0.0,0.0,0.0,-1.7988,0.0,0.0,-1.7787,0.0,0.0,0.0,0.0,0.0,0.0,0.0,0.0,0.0,0.0,0.0,0.0,0.0,0.0,0.0,0.0,0.0,0.0,0.0,0.0,0.0,0.0,-2.064,-2.1368,-2.3112,-2.4585,-2.5726,-2.4435,-2.3655,-2.3414,-2.238,-2.1442,-2.0699,0.0,0.0,0.0,0.0,0.0,0.0,0.0,0.0,0.0,0.0,0.0,0.0,0.0,0.0,0.0,0.0,0.0,0.0,0.0,0.0,0.0,0.0,0.0,0.0,0.0,0.0,-1.8892,-1.8713,-1.9001,0.0,0.0,0.0,0.0,0.0,0.0,0.0,0.0,0.0,-2.0504,-2.1843,-2.2646,-2.234,-2.2423,-2.2554,-2.2386,-2.1454,-2.0998,-2.1659,-2.2248,-2.2319,0.0,0.0,0.0,0.0,0.0,0.0,0.0,0.0,0.0,0.0,0.0,0.0,0.0,0.0,0.0,0.0,0.0,0.0,0.0,0.0,0.0,0.0,0.0,0.0,0.0,0.0,0.0,-1.9214,-1.914,0.0,0.0,0.0,0.0,0.0,0.0,0.0,0.0,0.0,0.0,0.0,-2.2045,-2.2335,0.0,0.0,0.0,0.0,0.0,0.0,0.0,0.0,0.0,0.0,0.0,0.0,-2.1237,-2.1548,-2.3563,-2.4869,-2.5301,-2.5077,-2.4703,-2.4191,-2.4056,-2.3305,-2.1891,0.0,0.0,0.0,0.0,0.0,0.0,0.0,0.0,0.0,0.0,0.0,0.0,0.0,0.0,0.0,0.0,0.0,0.0,0.0,0.0,0.0,0.0,0.0,0.0,0.0,-2.0543,0.0,0.0,0.0,0.0,0.0,0.0,0.0,0.0,0.0,0.0,0.0,-2.1966,-2.2181,-2.2923,-2.3616,-2.3998,-2.4014,-2.4171,0.0,0.0,0.0,0.0,0.0,0.0,0.0,0.0,0.0,0.0,0.0,0.0,0.0,0.0,-2.2823,-2.092,-2.114,-2.1734,-2.1965,0.0,0.0,0.0,0.0,0.0,0.0,0.0,0.0,0.0,0.0,0.0,0.0,0.0,0.0,-2.1242,0.0,-2.1122,0.0,0.0,0.0,0.0,0.0,0.0,0.0,0.0,-2.306,-2.3729,-2.388,-2.4427,-2.4403,0.0,-2.3513,-2.2528,0.0,0.0,0.0,0.0,0.0,0.0,0.0,0.0,-2.2461,-2.2596,-2.467,-2.5786,-2.5786,-2.5821,-2.546,-2.4743,-2.4972,-2.4413,-2.2998,-2.3012,-2.2513,0.0,0.0,0.0,0.0,0.0,0.0,0.0,0.0,0.0,0.0,0.0,0.0,0.0,0.0,0.0,0.0,0.0,0.0,0.0,0.0,0.0,0.0,0.0,-2.1237,0.0,0.0,0.0,0.0,0.0,0.0,0.0,0.0,0.0,-2.1545,-2.2339,-2.3127,-2.3487,-2.3813,-2.4222,-2.4761,0.0,0.0,0.0,0.0,0.0,0.0,0.0,-2.2682,-2.3099,-2.3385,-2.3887,-2.4938,-2.5394,-2.5696,-2.6015,0.0,0.0,-2.329,-2.3406,-2.3955,-2.4197,-2.4302,-2.443,-2.4668,-2.4879,-2.4932,0.0,0.0,0.0,0.0,0.0,0.0,0.0,0.0,-2.4053,-2.4,0.0,-2.3238,0.0,0.0,0.0,0.0,-2.117,-2.2311,0.0,0.0,-2.6003,-2.69,-2.632,-2.6947,-2.6932,-2.625,-2.5346,-2.4449,-2.349,-2.3052,0.0,0.0,0.0,0.0,0.0,0.0,-2.4301,-2.4491,-2.6299,-2.7263,-2.723,-2.6531,-2.5837,-2.5159,-2.516,-2.4829,-2.4116,-2.4421,-2.4314,-2.3547,-2.2511,0.0,0.0,0.0,0.0,0.0,0.0,0.0,0.0,0.0,0.0,0.0,0.0,0.0,0.0,0.0,0.0,0.0,0.0,0.0,0.0,-2.184,0.0,0.0,0.0,0.0,0.0,0.0,0.0,0.0,0.0,-2.2426,-2.2067,-2.2556,-2.3283,-2.4401,0.0,0.0,0.0,0.0,-2.4427,-2.3775,-2.3285,-2.3072,-2.3108,-2.4169,-2.5044,-2.5253,0.0,0.0,-2.6837,-2.6287,-2.6269,-2.6781,-2.7604,-2.7571,-2.615,-2.5873,-2.5856,-2.5828,-2.5914,-2.5691,-2.5342,-2.5864,-2.5945,-2.6608,0.0,0.0,0.0,0.0,-2.476,-2.5967,-2.7446,-2.6906,-2.6395,-2.5895,-2.5605,0.0,0.0,0.0,0.0,0.0,0.0,-2.4856,-2.5681,-2.6521,-2.7196,-2.7781,-2.7985,-2.7954,-2.776,-2.7487,-2.7334,-2.7194,-2.7088,-2.5163,-2.1628,0.0,0.0,0.0,0.0,-2.5203,-2.601,-2.6775,-2.7081,-2.6885,-2.6295,-2.5944,-2.5889,-2.5889,-2.5789,-2.559,-2.5667,-2.5242,-2.4207,-2.4137,0.0,0.0,0.0,0.0,0.0,0.0,0.0,0.0,0.0,0.0,0.0,0.0,0.0,0.0,0.0,0.0,0.0,0.0,0.0,-2.1802,-2.2595,-2.2699,0.0,0.0,0.0,0.0,0.0,0.0,0.0,0.0,0.0,-2.4495,-2.4498,-2.4641,0.0,0.0,-2.4921,-2.4956,-2.5417,-2.5845,-2.6178,-2.6122,0.0,-2.6162,-2.5844,-2.5922,-2.6872,-2.8331,-2.9438,-2.9833,-3.0157,-3.0482,-3.0644,-3.0878,-3.0711,-2.9822,-2.8938,-2.8345,-2.8156,-2.8464,-2.8779,-2.8715,-2.9142,-2.9304,-3.1151,-2.7761,-2.7054,-2.7013,-2.7474,-2.8249,-2.9442,-3.08,-3.0062,-2.9461,-2.9009,-2.8403,-2.7306,-2.5862,-2.5338,0.0,0.0,0.0,-2.713,-2.815,-2.8502,-2.9024,-2.9669,-2.9954,-2.984,-2.9428,-2.9357,-2.9214,-2.8996,-2.8602,-2.7002,-2.4256,0.0,0.0,-2.4643,-2.5929,-2.6966,-2.7703,-2.8189,-2.8169,-2.7699,-2.6828,-2.64,-2.6486,-2.6537,-2.6537,-2.6537,-2.6537,-2.6199,-2.5458,-2.5329,-2.4629,0.0,0.0,0.0,0.0,0.0,0.0,0.0,0.0,0.0,0.0,0.0,-2.1905,-2.152,0.0,0.0,0.0,-2.2515,-2.2581,-2.2765,-2.3112,0.0,0.0,0.0,0.0,0.0,0.0,0.0,-2.3816,-2.4894,-2.5826,-2.6233,-2.6151,-2.6125,-2.6369,-2.6154,-2.6071,-2.6369,0.0,-2.7267,-2.7719,-2.7786,-2.7807,-2.7955,-2.7869,-2.8246,-2.966,-3.069,-3.1512,-3.1985,-3.2442,-3.2814,-3.3034,-3.2933,-3.2594,-3.2138,-3.1284,-3.0442,-2.9985,-3.0226,-3.0475,-3.032,-3.0752,-3.092,-3.5611,-3.4091,-3.1489,-3.0797,-3.1459,-3.2194,-3.3099,-3.3972,-3.3292,-3.2911,-3.268,-3.1328,-3.0119,-2.9065,-2.8146,0.0,-2.8135,-2.8837,-2.9765,-3.0767,-3.143,-3.1765,-3.1817,-3.2474,-3.2176,-3.1117,-3.0929,-3.0364,-2.9521,-2.8664,-2.8203,-2.8152,-2.8152,-2.7794,-2.7181,-2.8389,-2.9227,-2.9572,-3.0118,-2.9999,-2.9108,-2.7809,-2.7057,-2.7006,-2.7006,-2.7006,-2.7006,-2.7006,-2.7006,-2.6971,-2.6131,-2.5579,-2.5511,0.0,0.0,0.0,0.0,0.0,0.0,0.0,0.0,0.0,0.0,0.0,0.0,0.0,0.0,-2.3523,-2.3687,0.0,-2.4313,-2.3727,0.0,0.0,0.0,-2.5172,-2.5905,-2.6813,-2.7264,-2.6893,0.0,0.0,-2.7551,-2.7557,-2.784,-2.8555,-2.7952,-2.7649,-2.8329,-2.8428,-2.8533,-2.8555,-2.8727,-2.8815,-2.8996,-2.9895,-3.1107,-3.2521,-3.3296,-3.3322,-3.3406,-3.3457,-3.3778,-3.4269,-3.388,-3.3322,-3.3322,-3.2544,-3.1968,-3.1241,-3.114,-3.1038,-3.069,-3.0902,-3.1095,-3.962,-3.8775,-3.8088,-3.6372,-3.4046,-3.4804,-3.5579,-3.6208,-3.5564,-3.4577,-3.3508,-3.3143,-3.2225,-3.0978,-3.1298,-3.1166,-3.0731,-3.1457,-3.2071,-3.2538,-3.2765,-3.299,-3.3255,-3.3432,-3.3083,-3.2239,-3.2173,-3.1863,-3.1267,-3.1077,-3.0785,-3.0434,-3.0417,-3.0076,-2.943,-2.9489,-3.0282,-3.1794,-3.1074,-2.992,-2.8425,-2.8032,-2.757,-2.7023,-2.7006,-2.7006,-2.7006,-2.7006,-2.7006,-2.7006,-2.677,-2.6396,-2.5851,-2.4852,0.0,0.0,0.0,0.0,0.0,0.0,0.0,0.0,0.0,-2.2698,-2.2032,0.0,-2.2938,0.0,-2.4503,-2.5573,-2.6262,-2.6143,0.0,0.0,-2.6522,-2.6605,-2.6794,-2.7513,-2.7877,-2.7537,-2.8185,-2.883,-2.9227,-2.9533,-2.9972,-3.0765,-2.9332,-2.8289,-2.8472,-2.8954,-2.9326,-2.9426,-3.0242,-3.0849,-3.052,-3.1251,-3.2276,-3.317,-3.3381,-3.3592,-3.4134,-3.4218,-3.4303,-3.4421,-3.3897,-3.3254,-3.2679,-3.1952,-3.1461,-3.1224,-3.119,-3.1151,-3.1055,-3.1095,-3.1168,-4.1193,-4.0812,-4.07,-3.942,-3.7553,-3.7518,-3.7698,-3.8046,-3.7272,-3.6518,-3.5744,-3.5431,-3.4521,-3.3384,-3.443,-3.4236,-3.3177,-3.4196,-3.4739,-3.4914,-3.4575,-3.4718,-3.5222,-3.4917,-3.4411,-3.3796,-3.3779,-3.3585,-3.3154,-3.3138,-3.3018,-3.2757,-3.2739,-3.272,-3.2617,-3.115,-3.1063,-3.2389,-3.1481,-3.0663,-3.0006,-2.8968,-2.8103,-2.7293,-2.6964,-2.6619,-2.6277,-2.6273,-2.6303,-2.6303,-2.6182,-2.5914,-2.5519,-2.4832,-2.4354,0.0,0.0,0.0,0.0,0.0,0.0,0.0,0.0,0.0,0.0,0.0,-2.4088,-2.4381,-2.5578,-2.6527,-2.7002,-2.7115,-2.733,-2.782,-2.8307,-2.8749,-2.9099,-2.9881,-3.0239,-2.9937,-3.0352,-3.0733,-3.0879,-3.1038,-3.1265,-3.1662,-3.0771,-3.0,-2.9825,-3.004,-3.0195,-3.0222,-3.1141,-3.2068,-3.2312,-3.29,-3.3525,-3.4148,-3.4361,-3.4539,-3.4912,-3.4996,-3.4895,-3.4539,-3.3914,-3.3186,-3.2466,-3.1698,-3.1207,-3.119,-3.119,-3.119,-3.119,-3.119,-3.119,-4.1754,-4.1699,-4.1376,-4.1182,-4.0894,-3.9974,-3.9568,-3.9382,-3.8758,-3.8427,-3.8284,-3.7569,-3.6716,-3.584,-3.7168,-3.6864,-3.5437,-3.6686,-3.725,-3.7261,-3.6593,-3.6637,-3.7178,-3.6526,-3.5872,-3.5359,-3.5364,-3.514,-3.4705,-3.4688,-3.4653,-3.4547,-3.453,-3.4881,-3.5335,-3.2827,-3.1827,-3.2494,-3.1811,-3.1739,-3.2178,-3.0021,-2.8443,-2.749,-2.6812,-2.6111,-2.5355,-2.5374,-2.5401,-2.5401,-2.5164,-2.5086,-2.519,-2.4854,-2.4479,0.0,-2.3961,0.0,0.0,0.0,0.0,0.0,0.0,0.0,0.0,-2.5957,-2.5756,-2.6203,-2.6842,-2.7356,-2.7612,-2.7736,-2.8171,-2.9162,-3.0158,-3.1034,-3.1734,-3.2519,-3.2866,-3.2555,-3.247,-3.2351,-3.2092,-3.2092,-3.2021,-3.195,-3.2022,-3.1864,-3.1531,-3.1266,-3.1106,-3.1196,-3.183,-3.294,-3.405,-3.4525,-3.4823,-3.5372,-3.5494,-3.5586,-3.5501,-3.5389,-3.5108,-3.4421,-3.3711,-3.3017,-3.2391,-3.1698,-3.1207,-3.119,-3.119,-3.119,-3.119,-3.119,-3.119,-4.3613,-4.3348,-4.3301,-4.2551,-4.1478,-4.1274,-4.0798,-4.0153,-4.0051,-3.9644,-3.9047,-3.835,-3.7938,-3.7792,-3.8065,-3.8008,-3.7661,-3.7934,-3.8236,-3.8486,-3.8347,-3.8104,-3.7918,-3.7743,-3.6998,-3.5732,-3.571,-3.5349,-3.4688,-3.4688,-3.4354,-3.3757,-3.3704,-3.3774,-3.3824,0.0,0.0,0.0,-3.3405,-3.2442,-3.1357,-2.9712,-2.8141,-2.6743,-2.5995,0.0,-2.5392,-2.5374,-2.5401,-2.5401,-2.5347,0.0,0.0,0.0,0.0,0.0,0.0,0.0,0.0,0.0,0.0,0.0,-2.7391,-2.6801,-2.6971,-2.6991,-2.7326,-2.8028,-2.8363,-2.905,-3.0307,-3.0462,-3.081,-3.1616,-3.1911,-3.2103,-3.2262,-3.2437,-3.2405,-3.2073,-3.2352,-3.2488,-3.2266,-3.2488,-3.2752,-3.2766,-3.2766,-3.2687,-3.2453,-3.2092,-3.2123,-3.273,-3.337,-3.4297,-3.5275,-3.5436,-3.5414,-3.568,-3.568,-3.5578,-3.5294,-3.4706,-3.4223,-3.3718,-3.3,-3.2534,-3.2313,-3.1698,-3.123,-3.119,-3.119,-3.119,-3.119,-3.119,-3.119,-4.447,-4.4365,-4.4147,-4.3459,0.0,-4.2244,-4.1734,-4.096,-4.0546,-4.0178,-3.9819,-3.946,-3.926,-3.9089,-3.9451,-3.933,-3.8807,-3.9215,-3.9477,-3.9634,-3.9225,-3.8933,-3.8679,-3.869,-3.7877,-3.6453,-3.6773,-3.6566,-3.5864,-3.5811,-3.5618,-3.5232,-3.5232,-3.5194,-3.5194,-3.5214,-3.5214,-3.5249,-3.4072,-3.3265,-3.2809,-3.062,-2.8854,-2.7665,-2.6538,0.0,0.0,0.0,0.0,0.0,0.0,0.0,0.0,-2.6114,0.0,-2.7447,-2.7078,-2.7344,-2.8551,-2.8627,-2.9147,-3.046,-3.0211,-2.9397,-2.8108,-2.8432,-2.9036,-2.9819,-2.9972,-3.0542,-3.1749,-3.1989,-3.2231,-3.2669,-3.282,-3.2902,-3.2902,-3.2902,-3.282,-3.2687,-3.2866,-3.293,-3.2816,-3.2961,-3.3104,-3.3117,-3.3135,-3.3073,-3.2912,-3.2519,-3.2511,-3.314,-3.3633,-3.4193,-3.4949,-3.5142,-3.5142,-3.5124,-3.5124,-3.5049,-3.4874,-3.454,-3.406,-3.3503,-3.2934,-3.2508,-3.2064,-3.1688,-3.1389,-3.1252,-3.1329,-3.1368,-3.1269,-3.119,-3.119,-4.5072,-4.5127,-4.4836,-4.4312,-4.3583,-4.3325,-4.2763,-4.1946,0.0,0.0,0.0,-4.0594,-4.0543,-4.0457,-4.0909,-4.0645,-3.9989,-4.0446,-4.0691,-4.0656,-4.0024,-3.9648,-3.9528,-3.9648,-3.8848,-3.7264,-3.797,-3.7865,-3.7005,-3.697,-3.697,-3.697,-3.697,-3.697,-3.7027,-3.7048,-3.677,-3.6083,-3.4495,-3.3932,-3.4389,-3.1564,-2.9688,-2.8837,-2.7514,-2.6462,-2.5757,-2.5778,-2.5805,-2.5805,-2.5823,-2.6174,-2.6946,-2.7016,-2.7403,-2.8245,-2.8315,-2.8978,-3.0419,-3.0542,-3.1054,-3.2318,-3.263,-3.1835,-2.9667,-3.0138,-3.0771,-3.137,-3.1405,-3.1735,-3.2486,-3.2722,-3.2852,-3.2961,-3.3135,-3.3214,-3.3214,-3.3214,-3.3152,-3.3232,-3.3214,-3.3274,-3.3196,-3.3304,-3.3334,-3.3147,-3.3226,-3.3304,-3.3135,-3.2991,-3.3064,-3.3476,-3.3882,-3.4147,-3.4376,-3.4764,-3.4658,-3.4641,-3.457,-3.4498,-3.4445,-3.4285,-3.3951,-3.3265,-3.2978,-3.2553,-3.1942,-3.1841,-3.1714,-3.1466,-3.16,-3.1714,-3.1449,-3.1329,-3.1291,-4.5684,-4.5988,-4.595,-4.5527,-4.4826,-4.4834,-4.4325,-4.3483,-4.2076,-4.1453,-4.1453,-4.1453,-4.1768,-4.2339,-4.1778,-4.1823,-4.2271,-4.171,-4.1446,-4.1446,-4.1341,-4.0937,-4.0412,-4.0972,-4.0096,-3.8098,-3.8748,-3.8392,-3.711,-3.6987,-3.697,-3.697,-3.697,-3.6987,-3.7009,-3.7281,-3.7379,-3.7236,-3.5324,-3.4121,-3.3561,-3.1199,-2.9572,-2.8819,-2.8005,-2.7508,-2.7385,-2.7385,-2.7368,-2.7385,-2.7368,-2.7736,-2.8526,-2.8579,-2.9211,-3.0562,-3.0703,-3.1155,-3.2133,-3.2122,-3.2177,-3.2406,-3.3002,-3.2932,-3.2019,-3.2102,-3.2241,-3.2264,-3.2195,-3.2265,-3.2422,-3.2457,-3.2525,-3.2525,-3.2525,-3.2558,-3.2592,-3.2592,-3.2626,-3.2626,-3.2787,-3.2916,-3.2866,-3.3135,-3.3334,-3.3165,-3.3178,-3.3147,-3.3237,-3.379,-3.4235,-3.4488,-3.5029,-3.5155,-3.4713,-3.5191,-3.5109,-3.4686,-3.4515,-3.4401,-3.4118,-3.3606,-3.3131,-3.2596,-3.2529,-3.2371,-3.2196,-3.2196,-3.2179,-3.2074,-3.2127,-3.2179,-3.2074,-3.1841,-3.1545,-4.6023,-4.6189,-4.6189,-4.5782,-4.508,-4.4641,-4.4255,-4.3851,-4.3149,-4.2851,-4.2851,-4.2826,-4.2826,-4.2816,-4.2833,-4.257,-4.2148,-4.2219,-4.2026,-4.1622,-4.1604,-4.1428,-4.1188,-4.1883,-4.1463,-4.0079,-4.0359,-3.9761,-3.8322,-3.7812,-3.7374,-3.7005,-3.697,-3.7337,-3.7957,-3.8146,-3.8509,-3.9032,-3.6486,-3.4989,-3.4615,-3.2349,-3.0987,-3.063,-2.9901,-2.9472,-2.95,-2.95,-2.95,-2.95,-2.9318,-2.9556,-3.0371,-3.0237,-3.073,-3.1998,-3.2024,-3.2249,-3.289,-3.308,-3.3301,-3.3599,-3.4023,-3.4076,-3.367,-3.3301,-3.3055,-3.3002,-3.2651,-3.2422,-3.2507,-3.2489,-3.2541,-3.2674,-3.2674,-3.2674,-3.2674,-3.2657,-3.2674,-3.2657,-3.2805,-3.2866,-3.2848,-3.3104,-3.3256,-3.3256,-3.3256,-3.3274,-3.3274,-3.3623,-3.3973,-3.3973,-3.4262,-3.4317,-3.4045,-3.4226,-3.4298,-3.3991,-3.3954,-3.3858,-3.3687,-3.3309,-3.3091,-3.2912,-3.2716,-3.2568,-3.2568,-3.2568,-3.2502,-3.2334,-3.2468,-3.2502,-3.2351,-3.2144,-3.1841,-4.6189,-4.6189,-4.6189,-4.5888,-4.5291,-4.4694,-4.4413,-4.4413,-4.4431,-4.4431,-4.4378,-4.4044,-4.3658,-4.3395,-4.3746,-4.3342,-4.2535,-4.2675,-4.2464,-4.192,-4.1692,-4.169,-4.1922,-4.2671,-4.2619,-4.1985,-4.2006,-4.1253,-3.9673,-3.8936,-3.8332,-3.7708,-3.7754,-3.8267,-3.9137,-3.9265,-3.9734,-4.0395,-3.7877,-3.6375,-3.6177,-3.3948,-3.2716,-3.2661,-3.1964,-3.1529,-3.1511,-3.1511,-3.1511,-3.1529,-3.1286,-3.1416,-3.1977,-3.1813,-3.208,-3.288,-3.2862,-3.2965,-3.3485,-3.3813,-3.4298,-3.4942,-3.5013,-3.503,-3.4854,-3.4076,-3.3635,-3.3688,-3.3283,-3.2949,-3.2858,-3.2873,-3.2885,-3.2855,-3.2866,-3.2884,-3.2916,-3.2916,-3.2916,-3.2916,-3.2948,-3.2979,-3.3055,-3.3117,-3.3226,-3.3286,-3.3364,-3.3393,-3.3364,-3.3364,-3.3393,-3.3393,-3.3393,-3.3465,-3.3393,-3.3429,-3.3465,-3.3393,-3.3411,-3.3465,-3.3418,-3.3411,-3.3393,-3.3334,-3.3147,-3.2957,-3.2957,-3.2957,-3.2862,-3.2684,-3.2798,-3.283,-3.2502,-3.2435,-3.2196,-4.6189,-4.6189,-4.6189,-4.6186,-4.6032,-4.601,-4.594,-4.5958,-4.601,-4.601,-4.5817,-4.4527,-4.4279,-4.4716,-4.422,-4.4185,-4.4501,-4.3412,-4.2798,-4.2622,-4.1938,-4.1981,-4.277,-4.3465,-4.343,-4.291,-4.3377,-4.2535,-4.0629,-4.0338,-4.0064,-3.9715,-3.9967,-4.0185,-4.0382,-4.0623,-4.0859,-4.0946,-3.952,-3.8479,-3.7766,-3.5525,-3.428,-3.4262,-3.3502,-3.3103,-3.3024,-3.3085,-3.3067,-3.3103,-3.302,-3.3045,-3.3135,-3.3105,-3.316,-3.3291,-3.328,-3.3592,-3.4382,-3.4568,-3.5041,-3.5751,-3.5702,-3.5609,-3.554,-3.4494,-3.4023,-3.4481,-3.4566,-3.3968,-3.3547,-3.3511,-3.3278,-3.271,-3.2787,-3.2916,-3.292,-3.2916,-3.2916,-3.2916,-3.3051,-3.3042,-3.3082,-3.3201,-3.3304,-3.3196,-3.3334,-3.3364,-3.3226,-3.3304,-3.3393,-3.3393,-3.3393,-3.3393,-3.3393,-3.3393,-3.3393,-3.3393,-3.3393,-3.3393,-3.3393,-3.3393,-3.3393,-3.3393,-3.3364,-3.3286,-3.3286,-3.3316,-3.3286,-3.3178,-3.3178,-3.3226,-3.2876,-3.2763,-3.2568,-4.6189,-4.6189,-4.6189,-4.6189,-4.6189,-4.6189,-4.635,-4.6554,-4.6319,-4.6507,-4.691,-4.6043,-4.5468,-4.5115,-4.5203,-4.4975,-4.4395,-4.4237,-4.4071,-4.3802,-4.2793,-4.3092,-4.4458,-4.4078,-4.4167,-4.4716,-4.4711,-4.4008,-4.2906,-4.1792,-4.1384,-4.1538,-4.051,-4.0613,-4.2043,-4.1409,-4.1572,-4.2704,-4.179,-4.1137,-4.0462,-3.708,-3.5082,-3.499,-3.4273,-3.3831,-3.3831,-3.3831,-3.3831,-3.3823,-3.3689,-3.3625,-3.3634,-3.3494,-3.3723,-3.4412,-3.5081,-3.5616,-3.6186,-3.6271,-3.6589,-3.732,-3.728,-3.7185,-3.7185,-3.6681,-3.6514,-3.6448,-3.4729,-3.3213,-3.3054,-3.3068,-3.2926,-3.2594,-3.2623,-3.2867,-3.3244,-3.2922,-3.3039,-3.3892,-3.3455,-3.3208,-3.3557,-3.3514,-3.34,-3.3304,-3.3382,-3.3364,-3.3286,-3.3364,-3.3393,-3.3393,-3.3393,-3.3393,-3.3393,-3.3393,-3.3393,-3.3393,-3.3393,-3.3393,-3.3393,-3.3393,-3.3393,-3.3393,-3.3393,-3.3393,-3.3364,-3.3393,-3.3393,-3.3393,-3.3393,-3.3334,-3.316,-3.3178,-3.3068,-4.6189,-4.6189,-4.6189,-4.6253,-4.6398,-4.6398,-4.6649,-4.7026,-4.6742,-4.6981,-4.7536,-4.7229,-4.6603,-4.5968,-4.6371,-4.5946,-4.5042,-4.5308,-4.533,-4.5011,-4.3978,-4.4377,-4.5763,-4.5045,-4.529,-4.6336,-4.6035,-4.5436,-4.4713,-4.3609,-4.296,-4.2868,-4.1645,-4.1742,-4.3004,-4.2193,-4.2414,-4.3454,-4.3058,-4.2705,-4.1962,-3.8544,-3.637,-3.6073,-3.4866,-3.4309,-3.455,-3.4574,-3.4686,-3.4909,-3.4759,-3.4663,-3.4715,-3.4494,-3.487,-3.5955,-3.6777,-3.7415,-3.7941,-3.7997,-3.819,-3.8559,-3.8407,-3.8212,-3.8163,-3.7857,-3.7703,-3.7466,-3.5091,-3.3586,-3.3594,-3.3695,-3.3646,-3.3511,-3.342,-3.3613,-3.4357,-3.4017,-3.4262,-3.5205,-3.4569,-3.3701,-3.3916,-3.3659,-3.3393,-3.3393,-3.3393,-3.3393,-3.3393,-3.3393,-3.3393,-3.3393,-3.3393,-3.3393,-3.3393,-3.3393,-3.3393,-3.3393,-3.3393,-3.3393,-3.3393,-3.3393,-3.3393,-3.3393,-3.3393,-3.3393,-3.3393,-3.3393,-3.3393,-3.3393,-3.3393,-3.3393,-3.3345,-3.3393,-3.3393,-4.6189,-4.6239,-4.6221,-4.6459,-4.6863,-4.6863,-4.7115,-4.7567,-4.7506,-4.7548,-4.7647,-4.7573,-4.7535,-4.7422,-4.7494,-4.7494,-4.7271,-4.6615,-4.6349,-4.6269,-4.5504,-4.5599,-4.6341,-4.6318,-4.6675,-4.7367,-4.7331,-4.6615,-4.5363,-4.5479,-4.4892,-4.3552,-4.4169,-4.4109,-4.3287,-4.3423,-4.3472,-4.2965,-4.2835,-4.2445,-4.1571,-3.9844,-3.8432,-3.7596,-3.5497,-3.468,-3.5337,-3.5516,-3.5876,-3.664,-3.6615,-3.6659,-3.6721,-3.6715,-3.7088,-3.786,-3.8097,-3.854,-3.9245,-3.9401,-3.9464,-3.9389,-3.8667,-3.8066,-3.8125,-3.7368,-3.6924,-3.6676,-3.6347,-3.595,-3.6088,-3.6062,-3.6119,-3.5987,-3.5507,-3.5713,-3.6663,-3.6474,-3.66,-3.6826,-3.6298,-3.525,-3.3834,-3.3447,-3.3484,-3.3429,-3.3393,-3.3393,-3.3393,-3.3393,-3.3393,-3.3393,-3.3393,-3.3393,-3.3393,-3.3393,-3.3393,-3.3393,-3.3393,-3.3393,-3.3393,-3.3393,-3.3393,-3.3393,-3.3393,-3.3393,-3.3393,-3.3393,-3.3393,-3.3393,-3.3393,-3.3393,-3.3393,-3.3393,-3.3393,-4.6839,-4.6695,-4.6999,-4.7204,-4.7335,-4.7317,-4.7591,-4.7977,-4.7733,-4.7919,-4.8329,-4.8159,-4.8197,-4.844,-4.8421,-4.8117,-4.7614,-4.7283,-4.7339,-4.7466,-4.6503,-4.6575,-4.7487,-4.6812,-4.6812,-4.75,-4.7591,-4.7502,-4.7161,-4.6597,-4.6289,-4.5827,-4.4424,-4.3819,-4.4153,-4.3596,-4.3058,-4.2816,-4.2779,-4.2407,-4.1553,-3.9955,-3.8952,-3.8618,-3.6798,-3.5943,-3.624,-3.6335,-3.6509,-3.6789,-3.6864,-3.6919,-3.7055,-3.8021,-3.9002,-3.9764,-4.0333,-4.054,-4.0359,-4.0365,-4.014,-3.9614,-3.9264,-3.8989,-3.8945,-3.86,-3.8335,-3.8335,-3.8308,-3.8229,-3.7857,-3.7528,-3.7137,-3.698,-3.7249,-3.7717,-3.8328,-3.8287,-3.8323,-3.8943,-3.8604,-3.7305,-3.5507,-3.4932,-3.4534,-3.361,-3.3393,-3.3393,-3.3393,-3.3393,-3.3447,-3.3393,-3.3393,-3.3393,-3.3393,-3.3393,-3.3393,-3.3393,-3.3393,-3.3393,-3.3393,-3.3393,-3.3393,-3.3393,-3.3393,-3.3393,-3.3393,-3.3393,-3.3393,-3.3393,-3.3393,-3.3393,-3.3393,-3.3393,-3.3393,-4.7298,-4.7196,-4.7464,-4.7692,-4.7816,-4.7816,-4.8056,-4.8439,-4.8174,-4.8365,-4.8783,-4.8595,-4.8651,-4.8872,-4.889,-4.8623,-4.8096,-4.8038,-4.8174,-4.8402,-4.7606,-4.7642,-4.8236,-4.7606,-4.7508,-4.7983,-4.7999,-4.7954,-4.7739,-4.7416,-4.7181,-4.6698,-4.4854,-4.411,-4.4302,-4.3639,-4.3185,-4.2951,-4.3118,-4.2794,-4.1696,-4.0579,-3.9704,-3.9127,-3.8141,-3.7407,-3.7166,-3.7205,-3.7424,-3.7648,-3.7985,-3.8297,-3.8721,-3.9721,-4.0741,-4.1529,-4.183,-4.1792,-4.1248,-4.0947,-4.044,-3.9714,-3.962,-3.962,-3.9577,-3.9571,-3.9546,-3.9558,-3.982,-3.9773,-3.9565,-3.9398,-3.9106,-3.8652,-3.9001,-3.9675,-4.0377,-4.011,-4.0157,-4.0463,-3.9995,-3.8634,-3.6906,-3.6188,-3.5302,-3.4036,-3.3633,-3.3393,-3.3393,-3.3665,-3.3791,-3.3791,-3.3846,-3.4045,-3.4045,-3.3954,-3.352,-3.3411,-3.3393,-3.3393,-3.3393,-3.3393,-3.3393,-3.3393,-3.3393,-3.3393,-3.3393,-3.3393,-3.3393,-3.3393,-3.3393,-3.3393,-3.3393,-3.3393,-3.3393,-4.7645,-4.7687,-4.7632,-4.7937,-4.8249,-4.8306,-4.8532,-4.882,-4.882,-4.882,-4.889,-4.8872,-4.8872,-4.889,-4.889,-4.8927,-4.8946,-4.882,-4.882,-4.8855,-4.8746,-4.8746,-4.8837,-4.8711,-4.8655,-4.8785,-4.8855,-4.8094,-4.7033,-4.7924,-4.7553,-4.5932,-4.6071,-4.5047,-4.2976,-4.3767,-4.377,-4.3226,-4.3629,-4.3314,-4.2006,-4.153,-4.0746,-3.956,-3.9242,-3.8824,-3.8037,-3.8128,-3.8515,-3.9327,-4.0127,-4.1098,-4.156,-4.1886,-4.2355,-4.2825,-4.2487,-4.2074,-4.183,-4.1191,-4.044,-3.9771,-3.962,-3.962,-3.962,-3.9577,-3.9577,-3.9671,-4.0159,-4.0621,-4.084,-4.1796,-4.2146,-4.1291,-4.0937,-4.1374,-4.211,-4.2304,-4.2014,-4.1501,-4.0874,-3.9568,-3.8098,-3.7308,-3.6428,-3.5198,-3.4389,-3.3855,-3.3818,-3.4273,-3.4594,-3.4667,-3.4697,-3.4872,-3.4776,-3.457,-3.3966,-3.3477,-3.3411,-3.3393,-3.3393,-3.3393,-3.3393,-3.3393,-3.3393,-3.3393,-3.3393,-3.3393,-3.3393,-3.3393,-3.3393,-3.3393,-3.3393,-3.3393,-3.3393,-4.8897,-4.8864,-4.8604,-4.8587,-4.8714,-4.8714,-4.8804,-4.8909,-4.889,-4.889,-4.889,-4.889,-4.889,-4.889,-4.889,-4.8962,-4.9101,-4.9049,-4.9064,-4.9079,-4.8978,-4.8943,-4.8996,-4.8943,-4.8962,-4.8996,-4.8943,-4.8754,-4.8371,-4.8226,-4.7429,-4.647,-4.5998,-4.5158,-4.3927,-4.4136,-4.3855,-4.3098,-4.3258,-4.2604,-4.1128,-4.0998,-4.0456,-3.9548,-3.9444,-3.9294,-3.907,-3.9058,-3.9214,-3.9514,-4.034,-4.1417,-4.2581,-4.29,-4.3031,-4.3219,-4.3088,-4.2299,-4.1304,-4.0947,-4.0422,-3.9783,-3.962,-3.962,-3.962,-3.962,-3.962,-3.962,-3.984,-4.014,-4.0854,-4.1736,-4.2342,-4.2557,-4.3003,-4.329,-4.361,-4.3527,-4.3466,-4.3262,-4.2841,-4.1896,-4.0584,-3.9674,-3.8538,-3.6565,-3.6113,-3.5891,-3.5064,-3.5312,-3.5864,-3.5901,-3.5852,-3.5762,-3.593,-3.5572,-3.4783,-3.4124,-3.3829,-3.3441,-3.3393,-3.3393,-3.3393,-3.3393,-3.3393,-3.3422,-3.3422,-3.3422,-3.3433,-3.3422,-3.3422,-3.3422,-3.3393,-3.3393,-3.3393,-4.9841,-4.9325,-4.9323,-4.9169,-4.8909,-4.889,-4.889,-4.8909,-4.8964,-4.8946,-4.8927,-4.8946,-4.898,-4.898,-4.898,-4.9064,-4.915,-4.915,-4.9216,-4.9262,-4.9113,-4.9064,-4.9116,-4.9049,-4.8826,-4.8781,-4.89,-4.8897,-4.873,-4.8474,-4.7919,-4.7199,-4.6707,-4.5884,-4.4894,-4.4755,-4.4391,-4.3633,-4.3568,-4.2932,-4.1809,-4.1285,-4.0742,-4.0038,-3.9689,-3.9564,-3.9546,-3.9546,-3.9546,-3.9733,-4.0584,-4.2036,-4.352,-4.3745,-4.3764,-4.3651,-4.3106,-4.2318,-4.1342,-4.0703,-4.0159,-3.9714,-3.962,-3.962,-3.962,-3.962,-3.962,-3.962,-3.9915,-4.0234,-4.0797,-4.1548,-4.2243,-4.275,-4.3755,-4.4421,-4.4412,-4.3774,-4.3529,-4.3397,-4.3234,-4.2586,-4.188,-4.1393,-4.0566,-3.8526,-3.7803,-3.7526,-3.6426,-3.6297,-3.6527,-3.6592,-3.6408,-3.6619,-3.7183,-3.6592,-3.5643,-3.4944,-3.4347,-3.3793,-3.3422,-3.3393,-3.3393,-3.3393,-3.3393,-3.3491,-3.3491,-3.352,-3.3549,-3.352,-3.3509,-3.3481,-3.3481,-3.3393,-3.3393,-5.0469,-4.9187,-4.9745,-4.9522,-4.8927,-4.889,-4.889,-4.8927,-4.902,-4.9036,-4.898,-4.9052,-4.9089,-4.912,-4.9101,-4.9164,-4.9276,-4.9211,-4.9295,-4.9377,-4.9295,-4.923,-4.9164,-4.9116,-4.8833,-4.8469,-4.8851,-4.8777,-4.8458,-4.8819,-4.88,-4.7991,-4.7816,-4.7236,-4.5877,-4.5677,-4.5237,-4.4561,-4.4421,-4.3942,-4.3144,-4.246,-4.1597,-4.0778,-4.0103,-3.969,-3.9596,-3.9708,-3.9765,-3.9934,-4.1323,-4.2806,-4.4139,-4.4496,-4.4421,-4.4195,-4.2854,-4.2141,-4.1623,-4.0497,-3.9695,-3.9639,-3.962,-3.962,-3.962,-3.962,-3.962,-3.9658,-4.0253,-4.0741,-4.0929,-4.1529,-4.1999,-4.2179,-4.3248,-4.4045,-4.4252,-4.3042,-4.2696,-4.3061,-4.261,-4.2141,-4.2275,-4.2165,-4.1493,-4.03,-3.8961,-3.8219,-3.7302,-3.6957,-3.6924,-3.6887,-3.6822,-3.7256,-3.7764,-3.7423,-3.649,-3.5771,-3.5036,-3.4248,-3.366,-3.3549,-3.3549,-3.352,-3.3481,-3.3549,-3.3643,-3.368,-3.3707,-3.3726,-3.3671,-3.3605,-3.3577,-3.3577,-3.3491,-5.1138,-5.0655,-4.9652,-4.9094,-4.8909,-4.889,-4.8943,-4.9033,-4.9092,-4.9105,-4.9116,-4.9131,-4.9202,-4.9164,-4.9164,-4.9211,-4.9276,-4.9308,-4.9358,-4.9478,-4.9459,-4.9345,-4.923,-4.9197,-4.9118,-4.8945,-4.908,-4.9169,-4.9127,-4.9214,-4.8896,-4.8171,-4.8209,-4.7684,-4.669,-4.6025,-4.5622,-4.5293,-4.4731,-4.4139,-4.3426,-4.3088,-4.2224,-4.091,-4.0609,-4.0178,-3.9771,-4.0178,-4.0797,-4.1398,-4.2374,-4.3388,-4.4383,-4.4496,-4.4271,-4.3595,-4.2675,-4.1691,-4.1079,-4.0178,-3.9658,-3.962,-3.962,-3.962,-3.962,-3.962,-3.962,-3.9752,-4.0309,-4.0797,-4.0929,-4.1473,-4.1886,-4.2029,-4.2431,-4.2919,-4.3294,-4.275,-4.2355,-4.3069,-4.2956,-4.3013,-4.3267,-4.3371,-4.2762,-4.118,-4.0087,-3.9212,-3.804,-3.7075,-3.6858,-3.72,-3.7312,-3.7797,-3.8051,-3.7851,-3.7352,-3.6626,-3.5769,-3.4777,-3.4223,-3.3842,-3.3842,-3.386,-3.3762,-3.3808,-3.385,-3.3899,-3.391,-3.3921,-3.3895,-3.3868,-3.3868,-3.3868,-3.3753,-5.1546,-5.0839,-4.9889,-4.9294,-4.903,-4.9012,-4.9064,-4.9135,-4.9191,-4.9172,-4.9179,-4.9239,-4.9257,-4.9244,-4.9225,-4.9295,-4.9358,-4.939,-4.944,-4.949,-4.949,-4.9427,-4.9345,-4.9276,-4.9276,-4.9358,-4.9276,-4.9327,-4.944,-4.9409,-4.914,-4.887,-4.8758,-4.8307,-4.75,-4.6692,-4.6054,-4.5641,-4.4928,-4.4252,-4.3839,-4.3444,-4.2881,-4.1886,-4.1529,-4.0929,-4.0309,-4.0572,-4.1173,-4.198,-4.2825,-4.367,-4.4402,-4.4496,-4.4139,-4.3332,-4.2487,-4.1642,-4.0854,-4.0046,-3.9658,-3.962,-3.962,-3.962,-3.962,-3.962,-3.9677,-4.0159,-4.0553,-4.0741,-4.0797,-4.0966,-4.1154,-4.136,-4.121,-4.1511,-4.26,-4.1999,-4.1792,-4.2093,-4.228,-4.2374,-4.2975,-4.3257,-4.275,-4.1578,-4.0546,-3.9571,-3.852,-3.7493,-3.6723,-3.6921,-3.7084,-3.7323,-3.7879,-3.7904,-3.7486,-3.6833,-3.5781,-3.4907,-3.4525,-3.4074,-3.4023,-3.4016,-3.402,-3.402,-3.4099,-3.4117,-3.4136,-3.4148,-3.4124,-3.4099,-3.4055,-3.4099,-3.3972,-5.1693,-5.0405,-5.0256,-4.9821,-4.9235,-4.9179,-4.9197,-4.923,-4.9253,-4.9286,-4.9262,-4.9315,-4.9334,-4.934,-4.9308,-4.939,-4.9509,-4.949,-4.949,-4.9509,-4.9509,-4.949,-4.9459,-4.9377,-4.939,-4.944,-4.9358,-4.9409,-4.9459,-4.949,-4.949,-4.9377,-4.9415,-4.9096,-4.8326,-4.7556,-4.6749,-4.611,-4.5247,-4.4777,-4.4496,-4.397,-4.3369,-4.2956,-4.1961,-4.1473,-4.1004,-4.0929,-4.1191,-4.198,-4.2825,-4.367,-4.4346,-4.4477,-4.4026,-4.3238,-4.2355,-4.1454,-4.0835,-4.0065,-3.962,-3.962,-3.962,-3.9695,-3.9789,-3.9877,-4.014,-4.0872,-4.0929,-4.0966,-4.0741,-4.0234,-4.0328,-4.0741,-4.0253,-4.0572,-4.1304,-4.1173,-4.0685,-4.0797,-4.0854,-4.0816,-4.1098,-4.1473,-4.1935,-4.136,-4.0365,-3.9126,-3.7981,-3.6779,-3.6291,-3.6348,-3.6479,-3.6554,-3.7244,-3.7938,-3.7427,-3.6808,-3.5529,-3.4678,-3.4498,-3.4197,-3.4124,-3.4117,-3.4228,-3.4277,-3.4311,-3.434,-3.434,-3.434,-3.4316,-3.4245,-3.4154,-3.4221,-3.4173,-5.1612,-5.1218,-4.9967,-4.9365,-4.9197,-4.9197,-4.9262,-4.9295,-4.9319,-4.9351,-4.9427,-4.9471,-4.9471,-4.944,-4.944,-4.9459,-4.9509,-4.9509,-4.9509,-4.9509,-4.9509,-4.9509,-4.9509,-4.9459,-4.9459,-4.949,-4.949,-4.9459,-4.949,-4.9509,-4.9509,-4.9509,-4.949,-4.9396,-4.9096,-4.8269,-4.7875,-4.7406,-4.6204,-4.5491,-4.5303,-4.4665,-4.397,-4.3351,-4.1999,-4.1473,-4.1567,-4.1135,-4.1229,-4.1999,-4.2787,-4.3557,-4.4139,-4.3914,-4.3501,-4.2994,-4.1886,-4.1004,-4.0703,-4.0046,-3.962,-3.962,-3.9714,-3.9858,-4.0497,-4.0516,-4.091,-4.1548,-4.171,-4.1436,-4.0966,-4.0685,-4.0685,-4.0778,-4.0666,-4.0609,-4.0854,-4.0365,-4.0196,-4.0572,-4.076,-4.1022,-4.1567,-4.1567,-4.1548,-4.0985,-3.9858,-3.8507,-3.7343,-3.6197,-3.5841,-3.5784,-3.5822,-3.5953,-3.6535,-3.7155,-3.6986,-3.6539,-3.5431,-3.4663,-3.4473,-3.4409,-3.4386,-3.4409,-3.4514,-3.4536,-3.4473,-3.4517,-3.4517,-3.4517,-3.4536,-3.445,-3.4386,-3.4427,-3.4381,-5.2239,-5.2124,-5.0927,-5.0212,-4.9926,-4.9907,-4.9714,-4.9433,-4.9396,-4.9446,-4.949,-4.9509,-4.9509,-4.9509,-4.9509,-4.9509,-4.9509,-4.9509,-4.9509,-4.9509,-4.9509,-4.9509,-4.9509,-4.9509,-4.9509,-4.9509,-4.9509,-4.9509,-4.9509,-4.9509,-4.9509,-4.9509,-4.9509,-4.949,-4.9377,-4.8645,-4.8194,-4.7932,-4.6993,-4.6317,-4.6204,-4.551,-4.4684,-4.3857,-4.2675,-4.2224,-4.2506,-4.1417,-4.136,-4.1905,-4.2468,-4.3088,-4.3726,-4.3538,-4.3163,-4.2524,-4.1586,-4.0609,-4.0215,-3.9877,-3.962,-3.9639,-3.9896,-4.0084,-4.0516,-4.0835,-4.1511,-4.1886,-4.1935,-4.1766,-4.1436,-4.1379,-4.1379,-4.1285,-4.1004,-4.0816,-4.0685,-4.0084,-3.9733,-4.014,-4.0196,-4.0384,-4.0722,-4.1116,-4.0854,-4.0184,-3.9408,-3.8131,-3.738,-3.6291,-3.5409,-3.5202,-3.5202,-3.5409,-3.5878,-3.6254,-3.6385,-3.5976,-3.5362,-3.4856,-3.4666,-3.4668,-3.4689,-3.4668,-3.4626,-3.4602,-3.458,-3.4623,-3.4666,-3.4623,-3.4602,-3.4623,-3.4623,-3.4517,-3.4495,-5.2981,-5.2975,-5.2151,-5.1378,-5.0748,-5.0654,-5.0203,-4.9565,-4.9509,-4.9509,-4.9509,-4.9509,-4.9509,-4.9509,-4.9509,-4.9509,-4.9509,-4.9509,-4.9509,-4.9509,-4.9509,-4.9509,-4.9509,-4.9509,-4.9509,-4.9509,-4.9509,-4.9509,-4.9509,-4.9509,-4.9509,-4.9509,-4.9509,-4.9509,-4.9302,-4.8852,-4.8495,-4.8401,-4.7669,-4.7162,-4.6955,-4.6186,-4.5209,-4.4383,-4.3557,-4.3219,-4.2994,-4.1942,-4.1173,-4.1924,-4.1905,-4.2243,-4.2712,-4.3031,-4.2731,-4.1841,-4.0985,-4.0328,-3.9883,-3.9658,-3.962,-3.9658,-4.014,-4.044,-4.044,-4.1261,-4.2102,-4.2415,-4.2535,-4.2196,-4.1938,-4.2093,-4.2074,-4.1905,-4.1342,-4.1004,-4.0685,-4.0084,-3.9733,-3.9695,-4.0027,-4.0347,-4.0121,-4.0178,-3.9808,-3.9376,-3.8643,-3.7892,-3.7122,-3.6318,-3.5399,-3.4934,-3.4992,-3.5011,-3.5445,-3.5614,-3.5706,-3.5593,-3.5126,-3.4996,-3.481,-3.4791,-3.4791,-3.4711,-3.4689,-3.4668,-3.4708,-3.4749,-3.4749,-3.4687,-3.4666,-3.4727,-3.4666,-3.4623,-3.4604,-5.3155,-5.3113,-5.2236,-5.1442,-5.0748,-5.0691,-5.0278,-4.9584,-4.9509,-4.9509,-4.9509,-4.9509,-4.9509,-4.9509,-4.9509,-4.9509,-4.9509,-4.9509,-4.9509,-4.9509,-4.9509,-4.9509,-4.9509,-4.9509,-4.9509,-4.9509,-4.9509,-4.9509,-4.9509,-4.9509,-4.9509,-4.9509,-4.9509,-4.9509,-4.9471,-4.9321,-4.9152,-4.902,-4.8401,-4.8025,-4.7706,-4.6599,-4.5435,-4.4646,-4.3876,-4.3745,-4.3651,-4.2168,-4.1173,-4.1849,-4.136,-4.1191,-4.1398,-4.1905,-4.1792,-4.1154,-4.0365,-3.9846,-3.9658,-3.962,-3.962,-3.9639,-3.984,-4.0616,-4.1243,-4.2033,-4.2767,-4.3515,-4.3421,-4.2858,-4.1434,-4.2329,-4.2589,-4.2243,-4.1825,-4.1468,-4.0829,-4.0196,-3.9693,-3.9698,-4.0064,-4.0391,-4.0215,-3.9976,-3.9755,-3.9303,-3.8512,-3.7728,-3.6923,-3.6073,-3.5186,-3.4924,-3.4907,-3.4926,-3.504,-3.5077,-3.5153,-3.5228,-3.5001,-3.5021,-3.4889,-3.4889,-3.487,-3.4851,-3.4812,-3.4831,-3.485,-3.4869,-3.485,-3.4811,-3.479,-3.4788,-3.4749,-3.4728,-3.4689,-5.3808,-5.377,-5.3376,-5.2456,-5.1442,-5.1311,-5.0616,-4.9584,-4.9509,-4.9509,-4.9509,-4.9509,-4.9509,-4.9509,-4.9509,-4.9509,-4.9509,-4.9509,-4.9509,-4.9509,-4.9509,-4.9509,-4.9509,-4.9509,-4.9509,-4.9509,-4.9509,-4.9509,-4.9509,-4.9509,-4.9509,-4.9509,-4.9509,-4.9509,-4.949,-4.9471,-4.9509,-4.9358,-4.9077,-4.8852,-4.8701,-4.7199,-4.6017,-4.5134,-4.4383,-4.4195,-4.4064,-4.3144,-4.2055,-4.1935,-4.1661,-4.1004,-4.0685,-4.0816,-4.121,-4.0722,-4.0046,-3.962,-3.962,-3.962,-3.962,-3.9677,-3.994,-4.0559,-4.1523,-4.2347,-4.3263,-4.3596,-4.4494,-4.3754,-4.221,-4.2974,-4.327,-4.2943,-4.2261,-4.1563,-4.1051,-4.0328,-4.0041,-3.9864,-3.9947,-4.0245,-4.0646,-4.0325,-3.9947,-3.9245,-3.8414,-3.7667,-3.6917,-3.6196,-3.5475,-3.5097,-3.504,-3.4926,-3.4945,-3.4964,-3.4964,-3.4945,-3.4964,-3.4982,-3.5001,-3.5001,-3.5037,-3.5035,-3.5037,-3.4945,-3.4946,-3.4946,-3.4927,-3.4945,-3.4946,-3.4927,-3.4869,-3.483,-3.481,-5.4409,-5.439,-5.4221,-5.3282,-5.2006,-5.1705,-5.0823,-4.9678,-4.9509,-4.9509,-4.9509,-4.9509,-4.9509,-4.9509,-4.9509,-4.9509,-4.9509,-4.9509,-4.9509,-4.9509,-4.9509,-4.9509,-4.9509,-4.9509,-4.9509,-4.9509,-4.9509,-4.9509,-4.9509,-4.9509,-4.9509,-4.9509,-4.9509,-4.9509,-4.9509,-4.9509,-4.9509,-4.9509,-4.949,-4.9471,-4.8908,-4.78,-4.658,-4.5716,-4.4946,-4.4477,-4.4402,-4.3313,-4.2524,-4.2036,-4.1529,-4.0891,-3.9952,-4.0196,-4.0534,-4.0459,-3.9934,-3.9695,-3.962,-3.962,-3.9714,-3.9971,-4.0497,-4.1038,-4.1996,-4.308,-4.3764,-4.3312,-4.3924,-4.4135,-4.2699,-4.3158,-4.3367,-4.3042,-4.2106,-4.1284,-4.096,-4.054,-4.0406,-4.0214,-3.9977,-4.0065,-4.0423,-4.0662,-4.028,-3.9397,-3.8523,-3.8454,-3.7737,-3.7014,-3.6293,-3.559,-3.5229,-3.5039,-3.5019,-3.5019,-3.5037,-3.5037,-3.5054,-3.5072,-3.5107,-3.5124,-3.5141,-3.5141,-3.5107,-3.5037,-3.5038,-3.502,-3.5037,-3.5054,-3.5092,-3.5057,-3.5002,-3.4927,-3.4889,-5.4409,-5.4334,-5.362,-5.2775,-5.1855,-5.1161,-5.0372,-4.9565,-4.9509,-4.9509,-4.9509,-4.9509,-4.9509,-4.9509,-4.9509,-4.9509,-4.9509,-4.9509,-4.9509,-4.9509,-4.9509,-4.9509,-4.9509,-4.9509,-4.9509,-4.9509,-4.9509,-4.9509,-4.9509,-4.9509,-4.9509,-4.9509,-4.9509,-4.9509,-4.9509,-4.9509,-4.9509,-4.9509,-4.9509,-4.9171,-4.8457,-4.7575,-4.6674,-4.5829,-4.5078,-4.4552,-4.4364,-4.3332,-4.2431,-4.2055,-4.0722,-3.9934,-3.9639,-3.9652,-3.9727,-3.9727,-3.9658,-3.962,-3.9639,-3.9733,-3.9971,-4.0434,-4.0939,-4.1836,-4.2987,-4.4135,-4.4566,-4.3374,-4.4045,-4.3811,-4.2717,-4.2577,-4.243,-4.2179,-4.1716,-4.1025,-4.0624,-4.0691,-4.0578,-4.0619,-4.0419,-4.0139,-4.0171,-4.045,-4.0558,-3.9575,-3.8839,-3.8765,-3.8461,-3.7662,-3.711,-3.6405,-3.568,-3.5413,-3.5053,-3.5089,-3.5337,-3.5278,-3.5162,-3.5234,-3.5386,-3.5405,-3.5174,-3.5157,-3.5124,-3.5124,-3.5107,-3.5124,-3.5141,-3.516,-3.5145,-3.5127,-3.5092,-3.502,-3.4982,-5.3714,-5.3677,-5.3339,-5.2419,-5.1255,-5.0823,-5.0241,-4.9602,-4.9509,-4.9509,-4.9509,-4.9509,-4.9509,-4.9509,-4.9509,-4.9509,-4.9509,-4.9509,-4.9509,-4.9509,-4.9509,-4.949,-4.9509,-4.9509,-4.9509,-4.9521,-4.9509,-4.9509,-4.949,-4.949,-4.9509,-4.9509,-4.9509,-4.9509,-4.9509,-4.9509,-4.9509,-4.9509,-4.9471,-4.9302,-4.8814,-4.8101,-4.7256,-4.643,-4.5604,-4.5003,-4.4383,-4.397,-4.3163,-4.2712,-4.1529,-4.0741,-4.0422,-4.0309,-4.0309,-4.029,-4.0309,-4.0084,-3.9727,-4.0052,-4.0447,-4.0867,-4.1415,-4.2379,-4.3787,-4.4908,-4.5322,-4.424,-4.4337,-4.3846,-4.2841,-4.2497,-4.2198,-4.1875,-4.1384,-4.1084,-4.0698,-4.0665,-4.0679,-4.0795,-4.081,-4.0485,-4.0195,-4.033,-4.0519,-4.0041,-3.9356,-3.9147,-3.8727,-3.804,-3.7583,-3.7238,-3.6474,-3.5825,-3.5405,-3.5176,-3.577,-3.5768,-3.5329,-3.546,-3.5766,-3.5747,-3.54,-3.519,-3.5157,-3.5174,-3.519,-3.5174,-3.5174,-3.5176,-3.5176,-3.516,-3.5126,-3.5143,-3.5107,-5.2757,-5.2569,-5.255,-5.1818,-5.0691,-5.0485,-5.0072,-4.9546,-4.9509,-4.9509,-4.9509,-4.9509,-4.9509,-4.9509,-4.9509,-4.9509,-4.9509,-4.9509,-4.9509,-4.9509,-4.9551,-4.9563,-4.9532,-4.9551,-4.9604,-4.9593,-4.9521,-4.9532,-4.9593,-4.9551,-4.9509,-4.9509,-4.9509,-4.9509,-4.9509,-4.9509,-4.9509,-4.9509,-4.9509,-4.9471,-4.9265,-4.8589,-4.7781,-4.6955,-4.6148,-4.5322,-4.4627,-4.4158,-4.3707,-4.3219,-4.2055,-4.121,-4.1098,-4.0885,-4.0967,-4.1067,-4.1199,-4.1071,-4.075,-4.0783,-4.0973,-4.1505,-4.242,-4.3713,-4.4504,-4.5479,-4.5568,-4.4657,-4.4645,-4.4122,-4.3272,-4.2427,-4.2028,-4.164,-4.1225,-4.1033,-4.0907,-4.0893,-4.0808,-4.0808,-4.0797,-4.0665,-4.045,-4.0386,-4.036,-4.0272,-3.9947,-3.9584,-3.924,-3.8801,-3.8648,-3.8476,-3.7731,-3.7177,-3.7063,-3.6661,-3.6795,-3.626,-3.584,-3.5706,-3.6048,-3.5783,-3.5286,-3.519,-3.519,-3.519,-3.519,-3.519,-3.519,-3.5193,-3.5193,-3.5193,-3.5174,-3.519,-3.519,-5.1555,-5.086,-5.0898,-5.0804,-5.0579,-4.9884,-4.9565,-4.9509,-4.9509,-4.9509,-4.9509,-4.9521,-4.9521,-4.9521,-4.9551,-4.9563,-4.9502,-4.949,-4.9563,-4.9615,-4.9665,-4.9683,-4.9655,-4.9693,-4.9768,-4.9731,-4.9683,-4.9712,-4.9703,-4.9673,-4.9593,-4.9509,-4.9521,-4.9521,-4.9509,-4.9509,-4.9521,-4.9521,-4.9521,-4.9509,-4.9314,-4.8701,-4.7894,-4.703,-4.6167,-4.5322,-4.4552,-4.3989,-4.3651,-4.3407,-4.2232,-4.1687,-4.1844,-4.1606,-4.1693,-4.2019,-4.2181,-4.2166,-4.2101,-4.1711,-4.1609,-4.261,-4.3848,-4.5057,-4.5452,-4.5693,-4.5491,-4.4913,-4.4846,-4.4081,-4.3082,-4.2199,-4.2111,-4.1898,-4.1704,-4.1471,-4.1325,-4.1141,-4.1062,-4.0917,-4.0807,-4.0694,-4.0635,-4.0545,-4.0392,-4.0308,-4.052,-4.0215,-4.0559,-4.031,-4.0157,-3.9871,-3.9126,-3.8877,-3.9317,-3.8801,-3.7366,-3.6791,-3.6482,-3.6348,-3.6405,-3.5911,-3.5242,-3.5239,-3.5235,-3.5223,-3.519,-3.519,-3.519,-3.519,-3.519,-3.519,-3.519,-3.519,-3.519,-5.0992,-5.0635,-5.0166,-4.9959,-4.994,-4.964,-4.9509,-4.9509,-4.9509,-4.9509,-4.949,-4.9596,-4.9615,-4.9623,-4.9833,-4.9841,-4.9731,-4.9868,-4.9895,-4.9929,-4.9987,-4.9903,-4.9849,-4.9857,-4.9968,-4.9884,-4.9868,-4.9948,-5.0012,-4.9929,-4.9948,-4.9868,-4.9673,-4.9521,-4.9509,-4.9551,-4.9593,-4.9663,-4.9593,-4.9539,-4.9537,-4.922,-4.8363,-4.7049,-4.692,-4.5811,-4.4749,-4.4334,-4.4137,-4.378,-4.293,-4.2793,-4.2819,-4.2621,-4.2745,-4.3071,-4.3198,-4.3314,-4.3384,-4.3073,-4.3264,-4.4154,-4.5156,-4.5733,-4.5912,-4.5929,-4.5847,-4.5451,-4.5024,-4.4316,-4.4054,-4.3355,-4.2928,-4.2617,-4.2345,-4.2073,-4.184,-4.1665,-4.1354,-4.1228,-4.1014,-4.0826,-4.0769,-4.0694,-4.0508,-4.0364,-4.0653,-4.0922,-4.1208,-4.1285,-4.0941,-4.0672,-3.9964,-3.9352,-3.9677,-3.8682,-3.7479,-3.734,-3.7198,-3.6773,-3.6481,-3.5871,-3.5335,-3.5315,-3.5296,-3.5266,-3.5254,-3.5223,-3.5226,-3.5223,-3.5207,-3.519,-3.519,-3.519,-3.519,-5.0335,-5.026,-4.9734,-4.9509,-4.9509,-4.9509,-4.9509,-4.9509,-4.9509,-4.9509,-4.9521,-4.9703,-4.9712,-4.9722,-4.9981,-5.0111,-4.9987,-5.0087,-5.0159,-5.0206,-5.023,-5.0135,-5.0092,-5.0116,-5.0233,-5.0092,-5.0111,-5.0206,-5.0303,-5.0256,-5.0187,-5.0092,-4.9929,-4.9787,-4.9673,-4.9634,-4.974,-4.9807,-4.975,-4.9653,-4.975,-4.9588,-4.902,-4.7674,-4.7343,-4.6531,-4.541,-4.4903,-4.4726,-4.4436,-4.4007,-4.3815,-4.3862,-4.395,-4.398,-4.4119,-4.4279,-4.4322,-4.4403,-4.4268,-4.4554,-4.5247,-4.5597,-4.5854,-4.5925,-4.5964,-4.5908,-4.5919,-4.5433,-4.5064,-4.4909,-4.4171,-4.3607,-4.3258,-4.3122,-4.2869,-4.2539,-4.2287,-4.1879,-4.1548,-4.1247,-4.0846,-4.0792,-4.0759,-4.0877,-4.0655,-4.0607,-4.0991,-4.1466,-4.1431,-4.1111,-4.0879,-4.0551,-4.0015,-3.9536,-3.8876,-3.8351,-3.8481,-3.8089,-3.6887,-3.6348,-3.5776,-3.5449,-3.5424,-3.5378,-3.5355,-3.534,-3.5355,-3.5315,-3.5273,-3.527,-3.5296,-3.5207,-3.5223,-3.5242,-4.9565,-4.9527,-4.9509,-4.9509,-4.9509,-4.9509,-4.9509,-4.9509,-4.9509,-4.9539,-4.9563,-4.9731,-4.983,-4.9884,-5.014,-5.0252,-5.023,-5.0252,-5.0298,-5.0342,-5.0508,-5.0406,-5.0363,-5.0425,-5.0548,-5.0508,-5.0448,-5.0489,-5.0586,-5.047,-5.0389,-5.037,-5.0284,-5.0149,-5.0012,-4.9914,-4.9925,-4.9925,-4.9925,-4.9898,-4.9898,-4.9871,-4.9229,-4.8461,-4.7896,-4.7163,-4.6057,-4.554,-4.53,-4.4916,-4.4446,-4.4435,-4.488,-4.4441,-4.4576,-4.5168,-4.5389,-4.558,-4.5717,-4.4882,-4.507,-4.5692,-4.5886,-4.5944,-4.5986,-4.5977,-4.5977,-4.5977,-4.5822,-4.5491,-4.5142,-4.4753,-4.4345,-4.4132,-4.4015,-4.3763,-4.3452,-4.3141,-4.2792,-4.1995,-4.1294,-4.082,-4.0776,-4.0817,-4.1125,-4.106,-4.0758,-4.0973,-4.1466,-4.1396,-4.1023,-4.0907,-4.0726,-4.0707,-4.0185,-3.961,-3.9254,-3.9422,-3.8722,-3.7244,-3.6349,-3.5874,-3.5642,-3.5558,-3.547,-3.5451,-3.5477,-3.5514,-3.5451,-3.5402,-3.5438,-3.5418,-3.5326,-3.5155,-3.5032,-4.9509,-4.9509,-4.9509,-4.9509,-4.9509,-4.9509,-4.9509,-4.9509,-4.949,-4.9574,-4.9741,-4.9952,-5.0063,-5.0178,-5.0429,-5.0567,-5.0488,-5.0625,-5.0662,-5.0681,-5.0789,-5.0662,-5.0625,-5.0717,-5.0825,-5.0735,-5.068,-5.0769,-5.0921,-5.0786,-5.0822,-5.0819,-5.0678,-5.0567,-5.0368,-5.0256,-5.021,-5.0249,-5.0155,-5.0025,-5.0012,-4.9922,-4.9535,-4.87,-4.8519,-4.7728,-4.6519,-4.6164,-4.5784,-4.5342,-4.4863,-4.5091,-4.5414,-4.5028,-4.5252,-4.561,-4.5715,-4.5761,-4.5854,-4.5551,-4.56,-4.5886,-4.5975,-4.5977,-4.5977,-4.5977,-4.5977,-4.5977,-4.5977,-4.5763,-4.5647,-4.5589,-4.5356,-4.5375,-4.5239,-4.487,-4.454,-4.4268,-4.3821,-4.2636,-4.1752,-4.1304,-4.1108,-4.0873,-4.104,-4.1093,-4.0783,-4.067,-4.1031,-4.0964,-4.0723,-4.0742,-4.0718,-4.0983,-4.0824,-3.9992,-3.9277,-3.9076,-3.8237,-3.6917,-3.6258,-3.5977,-3.5775,-3.5669,-3.5596,-3.5519,-3.5574,-3.5596,-3.555,-3.5526,-3.5543,-3.5423,-3.5226,-3.4878,-3.4501,-4.9509,-4.9509,-4.9509,-4.9532,-4.9604,-4.9551,-4.9509,-4.9521,-4.9661,-4.9778,-4.9868,-5.0171,-5.034,-5.0466,-5.0699,-5.0839,-5.0718,-5.0822,-5.089,-5.0906,-5.099,-5.0874,-5.0855,-5.0956,-5.0975,-5.0921,-5.0971,-5.1081,-5.1042,-5.1075,-5.1075,-5.1062,-5.1029,-5.0898,-5.0731,-5.0605,-5.049,-5.0489,-5.0387,-5.0342,-5.0317,-5.0195,-4.9958,-4.9411,-4.8886,-4.8163,-4.7223,-4.6626,-4.6208,-4.5712,-4.5574,-4.5623,-4.5688,-4.5723,-4.5771,-4.5786,-4.5814,-4.5854,-4.5917,-4.5933,-4.5908,-4.5977,-4.5977,-4.5977,-4.5977,-4.5977,-4.5977,-4.5977,-4.5977,-4.5977,-4.5977,-4.5977,-4.5977,-4.5958,-4.5899,-4.553,-4.5394,-4.5084,-4.487,-4.3627,-4.2597,-4.2092,-4.1432,-4.1092,-4.0956,-4.0886,-4.0796,-4.073,-4.0668,-4.0642,-4.0642,-4.0688,-4.0726,-4.09,-4.0713,-4.0072,-3.9409,-3.8819,-3.7928,-3.6988,-3.6454,-3.6203,-3.5997,-3.5801,-3.5708,-3.5649,-3.5689,-3.5699,-3.5669,-3.5639,-3.5639,-3.5452,-3.5172,-3.4747,-3.4295,-4.9521,-4.9471,-4.9502,-4.9655,-4.9768,-4.9673,-4.9593,-4.9582,-4.9984,-5.0054,-4.9884,-5.0377,-5.0566,-5.0625,-5.0825,-5.0909,-5.0874,-5.0906,-5.0925,-5.0941,-5.0986,-5.0952,-5.1,-5.1067,-5.1081,-5.1101,-5.1114,-5.1121,-5.1095,-5.1114,-5.1146,-5.119,-5.1166,-5.1102,-5.1009,-5.0883,-5.075,-5.0715,-5.0678,-5.0624,-5.0568,-5.0567,-5.0452,-5.0009,-4.9313,-4.854,-4.7703,-4.6989,-4.6292,-4.5899,-4.5874,-4.5917,-4.5929,-4.5925,-4.5941,-4.5964,-4.5956,-4.5986,-4.5986,-4.5997,-4.5997,-4.5977,-4.5977,-4.5977,-4.5977,-4.5977,-4.5977,-4.5977,-4.5977,-4.5977,-4.5977,-4.5977,-4.5977,-4.6055,-4.6152,-4.6035,-4.5997,-4.5861,-4.5763,-4.4967,-4.3879,-4.3063,-4.2053,-4.1529,-4.0888,-4.0878,-4.0849,-4.0849,-4.0776,-4.0718,-4.073,-4.0818,-4.0837,-4.0846,-4.0546,-4.0208,-3.9791,-3.9287,-3.8491,-3.7626,-3.7053,-3.6431,-3.6179,-3.5985,-3.5849,-3.5782,-3.5765,-3.5773,-3.5782,-3.5754,-3.5745,-3.5553,-3.528,-3.4758,-3.4284,-4.9363,-4.8937,-4.9675,-5.0012,-5.0111,-5.0206,-5.0197,-5.0063,-5.0165,-5.0229,-5.0385,-5.0528,-5.0694,-5.0822,-5.0874,-5.089,-5.0921,-5.0941,-5.099,-5.1005,-5.1029,-5.1056,-5.1082,-5.1134,-5.1146,-5.1166,-5.1166,-5.1146,-5.1159,-5.1171,-5.1171,-5.1202,-5.1202,-5.1202,-5.1159,-5.1082,-5.0995,-5.0917,-5.0902,-5.0835,-5.0748,-5.0731,-5.0731,-5.0381,-4.9769,-4.8991,-4.815,-4.7378,-4.6639,-4.605,-4.5983,-4.5986,-4.5986,-4.5975,-4.5986,-4.5997,-4.5977,-4.5997,-4.5977,-4.5977,-4.5977,-4.5977,-4.5977,-4.5977,-4.5977,-4.5977,-4.5977,-4.5977,-4.6133,-4.623,-4.6307,-4.6327,-4.6385,-4.6502,-4.6696,-4.6871,-4.689,-4.7045,-4.6871,-4.5899,-4.4851,-4.3471,-4.25,-4.1451,-4.0888,-4.0888,-4.0888,-4.0888,-4.0878,-4.0798,-4.0787,-4.0869,-4.0898,-4.0868,-4.0878,-4.0616,-4.0199,-3.9713,-3.8984,-3.8188,-3.7411,-3.6828,-3.642,-3.6101,-3.5868,-3.5791,-3.5791,-3.5799,-3.5815,-3.5857,-3.583,-3.5643,-3.5377,-3.4872,-3.4359,-4.8992,-4.8389,-4.8934,-4.9258,-4.9424,-5.0009,-4.999,-4.966,-5.0164,-5.0546,-5.0587,-5.0673,-5.079,-5.0921,-5.0941,-5.0975,-5.099,-5.102,-5.1039,-5.1067,-5.1089,-5.1082,-5.1108,-5.1152,-5.119,-5.1202,-5.1202,-5.119,-5.1202,-5.1202,-5.1202,-5.1202,-5.1202,-5.1202,-5.119,-5.1178,-5.1146,-5.1089,-5.1042,-5.0995,-5.0932,-5.0883,-5.0917,-5.0743,-5.0162,-4.9356,-4.8496,-4.7722,-4.6879,-4.6152,-4.5997,-4.5977,-4.5977,-4.5997,-4.5997,-4.5977,-4.5977,-4.5977,-4.5977,-4.5977,-4.5977,-4.6016,-4.6055,-4.5977,-4.5977,-4.5977,-4.5977,-4.6016,-4.6327,-4.6579,-4.6676,-4.6793,-4.6948,-4.7084,-4.7434,-4.7784,-4.8017,-4.8269,-4.7609,-4.6657,-4.5375,-4.3918,-4.2694,-4.1607,-4.0888,-4.0888,-4.0888,-4.0888,-4.0888,-4.0869,-4.0849,-4.0878,-4.0888,-4.0898,-4.0888,-4.0888,-4.0597,-4.0189,-3.9684,-3.8868,-3.7916,-3.7139,-3.6634,-3.6207,-3.5829,-3.5807,-3.5842,-3.5842,-3.5857,-3.5878,-3.5898,-3.5774,-3.548,-3.5006,-3.4513,-4.8582,-4.7895,-4.784,-4.818,-4.8278,-4.9319,-4.9324,-4.872,-5.0107,-5.0673,-5.0564,-5.0687,-5.0801,-5.0966,-5.1005,-5.102,-5.1034,-5.1081,-5.1062,-5.1081,-5.1121,-5.1127,-5.1139,-5.1152,-5.1202,-5.1202,-5.1202,-5.1202,-5.1202,-5.1202,-5.1202,-5.1202,-5.1202,-5.1202,-5.1202,-5.1202,-5.119,-5.1178,-5.1178,-5.1146,-5.1178,-5.119,-5.1183,-5.1016,-5.0336,-4.9493,-4.8608,-4.7764,-4.689,-4.6307,-4.5977,-4.5977,-4.5977,-4.5977,-4.5977,-4.5977,-4.5977,-4.6171,-4.6249,-4.6327,-4.6404,-4.6366,-4.623,-4.6346,-4.6463,-4.6094,-4.5997,-4.6404,-4.6754,-4.7162,-4.7356,-4.7628,-4.7822,-4.8017,-4.8308,-4.858,-4.8813,-4.8949,-4.8658,-4.757,-4.6113,-4.4617,-4.2928,-4.184,-4.0907,-4.0888,-4.0888,-4.0888,-4.0888,-4.0888,-4.0888,-4.0888,-4.0888,-4.0888,-4.0888,-4.0888,-4.0888,-4.0577,-4.0169,-3.9606,-3.8712,-3.778,-3.6837,-3.6456,-3.6122,-3.5923,-3.5878,-3.5878,-3.5892,-3.5878,-3.5883,-3.5897,-3.5593,-3.5185,-3.4963,-4.9681,-4.8952,-4.9139,-4.9264,-4.9296,-4.9575,-4.9591,-4.9417,-4.978,-4.9958,-4.9939,-5.0022,-5.0439,-5.1029,-5.1067,-5.1081,-5.1101,-5.1108,-5.1082,-5.1114,-5.1159,-5.1159,-5.1171,-5.119,-5.1202,-5.1202,-5.1202,-5.1202,-5.1202,-5.1202,-5.1202,-5.1202,-5.1202,-5.1202,-5.1202,-5.1202,-5.1202,-5.1202,-5.1202,-5.1202,-5.1202,-5.1202,-5.1183,-5.095,-5.0367,-4.9532,-4.8677,-4.7803,-4.6909,-4.6171,-4.6035,-4.5977,-4.5977,-4.5977,-4.5977,-4.5997,-4.6055,-4.6404,-4.6754,-4.6948,-4.7143,-4.7609,-4.7686,-4.7434,-4.7084,-4.6385,-4.6268,-4.6773,-4.722,-4.7648,-4.8055,-4.8366,-4.8677,-4.891,-4.9143,-4.9337,-4.9532,-4.9532,-4.9532,-4.8211,-4.6773,-4.5084,-4.3316,-4.2112,-4.1238,-4.0888,-4.0888,-4.0888,-4.0888,-4.0888,-4.0888,-4.0888,-4.0888,-4.0888,-4.0888,-4.0917,-4.0926,-4.0917,-4.0606,-4.0062,-3.944,-3.833,-3.7245,-3.6805,-3.6469,-3.6385,-3.6222,-3.5955,-3.5947,-3.5924,-3.5909,-3.5919,-3.5889,-3.5585,-3.5509,-4.9348,-4.8979,-4.9482,-4.9475,-4.9243,-4.9533,-4.9494,-4.9199,-4.9161,-4.9185,-4.9298,-4.9621,-5.0255,-5.1011,-5.1089,-5.1108,-5.114,-5.1146,-5.1159,-5.1159,-5.1171,-5.119,-5.1202,-5.1202,-5.1202,-5.1202,-5.1202,-5.1202,-5.1202,-5.1202,-5.1202,-5.1202,-5.1202,-5.1202,-5.1202,-5.1202,-5.1202,-5.1202,-5.1202,-5.1202,-5.1202,-5.1202,-5.1202,-5.0969,-5.0619,-4.9765,-4.8852,-4.7997,-4.7201,-4.6385,-4.5997,-4.5977,-4.5977,-4.5977,-4.5977,-4.6133,-4.6366,-4.6793,-4.724,-4.7686,-4.792,-4.823,-4.8114,-4.7434,-4.6676,-4.6074,-4.6404,-4.689,-4.7162,-4.757,-4.8172,-4.8561,-4.8988,-4.9299,-4.9571,-4.9823,-4.9978,-5.0076,-4.9279,-4.7822,-4.6288,-4.4598,-4.2986,-4.1743,-4.1024,-4.0888,-4.0888,-4.0888,-4.0888,-4.0888,-4.0888,-4.0897,-4.0897,-4.0935,-4.0943,-4.0971,-4.0971,-4.0963,-4.0943,-4.0396,-3.9711,-3.8597,-3.7657,-3.7527,-3.7319,-3.7058,-3.6854,-3.645,-3.6065,-3.5977,-3.5962,-3.5938,-3.5909,-3.5899,-3.578,-4.8508,-4.8682,-4.9397,-4.9281,-4.874,-4.9359,-4.9335,-4.8783,-4.8692,-4.8753,-4.8902,-4.9411,-5.0149,-5.07,-5.1108,-5.1139,-5.119,-5.119,-5.119,-5.119,-5.1202,-5.1202,-5.1202,-5.1202,-5.1202,-5.1202,-5.1202,-5.1202,-5.1202,-5.1202,-5.1202,-5.1202,-5.1202,-5.1202,-5.1202,-5.1202,-5.1202,-5.1202,-5.1202,-5.1202,-5.1202,-5.1202,-5.1202,-5.1202,-5.095,-5.0173,-4.9104,-4.8191,-4.7434,-4.6715,-4.5977,-4.5977,-4.5977,-4.5977,-4.5977,-4.6133,-4.6735,-4.7181,-4.7686,-4.8366,-4.825,-4.8055,-4.7667,-4.7201,-4.654,-4.6366,-4.6696,-4.689,-4.7162,-4.757,-4.8191,-4.8599,-4.9046,-4.9376,-4.9668,-4.9901,-5.0037,-5.0114,-4.8852,-4.7414,-4.588,-4.421,-4.3005,-4.1743,-4.1102,-4.0966,-4.0907,-4.0888,-4.0888,-4.0888,-4.0888,-4.0926,-4.0935,-4.0952,-4.0988,-4.0976,-4.0976,-4.0984,-4.0906,-4.0519,-4.0033,-3.9201,-3.8681,-3.8589,-3.8361,-3.781,-3.7386,-3.698,-3.6594,-3.6064,-3.5966,-3.5923,-3.5919,-3.589,-3.589,-4.8817,-4.9475,-4.9649,-4.9591,-4.9494,-4.9649,-4.9606,-4.9495,-4.9489,-4.955,-4.929,-4.8968,-4.9329,-5.0161,-5.0918,-5.1066,-5.0775,-5.0911,-5.1125,-5.1202,-5.0872,-5.1027,-5.1183,-5.1125,-5.1202,-5.1202,-5.1202,-5.1202,-5.1202,-5.1202,-5.1202,-5.1202,-5.1202,-5.1202,-5.1202,-5.1202,-5.1202,-5.1202,-5.1202,-5.1202,-5.1202,-5.1202,-5.1202,-5.0969,-5.0484,-4.9629,-4.8716,-4.792,-4.7026,-4.6346,-4.5977,-4.5977,-4.5977,-4.5977,-4.5977,-4.6268,-4.689,-4.7531,-4.8094,-4.891,-4.891,-4.8716,-4.8425,-4.8047,-4.7386,-4.6775,-4.6989,-4.6989,-4.725,-4.7609,-4.8075,-4.8211,-4.8561,-4.8716,-4.8949,-4.9027,-4.9124,-4.8968,-4.8327,-4.7104,-4.5861,-4.4579,-4.3569,-4.2325,-4.116,-4.1043,-4.0946,-4.0927,-4.0888,-4.0888,-4.0888,-4.0926,-4.0952,-4.096,-4.0996,-4.0986,-4.0993,-4.0981,-4.0968,-4.0766,-4.0466,-4.0067,-3.9702,-3.956,-3.8931,-3.8241,-3.7854,-3.7398,-3.6715,-3.6185,-3.5986,-3.5884,-3.5884,-3.5903,-3.5927]}]]